<?xml version='1.0' encoding='UTF-8'?><gpx version="1.1" creator="JPX - https://github.com/jenetics/jpx" xmlns="http://www.topografix.com/GPX/1/1"><trk><trkseg><trkpt lat="-36.7400217" lon="174.4225102"><ele>85.0</ele><time>2026-03-28T19:55:06.627Z</time></trkpt><trkpt lat="-36.7400237" lon="174.4224274"><ele>85.0</ele><time>2026-03-28T19:55:12.626Z</time></trkpt><trkpt lat="-36.7400724" lon="174.422332"><ele>85.0</ele><time>2026-03-28T19:55:17.626Z</time></trkpt><trkpt lat="-36.7401079" lon="174.4222203"><ele>85.0</ele><time>2026-03-28T19:55:20.627Z</time></trkpt><trkpt lat="-36.7401586" lon="174.422145"><ele>85.0</ele><time>2026-03-28T19:55:22.627Z</time></trkpt><trkpt lat="-36.7402077" lon="174.4220766"><ele>85.0</ele><time>2026-03-28T19:55:24.625Z</time></trkpt><trkpt lat="-36.7402638" lon="174.4220312"><ele>86.5</ele><time>2026-03-28T19:55:27.627Z</time></trkpt><trkpt lat="-36.740326" lon="174.4220808"><ele>88.0</ele><time>2026-03-28T19:55:30.626Z</time></trkpt><trkpt lat="-36.7404081" lon="174.4220594"><ele>89.5</ele><time>2026-03-28T19:55:33.626Z</time></trkpt><trkpt lat="-36.7404576" lon="174.4219958"><ele>91.0</ele><time>2026-03-28T19:55:35.626Z</time></trkpt><trkpt lat="-36.7405161" lon="174.4219295"><ele>92.5</ele><time>2026-03-28T19:55:39.626Z</time></trkpt><trkpt lat="-36.7406071" lon="174.4219092"><ele>94.0</ele><time>2026-03-28T19:55:42.626Z</time></trkpt><trkpt lat="-36.740677" lon="174.4218935"><ele>94.0</ele><time>2026-03-28T19:55:44.627Z</time></trkpt><trkpt lat="-36.7407327" lon="174.4219335"><ele>94.0</ele><time>2026-03-28T19:55:46.626Z</time></trkpt><trkpt lat="-36.7407426" lon="174.4218388"><ele>94.0</ele><time>2026-03-28T19:55:50.626Z</time></trkpt><trkpt lat="-36.7407235" lon="174.4217435"><ele>94.0</ele><time>2026-03-28T19:55:52.626Z</time></trkpt><trkpt lat="-36.7407114" lon="174.4216423"><ele>94.0</ele><time>2026-03-28T19:55:54.627Z</time></trkpt><trkpt lat="-36.7407363" lon="174.421567"><ele>94.0</ele><time>2026-03-28T19:55:56.627Z</time></trkpt><trkpt lat="-36.7408063" lon="174.421556"><ele>94.0</ele><time>2026-03-28T19:55:58.627Z</time></trkpt><trkpt lat="-36.7408728" lon="174.4215476"><ele>94.0</ele><time>2026-03-28T19:56:00.626Z</time></trkpt><trkpt lat="-36.7409197" lon="174.4214462"><ele>94.0</ele><time>2026-03-28T19:56:03.626Z</time></trkpt><trkpt lat="-36.740939" lon="174.4213309"><ele>94.0</ele><time>2026-03-28T19:56:05.626Z</time></trkpt><trkpt lat="-36.7409477" lon="174.4212317"><ele>94.0</ele><time>2026-03-28T19:56:07.625Z</time></trkpt><trkpt lat="-36.7409491" lon="174.4211455"><ele>94.0</ele><time>2026-03-28T19:56:09.625Z</time></trkpt><trkpt lat="-36.740987" lon="174.4210337"><ele>94.0</ele><time>2026-03-28T19:56:11.625Z</time></trkpt><trkpt lat="-36.7410353" lon="174.4209522"><ele>96.0</ele><time>2026-03-28T19:56:13.627Z</time></trkpt><trkpt lat="-36.7410833" lon="174.4208924"><ele>98.0</ele><time>2026-03-28T19:56:15.626Z</time></trkpt><trkpt lat="-36.7411224" lon="174.420814"><ele>100.0</ele><time>2026-03-28T19:56:17.626Z</time></trkpt><trkpt lat="-36.7411473" lon="174.4207169"><ele>102.0</ele><time>2026-03-28T19:56:19.626Z</time></trkpt><trkpt lat="-36.741209" lon="174.4206349"><ele>104.00000000000001</ele><time>2026-03-28T19:56:21.626Z</time></trkpt><trkpt lat="-36.7412875" lon="174.4205553"><ele>106.0</ele><time>2026-03-28T19:56:23.625Z</time></trkpt><trkpt lat="-36.7413423" lon="174.4205124"><ele>105.19999999999999</ele><time>2026-03-28T19:56:24.627Z</time></trkpt><trkpt lat="-36.7413937" lon="174.4204575"><ele>104.39999999999999</ele><time>2026-03-28T19:56:25.625Z</time></trkpt><trkpt lat="-36.741443" lon="174.4204044"><ele>103.6</ele><time>2026-03-28T19:56:26.626Z</time></trkpt><trkpt lat="-36.7415389" lon="174.4203092"><ele>102.8</ele><time>2026-03-28T19:56:28.627Z</time></trkpt><trkpt lat="-36.7415423" lon="174.4201981"><ele>102.0</ele><time>2026-03-28T19:56:30.626Z</time></trkpt><trkpt lat="-36.7415254" lon="174.4200679"><ele>102.0</ele><time>2026-03-28T19:56:32.626Z</time></trkpt><trkpt lat="-36.7415173" lon="174.419983"><ele>102.0</ele><time>2026-03-28T19:56:33.627Z</time></trkpt><trkpt lat="-36.7415071" lon="174.4199044"><ele>102.0</ele><time>2026-03-28T19:56:34.627Z</time></trkpt><trkpt lat="-36.7415142" lon="174.4198204"><ele>102.0</ele><time>2026-03-28T19:56:35.626Z</time></trkpt><trkpt lat="-36.7415131" lon="174.4196946"><ele>102.0</ele><time>2026-03-28T19:56:37.627Z</time></trkpt><trkpt lat="-36.7414963" lon="174.4195677"><ele>102.0</ele><time>2026-03-28T19:56:39.625Z</time></trkpt><trkpt lat="-36.7414502" lon="174.4194583"><ele>103.16666666666667</ele><time>2026-03-28T19:56:41.626Z</time></trkpt><trkpt lat="-36.7413897" lon="174.4193621"><ele>104.33333333333334</ele><time>2026-03-28T19:56:43.626Z</time></trkpt><trkpt lat="-36.7414299" lon="174.4192736"><ele>105.5</ele><time>2026-03-28T19:56:45.626Z</time></trkpt><trkpt lat="-36.7414759" lon="174.4192199"><ele>106.66666666666667</ele><time>2026-03-28T19:56:47.626Z</time></trkpt><trkpt lat="-36.7415336" lon="174.4191659"><ele>107.83333333333334</ele><time>2026-03-28T19:56:49.626Z</time></trkpt><trkpt lat="-36.7416014" lon="174.4191251"><ele>109.0</ele><time>2026-03-28T19:56:51.628Z</time></trkpt><trkpt lat="-36.7416721" lon="174.4190802"><ele>109.00000000000001</ele><time>2026-03-28T19:56:53.626Z</time></trkpt><trkpt lat="-36.7417473" lon="174.4190389"><ele>109.0</ele><time>2026-03-28T19:56:55.626Z</time></trkpt><trkpt lat="-36.7418295" lon="174.4190131"><ele>109.0</ele><time>2026-03-28T19:56:57.625Z</time></trkpt><trkpt lat="-36.7419079" lon="174.4189963"><ele>109.0</ele><time>2026-03-28T19:56:59.625Z</time></trkpt><trkpt lat="-36.7419863" lon="174.4189639"><ele>109.00000000000001</ele><time>2026-03-28T19:57:01.625Z</time></trkpt><trkpt lat="-36.7420816" lon="174.4189414"><ele>109.0</ele><time>2026-03-28T19:57:03.626Z</time></trkpt><trkpt lat="-36.7421731" lon="174.4188994"><ele>109.6</ele><time>2026-03-28T19:57:05.626Z</time></trkpt><trkpt lat="-36.742261" lon="174.4188432"><ele>110.2</ele><time>2026-03-28T19:57:07.626Z</time></trkpt><trkpt lat="-36.7423531" lon="174.4187859"><ele>110.79999999999998</ele><time>2026-03-28T19:57:09.626Z</time></trkpt><trkpt lat="-36.742435" lon="174.4187327"><ele>111.39999999999999</ele><time>2026-03-28T19:57:11.626Z</time></trkpt><trkpt lat="-36.7425153" lon="174.4186862"><ele>112.0</ele><time>2026-03-28T19:57:13.625Z</time></trkpt><trkpt lat="-36.7426044" lon="174.4186449"><ele>112.6</ele><time>2026-03-28T19:57:15.626Z</time></trkpt><trkpt lat="-36.7426837" lon="174.4186536"><ele>113.19999999999999</ele><time>2026-03-28T19:57:17.625Z</time></trkpt><trkpt lat="-36.7427879" lon="174.4186734"><ele>113.8</ele><time>2026-03-28T19:57:19.626Z</time></trkpt><trkpt lat="-36.7428573" lon="174.4187234"><ele>114.4</ele><time>2026-03-28T19:57:21.626Z</time></trkpt><trkpt lat="-36.7429525" lon="174.4187122"><ele>115.0</ele><time>2026-03-28T19:57:23.625Z</time></trkpt><trkpt lat="-36.7430821" lon="174.4186957"><ele>115.00000000000001</ele><time>2026-03-28T19:57:25.627Z</time></trkpt><trkpt lat="-36.7431664" lon="174.4187169"><ele>115.0</ele><time>2026-03-28T19:57:27.626Z</time></trkpt><trkpt lat="-36.7432538" lon="174.4187358"><ele>115.0</ele><time>2026-03-28T19:57:29.625Z</time></trkpt><trkpt lat="-36.7433287" lon="174.4186964"><ele>115.0</ele><time>2026-03-28T19:57:31.625Z</time></trkpt><trkpt lat="-36.74342" lon="174.4186708"><ele>115.00000000000001</ele><time>2026-03-28T19:57:33.626Z</time></trkpt><trkpt lat="-36.7435012" lon="174.4186553"><ele>115.0</ele><time>2026-03-28T19:57:35.625Z</time></trkpt><trkpt lat="-36.74358" lon="174.4186464"><ele>115.66666666666667</ele><time>2026-03-28T19:57:37.625Z</time></trkpt><trkpt lat="-36.7436544" lon="174.4186793"><ele>116.33333333333334</ele><time>2026-03-28T19:57:39.626Z</time></trkpt><trkpt lat="-36.7437562" lon="174.4187157"><ele>117.0</ele><time>2026-03-28T19:57:41.626Z</time></trkpt><trkpt lat="-36.743853" lon="174.418766"><ele>117.66666666666666</ele><time>2026-03-28T19:57:43.626Z</time></trkpt><trkpt lat="-36.7439041" lon="174.4188129"><ele>118.33333333333333</ele><time>2026-03-28T19:57:44.625Z</time></trkpt><trkpt lat="-36.7439848" lon="174.4188351"><ele>119.0</ele><time>2026-03-28T19:57:46.625Z</time></trkpt><trkpt lat="-36.7440803" lon="174.4188535"><ele>119.83333333333333</ele><time>2026-03-28T19:57:48.626Z</time></trkpt><trkpt lat="-36.7441604" lon="174.4188454"><ele>120.66666666666666</ele><time>2026-03-28T19:57:50.626Z</time></trkpt><trkpt lat="-36.7442226" lon="174.4188658"><ele>121.5</ele><time>2026-03-28T19:57:52.626Z</time></trkpt><trkpt lat="-36.7443025" lon="174.4188453"><ele>122.33333333333334</ele><time>2026-03-28T19:57:54.626Z</time></trkpt><trkpt lat="-36.7443834" lon="174.4188591"><ele>123.16666666666667</ele><time>2026-03-28T19:57:57.625Z</time></trkpt><trkpt lat="-36.7444023" lon="174.418949"><ele>124.0</ele><time>2026-03-28T19:58:00.626Z</time></trkpt><trkpt lat="-36.7443806" lon="174.4190548"><ele>124.0</ele><time>2026-03-28T19:58:03.626Z</time></trkpt><trkpt lat="-36.7443482" lon="174.4191294"><ele>124.00000000000001</ele><time>2026-03-28T19:58:05.626Z</time></trkpt><trkpt lat="-36.7443182" lon="174.4192218"><ele>124.0</ele><time>2026-03-28T19:58:08.626Z</time></trkpt><trkpt lat="-36.7443859" lon="174.4192025"><ele>124.0</ele><time>2026-03-28T19:58:11.626Z</time></trkpt><trkpt lat="-36.7444557" lon="174.4191915"><ele>124.00000000000001</ele><time>2026-03-28T19:58:13.626Z</time></trkpt><trkpt lat="-36.7445233" lon="174.4191841"><ele>124.0</ele><time>2026-03-28T19:58:15.626Z</time></trkpt><trkpt lat="-36.74456" lon="174.4190948"><ele>124.0</ele><time>2026-03-28T19:58:18.626Z</time></trkpt><trkpt lat="-36.7445929" lon="174.4190156"><ele>124.85714285714286</ele><time>2026-03-28T19:58:20.626Z</time></trkpt><trkpt lat="-36.7446346" lon="174.4189488"><ele>125.71428571428572</ele><time>2026-03-28T19:58:22.626Z</time></trkpt><trkpt lat="-36.7446799" lon="174.4188721"><ele>126.57142857142858</ele><time>2026-03-28T19:58:24.626Z</time></trkpt><trkpt lat="-36.7447479" lon="174.4188072"><ele>127.42857142857144</ele><time>2026-03-28T19:58:27.626Z</time></trkpt><trkpt lat="-36.7447721" lon="174.4189025"><ele>128.28571428571428</ele><time>2026-03-28T19:58:32.626Z</time></trkpt><trkpt lat="-36.7447384" lon="174.4189785"><ele>129.14285714285717</ele><time>2026-03-28T19:58:34.626Z</time></trkpt><trkpt lat="-36.7447164" lon="174.4190596"><ele>130.0</ele><time>2026-03-28T19:58:36.626Z</time></trkpt><trkpt lat="-36.7447797" lon="174.4190705"><ele>130.00000000000003</ele><time>2026-03-28T19:58:39.626Z</time></trkpt><trkpt lat="-36.744827" lon="174.4190028"><ele>130.0</ele><time>2026-03-28T19:58:41.625Z</time></trkpt><trkpt lat="-36.7448734" lon="174.4189185"><ele>130.0</ele><time>2026-03-28T19:58:43.626Z</time></trkpt><trkpt lat="-36.7449104" lon="174.4188499"><ele>130.0</ele><time>2026-03-28T19:58:45.626Z</time></trkpt><trkpt lat="-36.7449536" lon="174.4189161"><ele>130.0</ele><time>2026-03-28T19:58:52.626Z</time></trkpt><trkpt lat="-36.7449966" lon="174.4190027"><ele>130.00000000000003</ele><time>2026-03-28T19:58:55.626Z</time></trkpt><trkpt lat="-36.7450401" lon="174.4190595"><ele>130.0</ele><time>2026-03-28T19:58:57.626Z</time></trkpt><trkpt lat="-36.7450951" lon="174.4190077"><ele>130.0</ele><time>2026-03-28T19:59:02.625Z</time></trkpt><trkpt lat="-36.7451699" lon="174.4190123"><ele>130.0</ele><time>2026-03-28T19:59:07.625Z</time></trkpt><trkpt lat="-36.7452031" lon="174.419114"><ele>130.0</ele><time>2026-03-28T19:59:10.626Z</time></trkpt><trkpt lat="-36.7452499" lon="174.4192137"><ele>130.0</ele><time>2026-03-28T19:59:13.626Z</time></trkpt><trkpt lat="-36.7453229" lon="174.4192143"><ele>130.0</ele><time>2026-03-28T19:59:15.626Z</time></trkpt><trkpt lat="-36.7453949" lon="174.4192177"><ele>130.0</ele><time>2026-03-28T19:59:17.626Z</time></trkpt><trkpt lat="-36.7454748" lon="174.4192001"><ele>130.66666666666669</ele><time>2026-03-28T19:59:19.626Z</time></trkpt><trkpt lat="-36.7455397" lon="174.4191254"><ele>131.33333333333334</ele><time>2026-03-28T19:59:21.626Z</time></trkpt><trkpt lat="-36.7455775" lon="174.4190588"><ele>132.0</ele><time>2026-03-28T19:59:22.626Z</time></trkpt><trkpt lat="-36.7456307" lon="174.4189722"><ele>132.66666666666666</ele><time>2026-03-28T19:59:24.626Z</time></trkpt><trkpt lat="-36.7456692" lon="174.4188706"><ele>133.33333333333331</ele><time>2026-03-28T19:59:26.627Z</time></trkpt><trkpt lat="-36.7457197" lon="174.4187847"><ele>134.0</ele><time>2026-03-28T19:59:28.626Z</time></trkpt><trkpt lat="-36.7457743" lon="174.4187075"><ele>134.0</ele><time>2026-03-28T19:59:30.626Z</time></trkpt><trkpt lat="-36.745824" lon="174.4186258"><ele>134.0</ele><time>2026-03-28T19:59:32.626Z</time></trkpt><trkpt lat="-36.7458826" lon="174.4185377"><ele>134.0</ele><time>2026-03-28T19:59:34.626Z</time></trkpt><trkpt lat="-36.7459427" lon="174.4184365"><ele>134.0</ele><time>2026-03-28T19:59:36.626Z</time></trkpt><trkpt lat="-36.7460022" lon="174.4183521"><ele>134.0</ele><time>2026-03-28T19:59:38.626Z</time></trkpt><trkpt lat="-36.7460367" lon="174.4182601"><ele>134.0</ele><time>2026-03-28T19:59:40.625Z</time></trkpt><trkpt lat="-36.7460729" lon="174.4181818"><ele>134.0</ele><time>2026-03-28T19:59:42.624Z</time></trkpt><trkpt lat="-36.7461182" lon="174.4180994"><ele>134.0</ele><time>2026-03-28T19:59:44.626Z</time></trkpt><trkpt lat="-36.7461555" lon="174.4180033"><ele>134.0</ele><time>2026-03-28T19:59:46.626Z</time></trkpt><trkpt lat="-36.7461788" lon="174.4179121"><ele>134.0</ele><time>2026-03-28T19:59:48.626Z</time></trkpt><trkpt lat="-36.746198" lon="174.4178294"><ele>134.0</ele><time>2026-03-28T19:59:50.626Z</time></trkpt><trkpt lat="-36.7462301" lon="174.4177528"><ele>134.0</ele><time>2026-03-28T19:59:53.626Z</time></trkpt><trkpt lat="-36.7462952" lon="174.4177576"><ele>134.0</ele><time>2026-03-28T20:00:10.626Z</time></trkpt><trkpt lat="-36.746292" lon="174.4178378"><ele>134.0</ele><time>2026-03-28T20:00:13.626Z</time></trkpt><trkpt lat="-36.7462645" lon="174.4179591"><ele>134.0</ele><time>2026-03-28T20:00:15.625Z</time></trkpt><trkpt lat="-36.7462088" lon="174.4180671"><ele>134.0</ele><time>2026-03-28T20:00:17.626Z</time></trkpt><trkpt lat="-36.7461486" lon="174.418164"><ele>134.0</ele><time>2026-03-28T20:00:18.626Z</time></trkpt><trkpt lat="-36.7461097" lon="174.4183105"><ele>134.0</ele><time>2026-03-28T20:00:20.626Z</time></trkpt><trkpt lat="-36.7460754" lon="174.4183805"><ele>134.0</ele><time>2026-03-28T20:00:21.627Z</time></trkpt><trkpt lat="-36.746019" lon="174.4184478"><ele>134.0</ele><time>2026-03-28T20:00:22.626Z</time></trkpt><trkpt lat="-36.7459797" lon="174.4185226"><ele>134.0</ele><time>2026-03-28T20:00:23.625Z</time></trkpt><trkpt lat="-36.7459348" lon="174.4186003"><ele>134.0</ele><time>2026-03-28T20:00:24.626Z</time></trkpt><trkpt lat="-36.7458678" lon="174.4186863"><ele>134.0</ele><time>2026-03-28T20:00:25.625Z</time></trkpt><trkpt lat="-36.7458221" lon="174.4187473"><ele>134.0</ele><time>2026-03-28T20:00:26.626Z</time></trkpt><trkpt lat="-36.7458162" lon="174.4188274"><ele>134.0</ele><time>2026-03-28T20:00:27.626Z</time></trkpt><trkpt lat="-36.7458014" lon="174.4189312"><ele>134.0</ele><time>2026-03-28T20:00:28.626Z</time></trkpt><trkpt lat="-36.7457828" lon="174.41904"><ele>134.0</ele><time>2026-03-28T20:00:29.626Z</time></trkpt><trkpt lat="-36.7457136" lon="174.4190823"><ele>134.0</ele><time>2026-03-28T20:00:30.625Z</time></trkpt><trkpt lat="-36.7456331" lon="174.4191572"><ele>134.0</ele><time>2026-03-28T20:00:32.626Z</time></trkpt><trkpt lat="-36.7456793" lon="174.4192406"><ele>134.0</ele><time>2026-03-28T20:00:34.626Z</time></trkpt><trkpt lat="-36.7457851" lon="174.4192606"><ele>134.0</ele><time>2026-03-28T20:00:36.626Z</time></trkpt><trkpt lat="-36.7458129" lon="174.4193607"><ele>134.0</ele><time>2026-03-28T20:00:38.625Z</time></trkpt><trkpt lat="-36.7458046" lon="174.4194607"><ele>134.0</ele><time>2026-03-28T20:00:39.626Z</time></trkpt><trkpt lat="-36.7458361" lon="174.4195516"><ele>134.0</ele><time>2026-03-28T20:00:41.625Z</time></trkpt><trkpt lat="-36.7459088" lon="174.4195731"><ele>134.0</ele><time>2026-03-28T20:00:43.625Z</time></trkpt><trkpt lat="-36.7460171" lon="174.4195996"><ele>134.0</ele><time>2026-03-28T20:00:45.625Z</time></trkpt><trkpt lat="-36.746061" lon="174.4196764"><ele>133.66666666666666</ele><time>2026-03-28T20:00:46.626Z</time></trkpt><trkpt lat="-36.746079" lon="174.4197663"><ele>133.33333333333331</ele><time>2026-03-28T20:00:48.626Z</time></trkpt><trkpt lat="-36.7460616" lon="174.4198533"><ele>133.0</ele><time>2026-03-28T20:00:49.626Z</time></trkpt><trkpt lat="-36.7460479" lon="174.4199605"><ele>132.66666666666666</ele><time>2026-03-28T20:00:50.626Z</time></trkpt><trkpt lat="-36.7460246" lon="174.4200504"><ele>132.33333333333334</ele><time>2026-03-28T20:00:51.626Z</time></trkpt><trkpt lat="-36.7461007" lon="174.4201184"><ele>132.0</ele><time>2026-03-28T20:00:53.626Z</time></trkpt><trkpt lat="-36.7461837" lon="174.4200824"><ele>130.83333333333334</ele><time>2026-03-28T20:00:54.625Z</time></trkpt><trkpt lat="-36.7462692" lon="174.4200854"><ele>129.66666666666666</ele><time>2026-03-28T20:00:55.625Z</time></trkpt><trkpt lat="-36.7463503" lon="174.4200984"><ele>128.5</ele><time>2026-03-28T20:00:56.626Z</time></trkpt><trkpt lat="-36.7464377" lon="174.4200794"><ele>127.33333333333333</ele><time>2026-03-28T20:00:57.626Z</time></trkpt><trkpt lat="-36.7465171" lon="174.4200607"><ele>126.16666666666666</ele><time>2026-03-28T20:00:58.626Z</time></trkpt><trkpt lat="-36.7465851" lon="174.4200112"><ele>125.0</ele><time>2026-03-28T20:00:59.624Z</time></trkpt><trkpt lat="-36.7466034" lon="174.4199109"><ele>124.99999999999999</ele><time>2026-03-28T20:01:00.625Z</time></trkpt><trkpt lat="-36.7466309" lon="174.4198278"><ele>125.0</ele><time>2026-03-28T20:01:01.625Z</time></trkpt><trkpt lat="-36.7466225" lon="174.4197486"><ele>125.0</ele><time>2026-03-28T20:01:02.626Z</time></trkpt><trkpt lat="-36.7466345" lon="174.4196114"><ele>125.0</ele><time>2026-03-28T20:01:04.626Z</time></trkpt><trkpt lat="-36.7467091" lon="174.4195949"><ele>124.99999999999999</ele><time>2026-03-28T20:01:06.627Z</time></trkpt><trkpt lat="-36.7467677" lon="174.4196845"><ele>125.0</ele><time>2026-03-28T20:01:08.626Z</time></trkpt><trkpt lat="-36.7467838" lon="174.4197677"><ele>125.0</ele><time>2026-03-28T20:01:09.627Z</time></trkpt><trkpt lat="-36.7468262" lon="174.4198662"><ele>125.0</ele><time>2026-03-28T20:01:10.625Z</time></trkpt><trkpt lat="-36.7468419" lon="174.4199745"><ele>125.0</ele><time>2026-03-28T20:01:11.626Z</time></trkpt><trkpt lat="-36.7468533" lon="174.4201151"><ele>125.0</ele><time>2026-03-28T20:01:13.626Z</time></trkpt><trkpt lat="-36.7469228" lon="174.4201714"><ele>125.0</ele><time>2026-03-28T20:01:15.626Z</time></trkpt><trkpt lat="-36.7470328" lon="174.4201388"><ele>123.2</ele><time>2026-03-28T20:01:17.627Z</time></trkpt><trkpt lat="-36.7471369" lon="174.4200558"><ele>121.4</ele><time>2026-03-28T20:01:19.626Z</time></trkpt><trkpt lat="-36.7472178" lon="174.42011"><ele>119.6</ele><time>2026-03-28T20:01:21.626Z</time></trkpt><trkpt lat="-36.7472994" lon="174.420159"><ele>117.8</ele><time>2026-03-28T20:01:23.625Z</time></trkpt><trkpt lat="-36.7473723" lon="174.4201811"><ele>116.0</ele><time>2026-03-28T20:01:25.625Z</time></trkpt><trkpt lat="-36.7474552" lon="174.4201028"><ele>116.0</ele><time>2026-03-28T20:01:27.626Z</time></trkpt><trkpt lat="-36.7474917" lon="174.4200345"><ele>116.0</ele><time>2026-03-28T20:01:28.625Z</time></trkpt><trkpt lat="-36.7475265" lon="174.4199069"><ele>116.0</ele><time>2026-03-28T20:01:30.626Z</time></trkpt><trkpt lat="-36.7474863" lon="174.419802"><ele>116.0</ele><time>2026-03-28T20:01:32.625Z</time></trkpt><trkpt lat="-36.747405" lon="174.4197281"><ele>116.0</ele><time>2026-03-28T20:01:34.627Z</time></trkpt><trkpt lat="-36.7473187" lon="174.4196743"><ele>117.0</ele><time>2026-03-28T20:01:36.627Z</time></trkpt><trkpt lat="-36.7472461" lon="174.419593"><ele>118.0</ele><time>2026-03-28T20:01:38.624Z</time></trkpt><trkpt lat="-36.7472138" lon="174.4194722"><ele>119.0</ele><time>2026-03-28T20:01:40.626Z</time></trkpt><trkpt lat="-36.747216" lon="174.4193371"><ele>120.0</ele><time>2026-03-28T20:01:42.626Z</time></trkpt><trkpt lat="-36.7472002" lon="174.4192277"><ele>121.0</ele><time>2026-03-28T20:01:44.626Z</time></trkpt><trkpt lat="-36.7472348" lon="174.4191408"><ele>121.00000000000001</ele><time>2026-03-28T20:01:46.626Z</time></trkpt><trkpt lat="-36.7472993" lon="174.4190312"><ele>121.0</ele><time>2026-03-28T20:01:48.625Z</time></trkpt><trkpt lat="-36.7473595" lon="174.4189382"><ele>121.0</ele><time>2026-03-28T20:01:50.626Z</time></trkpt><trkpt lat="-36.747397" lon="174.4188708"><ele>121.0</ele><time>2026-03-28T20:01:52.626Z</time></trkpt><trkpt lat="-36.7474079" lon="174.4187832"><ele>121.00000000000001</ele><time>2026-03-28T20:01:54.626Z</time></trkpt><trkpt lat="-36.7473878" lon="174.4187007"><ele>121.0</ele><time>2026-03-28T20:01:57.625Z</time></trkpt><trkpt lat="-36.7474081" lon="174.4186054"><ele>122.0</ele><time>2026-03-28T20:01:59.625Z</time></trkpt><trkpt lat="-36.7474369" lon="174.418494"><ele>123.0</ele><time>2026-03-28T20:02:01.626Z</time></trkpt><trkpt lat="-36.7474722" lon="174.4183702"><ele>124.0</ele><time>2026-03-28T20:02:03.625Z</time></trkpt><trkpt lat="-36.7475123" lon="174.418287"><ele>125.0</ele><time>2026-03-28T20:02:04.626Z</time></trkpt><trkpt lat="-36.7475505" lon="174.418174"><ele>126.0</ele><time>2026-03-28T20:02:06.626Z</time></trkpt><trkpt lat="-36.7475142" lon="174.4180833"><ele>126.0</ele><time>2026-03-28T20:02:08.626Z</time></trkpt><trkpt lat="-36.7474345" lon="174.4180257"><ele>126.0</ele><time>2026-03-28T20:02:11.624Z</time></trkpt><trkpt lat="-36.7473609" lon="174.4179571"><ele>126.0</ele><time>2026-03-28T20:02:14.625Z</time></trkpt><trkpt lat="-36.747282" lon="174.4178798"><ele>126.0</ele><time>2026-03-28T20:02:17.626Z</time></trkpt><trkpt lat="-36.7472102" lon="174.4178371"><ele>126.0</ele><time>2026-03-28T20:02:19.627Z</time></trkpt><trkpt lat="-36.7471409" lon="174.4178022"><ele>126.0</ele><time>2026-03-28T20:02:21.626Z</time></trkpt><trkpt lat="-36.747066" lon="174.4177539"><ele>126.83333333333333</ele><time>2026-03-28T20:02:23.626Z</time></trkpt><trkpt lat="-36.7469887" lon="174.4177077"><ele>127.66666666666666</ele><time>2026-03-28T20:02:25.626Z</time></trkpt><trkpt lat="-36.7469196" lon="174.4176691"><ele>128.5</ele><time>2026-03-28T20:02:27.625Z</time></trkpt><trkpt lat="-36.746848" lon="174.417637"><ele>129.33333333333331</ele><time>2026-03-28T20:02:29.625Z</time></trkpt><trkpt lat="-36.7467809" lon="174.4175956"><ele>130.16666666666666</ele><time>2026-03-28T20:02:31.626Z</time></trkpt><trkpt lat="-36.7467116" lon="174.4175538"><ele>131.0</ele><time>2026-03-28T20:02:33.626Z</time></trkpt><trkpt lat="-36.7466425" lon="174.4175069"><ele>131.57142857142858</ele><time>2026-03-28T20:02:35.625Z</time></trkpt><trkpt lat="-36.7465777" lon="174.4174672"><ele>132.14285714285717</ele><time>2026-03-28T20:02:37.626Z</time></trkpt><trkpt lat="-36.7465123" lon="174.4174684"><ele>132.71428571428572</ele><time>2026-03-28T20:02:39.625Z</time></trkpt><trkpt lat="-36.7464622" lon="174.4175179"><ele>133.28571428571428</ele><time>2026-03-28T20:02:42.625Z</time></trkpt><trkpt lat="-36.7463956" lon="174.4175451"><ele>133.85714285714283</ele><time>2026-03-28T20:02:45.627Z</time></trkpt><trkpt lat="-36.7463462" lon="174.4176084"><ele>134.42857142857142</ele><time>2026-03-28T20:02:48.626Z</time></trkpt><trkpt lat="-36.7463241" lon="174.4176826"><ele>135.0</ele><time>2026-03-28T20:02:50.625Z</time></trkpt><trkpt lat="-36.7462728" lon="174.4177658"><ele>135.0</ele><time>2026-03-28T20:03:13.624Z</time></trkpt><trkpt lat="-36.7461979" lon="174.4177978"><ele>135.0</ele><time>2026-03-28T20:03:16.626Z</time></trkpt><trkpt lat="-36.7461257" lon="174.4177523"><ele>135.0</ele><time>2026-03-28T20:03:19.625Z</time></trkpt><trkpt lat="-36.7460863" lon="174.4176807"><ele>135.0</ele><time>2026-03-28T20:03:24.626Z</time></trkpt><trkpt lat="-36.7460431" lon="174.4176195"><ele>135.0</ele><time>2026-03-28T20:03:27.627Z</time></trkpt><trkpt lat="-36.745982" lon="174.4175567"><ele>135.0</ele><time>2026-03-28T20:03:33.624Z</time></trkpt><trkpt lat="-36.7459677" lon="174.4174534"><ele>135.2</ele><time>2026-03-28T20:03:35.626Z</time></trkpt><trkpt lat="-36.745964" lon="174.4173503"><ele>135.4</ele><time>2026-03-28T20:03:37.626Z</time></trkpt><trkpt lat="-36.7459619" lon="174.4172411"><ele>135.6</ele><time>2026-03-28T20:03:39.625Z</time></trkpt><trkpt lat="-36.7459358" lon="174.4171597"><ele>135.8</ele><time>2026-03-28T20:03:41.625Z</time></trkpt><trkpt lat="-36.7458584" lon="174.4171086"><ele>136.0</ele><time>2026-03-28T20:03:42.625Z</time></trkpt><trkpt lat="-36.7457399" lon="174.417057"><ele>136.16666666666669</ele><time>2026-03-28T20:03:44.624Z</time></trkpt><trkpt lat="-36.7456516" lon="174.416998"><ele>136.33333333333334</ele><time>2026-03-28T20:03:45.626Z</time></trkpt><trkpt lat="-36.7455533" lon="174.4169002"><ele>136.5</ele><time>2026-03-28T20:03:47.624Z</time></trkpt><trkpt lat="-36.7454846" lon="174.4168994"><ele>136.66666666666666</ele><time>2026-03-28T20:03:48.626Z</time></trkpt><trkpt lat="-36.7454015" lon="174.4168801"><ele>136.83333333333331</ele><time>2026-03-28T20:03:49.626Z</time></trkpt><trkpt lat="-36.7453484" lon="174.4168372"><ele>137.0</ele><time>2026-03-28T20:03:50.625Z</time></trkpt><trkpt lat="-36.7452594" lon="174.4167848"><ele>136.0</ele><time>2026-03-28T20:03:52.626Z</time></trkpt><trkpt lat="-36.7451334" lon="174.4167354"><ele>135.0</ele><time>2026-03-28T20:03:54.626Z</time></trkpt><trkpt lat="-36.745072" lon="174.4166901"><ele>134.0</ele><time>2026-03-28T20:03:55.625Z</time></trkpt><trkpt lat="-36.7449839" lon="174.4165868"><ele>133.0</ele><time>2026-03-28T20:03:57.625Z</time></trkpt><trkpt lat="-36.7449167" lon="174.4165212"><ele>132.0</ele><time>2026-03-28T20:03:58.626Z</time></trkpt><trkpt lat="-36.7448635" lon="174.4164503"><ele>132.0</ele><time>2026-03-28T20:03:59.625Z</time></trkpt><trkpt lat="-36.7448151" lon="174.4163926"><ele>132.0</ele><time>2026-03-28T20:04:00.626Z</time></trkpt><trkpt lat="-36.7447578" lon="174.4163586"><ele>132.0</ele><time>2026-03-28T20:04:01.625Z</time></trkpt><trkpt lat="-36.7446961" lon="174.4162963"><ele>132.0</ele><time>2026-03-28T20:04:02.626Z</time></trkpt><trkpt lat="-36.7446111" lon="174.4162244"><ele>132.0</ele><time>2026-03-28T20:04:03.625Z</time></trkpt><trkpt lat="-36.7445465" lon="174.4161767"><ele>132.0</ele><time>2026-03-28T20:04:04.625Z</time></trkpt><trkpt lat="-36.7444828" lon="174.4161552"><ele>131.5</ele><time>2026-03-28T20:04:05.625Z</time></trkpt><trkpt lat="-36.7444125" lon="174.4161221"><ele>131.0</ele><time>2026-03-28T20:04:06.626Z</time></trkpt><trkpt lat="-36.7443542" lon="174.4160746"><ele>130.5</ele><time>2026-03-28T20:04:07.627Z</time></trkpt><trkpt lat="-36.7443208" lon="174.4159848"><ele>130.0</ele><time>2026-03-28T20:04:08.626Z</time></trkpt><trkpt lat="-36.7442814" lon="174.4158925"><ele>129.5</ele><time>2026-03-28T20:04:09.625Z</time></trkpt><trkpt lat="-36.7441765" lon="174.4158478"><ele>129.0</ele><time>2026-03-28T20:04:10.626Z</time></trkpt><trkpt lat="-36.7440967" lon="174.4158056"><ele>127.33333333333333</ele><time>2026-03-28T20:04:11.624Z</time></trkpt><trkpt lat="-36.7440129" lon="174.4157528"><ele>125.66666666666666</ele><time>2026-03-28T20:04:12.625Z</time></trkpt><trkpt lat="-36.7439377" lon="174.4157051"><ele>124.0</ele><time>2026-03-28T20:04:13.625Z</time></trkpt><trkpt lat="-36.7438784" lon="174.4156576"><ele>122.33333333333333</ele><time>2026-03-28T20:04:14.625Z</time></trkpt><trkpt lat="-36.7438098" lon="174.4156056"><ele>120.66666666666666</ele><time>2026-03-28T20:04:15.626Z</time></trkpt><trkpt lat="-36.7437244" lon="174.4155533"><ele>119.0</ele><time>2026-03-28T20:04:16.625Z</time></trkpt><trkpt lat="-36.7436657" lon="174.4154944"><ele>119.66666666666666</ele><time>2026-03-28T20:04:17.626Z</time></trkpt><trkpt lat="-36.7436096" lon="174.415399"><ele>120.33333333333333</ele><time>2026-03-28T20:04:19.625Z</time></trkpt><trkpt lat="-36.7435793" lon="174.4153296"><ele>121.0</ele><time>2026-03-28T20:04:22.625Z</time></trkpt><trkpt lat="-36.7435079" lon="174.4152609"><ele>121.66666666666666</ele><time>2026-03-28T20:04:25.626Z</time></trkpt><trkpt lat="-36.7434445" lon="174.415208"><ele>122.33333333333333</ele><time>2026-03-28T20:04:27.625Z</time></trkpt><trkpt lat="-36.743382" lon="174.4151465"><ele>123.0</ele><time>2026-03-28T20:04:29.626Z</time></trkpt><trkpt lat="-36.7433034" lon="174.4150908"><ele>123.60000000000001</ele><time>2026-03-28T20:04:31.626Z</time></trkpt><trkpt lat="-36.7432208" lon="174.4150209"><ele>124.20000000000002</ele><time>2026-03-28T20:04:33.626Z</time></trkpt><trkpt lat="-36.7431298" lon="174.4149622"><ele>124.8</ele><time>2026-03-28T20:04:35.626Z</time></trkpt><trkpt lat="-36.7430564" lon="174.4149026"><ele>125.4</ele><time>2026-03-28T20:04:37.625Z</time></trkpt><trkpt lat="-36.7429759" lon="174.414826"><ele>126.0</ele><time>2026-03-28T20:04:39.625Z</time></trkpt><trkpt lat="-36.742891" lon="174.4147755"><ele>126.0</ele><time>2026-03-28T20:04:41.625Z</time></trkpt><trkpt lat="-36.7428032" lon="174.4147258"><ele>126.0</ele><time>2026-03-28T20:04:43.624Z</time></trkpt><trkpt lat="-36.7427202" lon="174.4146643"><ele>126.0</ele><time>2026-03-28T20:04:45.625Z</time></trkpt><trkpt lat="-36.7426427" lon="174.4145984"><ele>126.0</ele><time>2026-03-28T20:04:47.625Z</time></trkpt><trkpt lat="-36.7425671" lon="174.4145416"><ele>126.0</ele><time>2026-03-28T20:04:49.626Z</time></trkpt><trkpt lat="-36.7424957" lon="174.4144873"><ele>127.66666666666667</ele><time>2026-03-28T20:04:51.625Z</time></trkpt><trkpt lat="-36.7424349" lon="174.4144254"><ele>129.33333333333334</ele><time>2026-03-28T20:04:53.626Z</time></trkpt><trkpt lat="-36.7423509" lon="174.4143855"><ele>131.0</ele><time>2026-03-28T20:04:55.625Z</time></trkpt><trkpt lat="-36.7423075" lon="174.4143051"><ele>132.66666666666669</ele><time>2026-03-28T20:04:58.626Z</time></trkpt><trkpt lat="-36.7423737" lon="174.4142505"><ele>134.33333333333334</ele><time>2026-03-28T20:05:01.625Z</time></trkpt><trkpt lat="-36.7424547" lon="174.4142242"><ele>136.0</ele><time>2026-03-28T20:05:03.626Z</time></trkpt><trkpt lat="-36.7425873" lon="174.4142311"><ele>136.0</ele><time>2026-03-28T20:05:05.626Z</time></trkpt><trkpt lat="-36.7426923" lon="174.4142531"><ele>136.0</ele><time>2026-03-28T20:05:07.624Z</time></trkpt><trkpt lat="-36.7427366" lon="174.4143318"><ele>136.0</ele><time>2026-03-28T20:05:09.624Z</time></trkpt><trkpt lat="-36.7427988" lon="174.414427"><ele>136.0</ele><time>2026-03-28T20:05:11.625Z</time></trkpt><trkpt lat="-36.7428904" lon="174.4144548"><ele>136.0</ele><time>2026-03-28T20:05:13.625Z</time></trkpt><trkpt lat="-36.7430054" lon="174.4144494"><ele>135.33333333333334</ele><time>2026-03-28T20:05:15.626Z</time></trkpt><trkpt lat="-36.7430881" lon="174.4144906"><ele>134.66666666666669</ele><time>2026-03-28T20:05:17.626Z</time></trkpt><trkpt lat="-36.7431057" lon="174.4145806"><ele>134.0</ele><time>2026-03-28T20:05:19.625Z</time></trkpt><trkpt lat="-36.7431607" lon="174.4146957"><ele>133.33333333333334</ele><time>2026-03-28T20:05:21.627Z</time></trkpt><trkpt lat="-36.7432273" lon="174.4147722"><ele>132.66666666666666</ele><time>2026-03-28T20:05:23.627Z</time></trkpt><trkpt lat="-36.7432963" lon="174.4148213"><ele>132.0</ele><time>2026-03-28T20:05:25.626Z</time></trkpt><trkpt lat="-36.7434028" lon="174.4148673"><ele>130.79999999999998</ele><time>2026-03-28T20:05:27.626Z</time></trkpt><trkpt lat="-36.7434987" lon="174.4148698"><ele>129.6</ele><time>2026-03-28T20:05:29.626Z</time></trkpt><trkpt lat="-36.7436031" lon="174.4148906"><ele>128.39999999999998</ele><time>2026-03-28T20:05:31.626Z</time></trkpt><trkpt lat="-36.7436922" lon="174.4148744"><ele>127.19999999999999</ele><time>2026-03-28T20:05:33.625Z</time></trkpt><trkpt lat="-36.7437693" lon="174.4148137"><ele>126.0</ele><time>2026-03-28T20:05:35.625Z</time></trkpt><trkpt lat="-36.7438296" lon="174.414759"><ele>125.5</ele><time>2026-03-28T20:05:37.626Z</time></trkpt><trkpt lat="-36.7439027" lon="174.4147526"><ele>125.0</ele><time>2026-03-28T20:05:39.626Z</time></trkpt><trkpt lat="-36.7439463" lon="174.4148214"><ele>124.5</ele><time>2026-03-28T20:05:41.625Z</time></trkpt><trkpt lat="-36.7440023" lon="174.4148849"><ele>124.0</ele><time>2026-03-28T20:05:43.625Z</time></trkpt><trkpt lat="-36.7440862" lon="174.4149377"><ele>123.5</ele><time>2026-03-28T20:05:45.626Z</time></trkpt><trkpt lat="-36.7441922" lon="174.4149909"><ele>123.0</ele><time>2026-03-28T20:05:47.625Z</time></trkpt><trkpt lat="-36.7442565" lon="174.4149938"><ele>123.0</ele><time>2026-03-28T20:05:48.625Z</time></trkpt><trkpt lat="-36.7443488" lon="174.4150518"><ele>123.00000000000001</ele><time>2026-03-28T20:05:50.626Z</time></trkpt><trkpt lat="-36.7443823" lon="174.4151648"><ele>123.00000000000001</ele><time>2026-03-28T20:05:52.624Z</time></trkpt><trkpt lat="-36.7444283" lon="174.4152626"><ele>123.0</ele><time>2026-03-28T20:05:54.625Z</time></trkpt><trkpt lat="-36.744506" lon="174.4153329"><ele>123.0</ele><time>2026-03-28T20:05:56.627Z</time></trkpt><trkpt lat="-36.7445442" lon="174.4154292"><ele>124.0</ele><time>2026-03-28T20:05:59.626Z</time></trkpt><trkpt lat="-36.744516" lon="174.4155258"><ele>125.0</ele><time>2026-03-28T20:06:02.626Z</time></trkpt><trkpt lat="-36.7444964" lon="174.4156283"><ele>126.0</ele><time>2026-03-28T20:06:05.626Z</time></trkpt><trkpt lat="-36.7445499" lon="174.4156831"><ele>127.0</ele><time>2026-03-28T20:06:08.626Z</time></trkpt><trkpt lat="-36.744616" lon="174.4157064"><ele>128.0</ele><time>2026-03-28T20:06:10.626Z</time></trkpt><trkpt lat="-36.744689" lon="174.4157248"><ele>129.0</ele><time>2026-03-28T20:06:12.626Z</time></trkpt><trkpt lat="-36.7447779" lon="174.4157297"><ele>128.99999999999997</ele><time>2026-03-28T20:06:15.626Z</time></trkpt><trkpt lat="-36.7448248" lon="174.4157869"><ele>129.0</ele><time>2026-03-28T20:06:19.626Z</time></trkpt><trkpt lat="-36.7447929" lon="174.4158763"><ele>129.0</ele><time>2026-03-28T20:06:22.626Z</time></trkpt><trkpt lat="-36.7447408" lon="174.4159292"><ele>129.0</ele><time>2026-03-28T20:06:24.626Z</time></trkpt><trkpt lat="-36.7448013" lon="174.4159854"><ele>129.0</ele><time>2026-03-28T20:06:31.625Z</time></trkpt><trkpt lat="-36.7448576" lon="174.4160357"><ele>128.99999999999997</ele><time>2026-03-28T20:06:34.626Z</time></trkpt><trkpt lat="-36.7449414" lon="174.4160551"><ele>129.0</ele><time>2026-03-28T20:06:37.627Z</time></trkpt><trkpt lat="-36.7449685" lon="174.4161282"><ele>129.0</ele><time>2026-03-28T20:06:40.625Z</time></trkpt><trkpt lat="-36.7450145" lon="174.4160428"><ele>129.0</ele><time>2026-03-28T20:06:44.625Z</time></trkpt><trkpt lat="-36.7450348" lon="174.4159303"><ele>129.0</ele><time>2026-03-28T20:06:46.626Z</time></trkpt><trkpt lat="-36.7450945" lon="174.4158982"><ele>129.0</ele><time>2026-03-28T20:06:49.626Z</time></trkpt><trkpt lat="-36.7451816" lon="174.4159106"><ele>129.0</ele><time>2026-03-28T20:06:52.625Z</time></trkpt><trkpt lat="-36.7452567" lon="174.4159142"><ele>129.0</ele><time>2026-03-28T20:06:55.626Z</time></trkpt><trkpt lat="-36.7452487" lon="174.4160133"><ele>129.0</ele><time>2026-03-28T20:06:59.626Z</time></trkpt><trkpt lat="-36.7452114" lon="174.4160798"><ele>129.0</ele><time>2026-03-28T20:07:02.625Z</time></trkpt><trkpt lat="-36.7452233" lon="174.4161775"><ele>129.0</ele><time>2026-03-28T20:07:06.625Z</time></trkpt><trkpt lat="-36.745285" lon="174.4162331"><ele>129.0</ele><time>2026-03-28T20:07:09.626Z</time></trkpt><trkpt lat="-36.7453528" lon="174.4163002"><ele>129.0</ele><time>2026-03-28T20:07:13.626Z</time></trkpt><trkpt lat="-36.745431" lon="174.4163608"><ele>129.0</ele><time>2026-03-28T20:07:16.626Z</time></trkpt><trkpt lat="-36.7454957" lon="174.4163835"><ele>130.33333333333334</ele><time>2026-03-28T20:07:18.625Z</time></trkpt><trkpt lat="-36.7455679" lon="174.4164112"><ele>131.66666666666666</ele><time>2026-03-28T20:07:21.624Z</time></trkpt><trkpt lat="-36.7456288" lon="174.4164669"><ele>133.0</ele><time>2026-03-28T20:07:24.626Z</time></trkpt><trkpt lat="-36.745673" lon="174.4165403"><ele>134.33333333333331</ele><time>2026-03-28T20:07:27.626Z</time></trkpt><trkpt lat="-36.7457272" lon="174.4164731"><ele>135.66666666666666</ele><time>2026-03-28T20:07:32.625Z</time></trkpt><trkpt lat="-36.7457612" lon="174.416402"><ele>137.0</ele><time>2026-03-28T20:07:36.626Z</time></trkpt><trkpt lat="-36.7457555" lon="174.4162939"><ele>137.16666666666666</ele><time>2026-03-28T20:07:39.625Z</time></trkpt><trkpt lat="-36.7457616" lon="174.4162153"><ele>137.33333333333331</ele><time>2026-03-28T20:07:41.626Z</time></trkpt><trkpt lat="-36.7458152" lon="174.4161343"><ele>137.5</ele><time>2026-03-28T20:07:44.626Z</time></trkpt><trkpt lat="-36.745846" lon="174.4160201"><ele>137.66666666666666</ele><time>2026-03-28T20:07:47.626Z</time></trkpt><trkpt lat="-36.7458497" lon="174.4159361"><ele>137.83333333333334</ele><time>2026-03-28T20:07:49.626Z</time></trkpt><trkpt lat="-36.7458067" lon="174.4158779"><ele>138.0</ele><time>2026-03-28T20:07:51.624Z</time></trkpt><trkpt lat="-36.7457117" lon="174.415913"><ele>138.0</ele><time>2026-03-28T20:07:54.627Z</time></trkpt><trkpt lat="-36.7456753" lon="174.415798"><ele>138.0</ele><time>2026-03-28T20:07:57.626Z</time></trkpt><trkpt lat="-36.7456397" lon="174.4156797"><ele>138.0</ele><time>2026-03-28T20:07:59.625Z</time></trkpt><trkpt lat="-36.7455457" lon="174.4155878"><ele>138.0</ele><time>2026-03-28T20:08:01.625Z</time></trkpt><trkpt lat="-36.7454705" lon="174.4155097"><ele>138.0</ele><time>2026-03-28T20:08:03.626Z</time></trkpt><trkpt lat="-36.7454153" lon="174.4154495"><ele>136.66666666666666</ele><time>2026-03-28T20:08:04.625Z</time></trkpt><trkpt lat="-36.7453868" lon="174.4153051"><ele>135.33333333333334</ele><time>2026-03-28T20:08:06.626Z</time></trkpt><trkpt lat="-36.7453562" lon="174.4152089"><ele>134.0</ele><time>2026-03-28T20:08:07.626Z</time></trkpt><trkpt lat="-36.7453382" lon="174.4151258"><ele>132.66666666666669</ele><time>2026-03-28T20:08:08.626Z</time></trkpt><trkpt lat="-36.7453004" lon="174.4150557"><ele>131.33333333333334</ele><time>2026-03-28T20:08:09.626Z</time></trkpt><trkpt lat="-36.7452268" lon="174.4149977"><ele>130.0</ele><time>2026-03-28T20:08:11.626Z</time></trkpt><trkpt lat="-36.7451311" lon="174.4149886"><ele>129.5</ele><time>2026-03-28T20:08:13.626Z</time></trkpt><trkpt lat="-36.7450494" lon="174.4150438"><ele>129.0</ele><time>2026-03-28T20:08:15.625Z</time></trkpt><trkpt lat="-36.7449886" lon="174.4150652"><ele>128.5</ele><time>2026-03-28T20:08:17.625Z</time></trkpt><trkpt lat="-36.7449198" lon="174.4150758"><ele>128.0</ele><time>2026-03-28T20:08:19.627Z</time></trkpt><trkpt lat="-36.7448476" lon="174.4151216"><ele>127.50000000000001</ele><time>2026-03-28T20:08:21.625Z</time></trkpt><trkpt lat="-36.7447808" lon="174.4151563"><ele>127.0</ele><time>2026-03-28T20:08:23.625Z</time></trkpt><trkpt lat="-36.7446935" lon="174.4151349"><ele>127.00000000000001</ele><time>2026-03-28T20:08:25.625Z</time></trkpt><trkpt lat="-36.7446109" lon="174.4150902"><ele>127.0</ele><time>2026-03-28T20:08:27.626Z</time></trkpt><trkpt lat="-36.7445061" lon="174.415014"><ele>127.0</ele><time>2026-03-28T20:08:29.625Z</time></trkpt><trkpt lat="-36.7444546" lon="174.4149365"><ele>127.0</ele><time>2026-03-28T20:08:31.624Z</time></trkpt><trkpt lat="-36.7444144" lon="174.414856"><ele>127.00000000000001</ele><time>2026-03-28T20:08:33.627Z</time></trkpt><trkpt lat="-36.744344" lon="174.414826"><ele>127.0</ele><time>2026-03-28T20:08:35.626Z</time></trkpt><trkpt lat="-36.7442801" lon="174.4147957"><ele>127.39999999999999</ele><time>2026-03-28T20:08:38.626Z</time></trkpt><trkpt lat="-36.7442056" lon="174.4147164"><ele>127.79999999999998</ele><time>2026-03-28T20:08:43.626Z</time></trkpt><trkpt lat="-36.7441549" lon="174.4146419"><ele>128.2</ele><time>2026-03-28T20:08:45.626Z</time></trkpt><trkpt lat="-36.7441067" lon="174.4145712"><ele>128.6</ele><time>2026-03-28T20:08:47.626Z</time></trkpt><trkpt lat="-36.7440491" lon="174.4144907"><ele>129.0</ele><time>2026-03-28T20:08:49.626Z</time></trkpt><trkpt lat="-36.7440068" lon="174.4143429"><ele>129.0</ele><time>2026-03-28T20:08:51.626Z</time></trkpt><trkpt lat="-36.7439985" lon="174.4142271"><ele>129.0</ele><time>2026-03-28T20:08:54.626Z</time></trkpt><trkpt lat="-36.7439817" lon="174.414115"><ele>129.0</ele><time>2026-03-28T20:08:56.625Z</time></trkpt><trkpt lat="-36.7439575" lon="174.4140108"><ele>129.0</ele><time>2026-03-28T20:08:58.624Z</time></trkpt><trkpt lat="-36.7439292" lon="174.4139249"><ele>129.0</ele><time>2026-03-28T20:09:00.626Z</time></trkpt><trkpt lat="-36.7438234" lon="174.4138611"><ele>129.0</ele><time>2026-03-28T20:09:02.625Z</time></trkpt><trkpt lat="-36.7437593" lon="174.4138374"><ele>129.0</ele><time>2026-03-28T20:09:03.625Z</time></trkpt><trkpt lat="-36.743662" lon="174.4137401"><ele>129.0</ele><time>2026-03-28T20:09:05.626Z</time></trkpt><trkpt lat="-36.7436075" lon="174.4136691"><ele>129.0</ele><time>2026-03-28T20:09:07.625Z</time></trkpt><trkpt lat="-36.7435455" lon="174.4136252"><ele>129.0</ele><time>2026-03-28T20:09:08.626Z</time></trkpt><trkpt lat="-36.7435108" lon="174.4135193"><ele>129.0</ele><time>2026-03-28T20:09:10.626Z</time></trkpt><trkpt lat="-36.7434633" lon="174.4134628"><ele>129.33333333333334</ele><time>2026-03-28T20:09:12.626Z</time></trkpt><trkpt lat="-36.743468" lon="174.4133444"><ele>129.66666666666666</ele><time>2026-03-28T20:09:15.626Z</time></trkpt><trkpt lat="-36.7434724" lon="174.4132313"><ele>130.0</ele><time>2026-03-28T20:09:17.627Z</time></trkpt><trkpt lat="-36.7435159" lon="174.41314"><ele>130.33333333333331</ele><time>2026-03-28T20:09:19.624Z</time></trkpt><trkpt lat="-36.7435273" lon="174.413051"><ele>130.66666666666666</ele><time>2026-03-28T20:09:21.627Z</time></trkpt><trkpt lat="-36.7435985" lon="174.4129623"><ele>131.0</ele><time>2026-03-28T20:09:23.624Z</time></trkpt><trkpt lat="-36.7436802" lon="174.4129239"><ele>130.83333333333331</ele><time>2026-03-28T20:09:25.626Z</time></trkpt><trkpt lat="-36.7437598" lon="174.412951"><ele>130.66666666666666</ele><time>2026-03-28T20:09:27.626Z</time></trkpt><trkpt lat="-36.743801" lon="174.4130193"><ele>130.5</ele><time>2026-03-28T20:09:29.626Z</time></trkpt><trkpt lat="-36.7437578" lon="174.4131048"><ele>130.33333333333334</ele><time>2026-03-28T20:09:32.626Z</time></trkpt><trkpt lat="-36.743709" lon="174.4131748"><ele>130.16666666666669</ele><time>2026-03-28T20:09:34.625Z</time></trkpt><trkpt lat="-36.7436716" lon="174.413262"><ele>130.0</ele><time>2026-03-28T20:09:36.624Z</time></trkpt><trkpt lat="-36.7436655" lon="174.4133465"><ele>130.0</ele><time>2026-03-28T20:09:38.625Z</time></trkpt><trkpt lat="-36.743725" lon="174.4134231"><ele>130.0</ele><time>2026-03-28T20:09:41.626Z</time></trkpt><trkpt lat="-36.7437482" lon="174.4135061"><ele>130.0</ele><time>2026-03-28T20:09:43.625Z</time></trkpt><trkpt lat="-36.7437777" lon="174.4135856"><ele>130.0</ele><time>2026-03-28T20:09:45.626Z</time></trkpt><trkpt lat="-36.7438505" lon="174.4136415"><ele>130.0</ele><time>2026-03-28T20:09:47.626Z</time></trkpt><trkpt lat="-36.7439244" lon="174.4136805"><ele>130.0</ele><time>2026-03-28T20:09:49.625Z</time></trkpt><trkpt lat="-36.7439998" lon="174.4137262"><ele>130.0</ele><time>2026-03-28T20:09:51.626Z</time></trkpt><trkpt lat="-36.7440539" lon="174.4137919"><ele>130.0</ele><time>2026-03-28T20:09:53.625Z</time></trkpt><trkpt lat="-36.7441101" lon="174.4138349"><ele>130.0</ele><time>2026-03-28T20:09:55.627Z</time></trkpt><trkpt lat="-36.7441761" lon="174.4138318"><ele>130.0</ele><time>2026-03-28T20:09:57.625Z</time></trkpt><trkpt lat="-36.7442456" lon="174.413887"><ele>130.0</ele><time>2026-03-28T20:09:59.626Z</time></trkpt><trkpt lat="-36.7442589" lon="174.4139969"><ele>130.0</ele><time>2026-03-28T20:10:02.625Z</time></trkpt><trkpt lat="-36.7442248" lon="174.4140853"><ele>129.83333333333334</ele><time>2026-03-28T20:10:04.626Z</time></trkpt><trkpt lat="-36.7442226" lon="174.4141728"><ele>129.66666666666669</ele><time>2026-03-28T20:10:06.626Z</time></trkpt><trkpt lat="-36.7443069" lon="174.4142309"><ele>129.5</ele><time>2026-03-28T20:10:09.626Z</time></trkpt><trkpt lat="-36.7443712" lon="174.4142403"><ele>129.33333333333334</ele><time>2026-03-28T20:10:11.626Z</time></trkpt><trkpt lat="-36.7444462" lon="174.4142524"><ele>129.16666666666666</ele><time>2026-03-28T20:10:13.625Z</time></trkpt><trkpt lat="-36.7445002" lon="174.4143063"><ele>129.0</ele><time>2026-03-28T20:10:15.626Z</time></trkpt><trkpt lat="-36.7445392" lon="174.4144163"><ele>128.6</ele><time>2026-03-28T20:10:17.626Z</time></trkpt><trkpt lat="-36.7445604" lon="174.414571"><ele>128.2</ele><time>2026-03-28T20:10:19.626Z</time></trkpt><trkpt lat="-36.7445905" lon="174.4146771"><ele>127.79999999999998</ele><time>2026-03-28T20:10:21.625Z</time></trkpt><trkpt lat="-36.7446636" lon="174.4147823"><ele>127.39999999999999</ele><time>2026-03-28T20:10:23.625Z</time></trkpt><trkpt lat="-36.7447212" lon="174.4148776"><ele>127.0</ele><time>2026-03-28T20:10:25.625Z</time></trkpt><trkpt lat="-36.7447915" lon="174.4149434"><ele>127.0</ele><time>2026-03-28T20:10:27.626Z</time></trkpt><trkpt lat="-36.7448611" lon="174.4149441"><ele>127.0</ele><time>2026-03-28T20:10:29.626Z</time></trkpt><trkpt lat="-36.7449141" lon="174.4148846"><ele>127.0</ele><time>2026-03-28T20:10:31.626Z</time></trkpt><trkpt lat="-36.7449702" lon="174.4148246"><ele>127.0</ele><time>2026-03-28T20:10:33.626Z</time></trkpt><trkpt lat="-36.7450324" lon="174.4147794"><ele>127.0</ele><time>2026-03-28T20:10:35.626Z</time></trkpt><trkpt lat="-36.7450966" lon="174.4147774"><ele>127.0</ele><time>2026-03-28T20:10:37.625Z</time></trkpt><trkpt lat="-36.7451762" lon="174.4147924"><ele>127.0</ele><time>2026-03-28T20:10:39.625Z</time></trkpt><trkpt lat="-36.7452696" lon="174.4147688"><ele>127.50000000000001</ele><time>2026-03-28T20:10:41.625Z</time></trkpt><trkpt lat="-36.7453519" lon="174.4147775"><ele>128.0</ele><time>2026-03-28T20:10:43.625Z</time></trkpt><trkpt lat="-36.7454343" lon="174.4148009"><ele>128.5</ele><time>2026-03-28T20:10:45.624Z</time></trkpt><trkpt lat="-36.7455042" lon="174.4147806"><ele>129.0</ele><time>2026-03-28T20:10:47.626Z</time></trkpt><trkpt lat="-36.7455766" lon="174.4147516"><ele>129.5</ele><time>2026-03-28T20:10:51.625Z</time></trkpt><trkpt lat="-36.7456176" lon="174.4148262"><ele>130.0</ele><time>2026-03-28T20:10:54.625Z</time></trkpt><trkpt lat="-36.7456158" lon="174.4149371"><ele>130.0</ele><time>2026-03-28T20:10:57.626Z</time></trkpt><trkpt lat="-36.7456029" lon="174.4150246"><ele>130.0</ele><time>2026-03-28T20:10:59.625Z</time></trkpt><trkpt lat="-36.7456628" lon="174.415093"><ele>130.0</ele><time>2026-03-28T20:11:02.626Z</time></trkpt><trkpt lat="-36.7457412" lon="174.4150854"><ele>130.0</ele><time>2026-03-28T20:11:04.626Z</time></trkpt><trkpt lat="-36.7458108" lon="174.415096"><ele>130.0</ele><time>2026-03-28T20:11:06.626Z</time></trkpt><trkpt lat="-36.7457988" lon="174.415199"><ele>130.0</ele><time>2026-03-28T20:11:09.626Z</time></trkpt><trkpt lat="-36.7457796" lon="174.415283"><ele>130.00000000000003</ele><time>2026-03-28T20:11:11.625Z</time></trkpt><trkpt lat="-36.7458191" lon="174.4153514"><ele>130.0</ele><time>2026-03-28T20:11:14.625Z</time></trkpt><trkpt lat="-36.7458839" lon="174.4153944"><ele>130.0</ele><time>2026-03-28T20:11:17.625Z</time></trkpt><trkpt lat="-36.745854" lon="174.4155028"><ele>130.0</ele><time>2026-03-28T20:11:20.626Z</time></trkpt><trkpt lat="-36.745813" lon="174.4155767"><ele>130.0</ele><time>2026-03-28T20:11:22.626Z</time></trkpt><trkpt lat="-36.7457655" lon="174.4156475"><ele>130.00000000000003</ele><time>2026-03-28T20:11:24.626Z</time></trkpt><trkpt lat="-36.7458343" lon="174.4156606"><ele>130.0</ele><time>2026-03-28T20:11:31.625Z</time></trkpt><trkpt lat="-36.7458729" lon="174.4157287"><ele>131.33333333333334</ele><time>2026-03-28T20:11:36.626Z</time></trkpt><trkpt lat="-36.7459388" lon="174.4157239"><ele>132.66666666666669</ele><time>2026-03-28T20:11:39.625Z</time></trkpt><trkpt lat="-36.7460146" lon="174.4157346"><ele>134.0</ele><time>2026-03-28T20:11:42.626Z</time></trkpt><trkpt lat="-36.7460808" lon="174.41572"><ele>135.33333333333334</ele><time>2026-03-28T20:11:45.625Z</time></trkpt><trkpt lat="-36.7460561" lon="174.4156236"><ele>136.66666666666666</ele><time>2026-03-28T20:11:48.626Z</time></trkpt><trkpt lat="-36.7460593" lon="174.4154749"><ele>138.0</ele><time>2026-03-28T20:11:50.626Z</time></trkpt><trkpt lat="-36.7460656" lon="174.4153906"><ele>138.5</ele><time>2026-03-28T20:11:51.624Z</time></trkpt><trkpt lat="-36.7460856" lon="174.4153026"><ele>139.0</ele><time>2026-03-28T20:11:52.626Z</time></trkpt><trkpt lat="-36.7461299" lon="174.4152086"><ele>139.5</ele><time>2026-03-28T20:11:53.627Z</time></trkpt><trkpt lat="-36.7461844" lon="174.4151232"><ele>140.0</ele><time>2026-03-28T20:11:55.638Z</time></trkpt><trkpt lat="-36.7462806" lon="174.4150839"><ele>140.5</ele><time>2026-03-28T20:11:57.627Z</time></trkpt><trkpt lat="-36.7463141" lon="174.4149707"><ele>141.0</ele><time>2026-03-28T20:11:59.626Z</time></trkpt><trkpt lat="-36.7462772" lon="174.4148498"><ele>141.0</ele><time>2026-03-28T20:12:01.625Z</time></trkpt><trkpt lat="-36.7462687" lon="174.4146959"><ele>141.0</ele><time>2026-03-28T20:12:03.625Z</time></trkpt><trkpt lat="-36.7463114" lon="174.4146032"><ele>141.0</ele><time>2026-03-28T20:12:04.626Z</time></trkpt><trkpt lat="-36.7463571" lon="174.4145224"><ele>141.0</ele><time>2026-03-28T20:12:05.627Z</time></trkpt><trkpt lat="-36.746414" lon="174.4144765"><ele>141.0</ele><time>2026-03-28T20:12:06.625Z</time></trkpt><trkpt lat="-36.7464422" lon="174.414387"><ele>141.0</ele><time>2026-03-28T20:12:08.626Z</time></trkpt><trkpt lat="-36.7464005" lon="174.414301"><ele>140.6</ele><time>2026-03-28T20:12:10.626Z</time></trkpt><trkpt lat="-36.7463336" lon="174.4142408"><ele>140.2</ele><time>2026-03-28T20:12:12.626Z</time></trkpt><trkpt lat="-36.7462091" lon="174.4141155"><ele>139.8</ele><time>2026-03-28T20:12:14.626Z</time></trkpt><trkpt lat="-36.7461557" lon="174.4140171"><ele>139.4</ele><time>2026-03-28T20:12:15.626Z</time></trkpt><trkpt lat="-36.7461115" lon="174.4139262"><ele>139.0</ele><time>2026-03-28T20:12:17.626Z</time></trkpt><trkpt lat="-36.7460524" lon="174.4138793"><ele>137.16666666666669</ele><time>2026-03-28T20:12:20.626Z</time></trkpt><trkpt lat="-36.7460099" lon="174.413941"><ele>135.33333333333334</ele><time>2026-03-28T20:12:24.626Z</time></trkpt><trkpt lat="-36.7459744" lon="174.4140539"><ele>133.5</ele><time>2026-03-28T20:12:27.626Z</time></trkpt><trkpt lat="-36.7459184" lon="174.4141103"><ele>131.66666666666666</ele><time>2026-03-28T20:12:29.625Z</time></trkpt><trkpt lat="-36.7458288" lon="174.4141184"><ele>129.83333333333331</ele><time>2026-03-28T20:12:32.626Z</time></trkpt><trkpt lat="-36.7457435" lon="174.4141093"><ele>128.0</ele><time>2026-03-28T20:12:34.624Z</time></trkpt><trkpt lat="-36.7456323" lon="174.4141595"><ele>128.0</ele><time>2026-03-28T20:12:36.624Z</time></trkpt><trkpt lat="-36.745568" lon="174.4142623"><ele>128.0</ele><time>2026-03-28T20:12:38.626Z</time></trkpt><trkpt lat="-36.7454745" lon="174.4143219"><ele>128.0</ele><time>2026-03-28T20:12:40.625Z</time></trkpt><trkpt lat="-36.7453744" lon="174.4143172"><ele>128.0</ele><time>2026-03-28T20:12:42.624Z</time></trkpt><trkpt lat="-36.7452748" lon="174.4143034"><ele>128.0</ele><time>2026-03-28T20:12:44.625Z</time></trkpt><trkpt lat="-36.7451912" lon="174.4143391"><ele>127.49999999999999</ele><time>2026-03-28T20:12:46.626Z</time></trkpt><trkpt lat="-36.7451016" lon="174.4143491"><ele>127.0</ele><time>2026-03-28T20:12:48.625Z</time></trkpt><trkpt lat="-36.7450321" lon="174.4143388"><ele>126.5</ele><time>2026-03-28T20:12:50.626Z</time></trkpt><trkpt lat="-36.7449694" lon="174.4142418"><ele>126.0</ele><time>2026-03-28T20:12:53.625Z</time></trkpt><trkpt lat="-36.7449358" lon="174.4141443"><ele>125.49999999999999</ele><time>2026-03-28T20:12:55.626Z</time></trkpt><trkpt lat="-36.7449235" lon="174.414056"><ele>125.0</ele><time>2026-03-28T20:12:57.626Z</time></trkpt><trkpt lat="-36.7448657" lon="174.4139871"><ele>125.0</ele><time>2026-03-28T20:13:00.625Z</time></trkpt><trkpt lat="-36.7447867" lon="174.4139556"><ele>125.0</ele><time>2026-03-28T20:13:03.625Z</time></trkpt><trkpt lat="-36.7447046" lon="174.4138987"><ele>125.0</ele><time>2026-03-28T20:13:05.626Z</time></trkpt><trkpt lat="-36.7446278" lon="174.4138355"><ele>125.0</ele><time>2026-03-28T20:13:07.626Z</time></trkpt><trkpt lat="-36.7445321" lon="174.4137906"><ele>125.0</ele><time>2026-03-28T20:13:09.625Z</time></trkpt><trkpt lat="-36.7444509" lon="174.4137663"><ele>125.33333333333333</ele><time>2026-03-28T20:13:11.626Z</time></trkpt><trkpt lat="-36.7443955" lon="174.4137111"><ele>125.66666666666666</ele><time>2026-03-28T20:13:13.626Z</time></trkpt><trkpt lat="-36.7443863" lon="174.4136044"><ele>126.0</ele><time>2026-03-28T20:13:16.625Z</time></trkpt><trkpt lat="-36.7443806" lon="174.4135095"><ele>126.33333333333334</ele><time>2026-03-28T20:13:18.626Z</time></trkpt><trkpt lat="-36.7443192" lon="174.413465"><ele>126.66666666666667</ele><time>2026-03-28T20:13:20.626Z</time></trkpt><trkpt lat="-36.7442464" lon="174.4134723"><ele>127.0</ele><time>2026-03-28T20:13:22.625Z</time></trkpt><trkpt lat="-36.7441769" lon="174.4134332"><ele>127.6</ele><time>2026-03-28T20:13:24.626Z</time></trkpt><trkpt lat="-36.7440953" lon="174.4133635"><ele>128.2</ele><time>2026-03-28T20:13:26.626Z</time></trkpt><trkpt lat="-36.7440109" lon="174.4133129"><ele>128.8</ele><time>2026-03-28T20:13:28.625Z</time></trkpt><trkpt lat="-36.7439201" lon="174.4132728"><ele>129.4</ele><time>2026-03-28T20:13:30.625Z</time></trkpt><trkpt lat="-36.7438785" lon="174.413207"><ele>130.0</ele><time>2026-03-28T20:13:32.625Z</time></trkpt><trkpt lat="-36.7438797" lon="174.4130823"><ele>129.5</ele><time>2026-03-28T20:13:34.626Z</time></trkpt><trkpt lat="-36.7438955" lon="174.4129822"><ele>129.0</ele><time>2026-03-28T20:13:36.626Z</time></trkpt><trkpt lat="-36.7439183" lon="174.4128721"><ele>128.5</ele><time>2026-03-28T20:13:38.626Z</time></trkpt><trkpt lat="-36.743954" lon="174.4127868"><ele>128.0</ele><time>2026-03-28T20:13:40.625Z</time></trkpt><trkpt lat="-36.7439851" lon="174.4126989"><ele>127.50000000000001</ele><time>2026-03-28T20:13:42.624Z</time></trkpt><trkpt lat="-36.7439807" lon="174.4126009"><ele>127.0</ele><time>2026-03-28T20:13:44.625Z</time></trkpt><trkpt lat="-36.7439541" lon="174.4125205"><ele>127.00000000000001</ele><time>2026-03-28T20:13:46.625Z</time></trkpt><trkpt lat="-36.7439123" lon="174.4124292"><ele>127.0</ele><time>2026-03-28T20:13:48.626Z</time></trkpt><trkpt lat="-36.7438542" lon="174.4123603"><ele>127.0</ele><time>2026-03-28T20:13:50.627Z</time></trkpt><trkpt lat="-36.7438191" lon="174.4122801"><ele>127.0</ele><time>2026-03-28T20:13:52.626Z</time></trkpt><trkpt lat="-36.7438149" lon="174.4121704"><ele>127.00000000000001</ele><time>2026-03-28T20:13:55.626Z</time></trkpt><trkpt lat="-36.7437951" lon="174.4120811"><ele>127.0</ele><time>2026-03-28T20:13:58.625Z</time></trkpt><trkpt lat="-36.7438542" lon="174.41203"><ele>127.0</ele><time>2026-03-28T20:13:59.626Z</time></trkpt><trkpt lat="-36.7439643" lon="174.4120502"><ele>126.99999999999999</ele><time>2026-03-28T20:14:01.626Z</time></trkpt><trkpt lat="-36.7440396" lon="174.412115"><ele>126.99999999999999</ele><time>2026-03-28T20:14:03.626Z</time></trkpt><trkpt lat="-36.7441036" lon="174.4121783"><ele>127.0</ele><time>2026-03-28T20:14:05.626Z</time></trkpt><trkpt lat="-36.7441488" lon="174.4122623"><ele>127.0</ele><time>2026-03-28T20:14:07.625Z</time></trkpt><trkpt lat="-36.7443962" lon="174.412532"><ele>127.0</ele><time>2026-03-28T20:14:08.626Z</time></trkpt><trkpt lat="-36.7443454" lon="174.4126479"><ele>126.99999999999999</ele><time>2026-03-28T20:14:10.625Z</time></trkpt><trkpt lat="-36.7442951" lon="174.4127188"><ele>126.99999999999999</ele><time>2026-03-28T20:14:12.626Z</time></trkpt><trkpt lat="-36.7442756" lon="174.4128432"><ele>127.0</ele><time>2026-03-28T20:14:14.625Z</time></trkpt><trkpt lat="-36.7442615" lon="174.4129699"><ele>127.0</ele><time>2026-03-28T20:14:16.626Z</time></trkpt><trkpt lat="-36.744236" lon="174.4130679"><ele>127.00000000000001</ele><time>2026-03-28T20:14:18.626Z</time></trkpt><trkpt lat="-36.744196" lon="174.4131776"><ele>127.0</ele><time>2026-03-28T20:14:20.625Z</time></trkpt><trkpt lat="-36.7442588" lon="174.4132683"><ele>127.0</ele><time>2026-03-28T20:14:22.626Z</time></trkpt><trkpt lat="-36.7443154" lon="174.413333"><ele>127.0</ele><time>2026-03-28T20:14:24.626Z</time></trkpt><trkpt lat="-36.7443882" lon="174.4133378"><ele>127.00000000000001</ele><time>2026-03-28T20:14:27.626Z</time></trkpt><trkpt lat="-36.7444575" lon="174.4133299"><ele>127.0</ele><time>2026-03-28T20:14:30.625Z</time></trkpt><trkpt lat="-36.7445226" lon="174.4133522"><ele>127.00000000000001</ele><time>2026-03-28T20:14:32.625Z</time></trkpt><trkpt lat="-36.7446026" lon="174.4133705"><ele>127.0</ele><time>2026-03-28T20:14:34.626Z</time></trkpt><trkpt lat="-36.7446588" lon="174.4132976"><ele>127.0</ele><time>2026-03-28T20:14:37.626Z</time></trkpt><trkpt lat="-36.7447318" lon="174.4132275"><ele>127.0</ele><time>2026-03-28T20:14:39.626Z</time></trkpt><trkpt lat="-36.7447736" lon="174.4131672"><ele>127.00000000000001</ele><time>2026-03-28T20:14:41.626Z</time></trkpt><trkpt lat="-36.7448274" lon="174.4130992"><ele>127.0</ele><time>2026-03-28T20:14:43.627Z</time></trkpt><trkpt lat="-36.7448883" lon="174.4130785"><ele>127.00000000000001</ele><time>2026-03-28T20:14:45.626Z</time></trkpt><trkpt lat="-36.7449539" lon="174.4130055"><ele>127.0</ele><time>2026-03-28T20:14:48.626Z</time></trkpt><trkpt lat="-36.7450053" lon="174.4129397"><ele>127.0</ele><time>2026-03-28T20:14:50.625Z</time></trkpt><trkpt lat="-36.7450695" lon="174.4129172"><ele>127.0</ele><time>2026-03-28T20:14:52.626Z</time></trkpt><trkpt lat="-36.7451316" lon="174.4128939"><ele>127.00000000000001</ele><time>2026-03-28T20:14:53.627Z</time></trkpt><trkpt lat="-36.7452295" lon="174.4128705"><ele>127.0</ele><time>2026-03-28T20:14:55.626Z</time></trkpt><trkpt lat="-36.7453372" lon="174.4128468"><ele>126.8</ele><time>2026-03-28T20:14:57.626Z</time></trkpt><trkpt lat="-36.7454473" lon="174.4128479"><ele>126.6</ele><time>2026-03-28T20:14:59.625Z</time></trkpt><trkpt lat="-36.7455175" lon="174.4128843"><ele>126.39999999999999</ele><time>2026-03-28T20:15:00.626Z</time></trkpt><trkpt lat="-36.7455927" lon="174.4129644"><ele>126.19999999999999</ele><time>2026-03-28T20:15:02.626Z</time></trkpt><trkpt lat="-36.7455924" lon="174.4130778"><ele>126.0</ele><time>2026-03-28T20:15:04.626Z</time></trkpt><trkpt lat="-36.7455677" lon="174.4131647"><ele>126.42857142857143</ele><time>2026-03-28T20:15:06.625Z</time></trkpt><trkpt lat="-36.7456122" lon="174.4132252"><ele>126.85714285714286</ele><time>2026-03-28T20:15:09.625Z</time></trkpt><trkpt lat="-36.7456879" lon="174.4132383"><ele>127.28571428571428</ele><time>2026-03-28T20:15:11.626Z</time></trkpt><trkpt lat="-36.7457569" lon="174.413219"><ele>127.71428571428571</ele><time>2026-03-28T20:15:13.626Z</time></trkpt><trkpt lat="-36.7458365" lon="174.4132168"><ele>128.14285714285714</ele><time>2026-03-28T20:15:15.626Z</time></trkpt><trkpt lat="-36.7459037" lon="174.4132439"><ele>128.57142857142856</ele><time>2026-03-28T20:15:17.626Z</time></trkpt><trkpt lat="-36.745953" lon="174.4133012"><ele>129.0</ele><time>2026-03-28T20:15:19.626Z</time></trkpt><trkpt lat="-36.746025" lon="174.4133569"><ele>129.0</ele><time>2026-03-28T20:15:22.626Z</time></trkpt><trkpt lat="-36.7460941" lon="174.4133427"><ele>129.0</ele><time>2026-03-28T20:15:25.626Z</time></trkpt><trkpt lat="-36.7461412" lon="174.4132464"><ele>129.0</ele><time>2026-03-28T20:15:27.625Z</time></trkpt><trkpt lat="-36.7461694" lon="174.4131542"><ele>129.0</ele><time>2026-03-28T20:15:29.626Z</time></trkpt><trkpt lat="-36.7462181" lon="174.4130457"><ele>129.0</ele><time>2026-03-28T20:15:31.626Z</time></trkpt><trkpt lat="-36.7462428" lon="174.4129603"><ele>129.0</ele><time>2026-03-28T20:15:33.626Z</time></trkpt><trkpt lat="-36.746272" lon="174.4128731"><ele>129.0</ele><time>2026-03-28T20:15:35.626Z</time></trkpt><trkpt lat="-36.7463448" lon="174.4128126"><ele>129.0</ele><time>2026-03-28T20:15:38.626Z</time></trkpt><trkpt lat="-36.7464312" lon="174.4128312"><ele>129.0</ele><time>2026-03-28T20:15:40.625Z</time></trkpt><trkpt lat="-36.7464911" lon="174.4128794"><ele>129.0</ele><time>2026-03-28T20:15:42.626Z</time></trkpt><trkpt lat="-36.7465188" lon="174.4129848"><ele>129.0</ele><time>2026-03-28T20:15:44.625Z</time></trkpt><trkpt lat="-36.7465448" lon="174.4130777"><ele>129.0</ele><time>2026-03-28T20:15:46.625Z</time></trkpt><trkpt lat="-36.7465576" lon="174.4131768"><ele>129.5</ele><time>2026-03-28T20:15:48.627Z</time></trkpt><trkpt lat="-36.7465805" lon="174.4132614"><ele>130.0</ele><time>2026-03-28T20:15:50.625Z</time></trkpt><trkpt lat="-36.7465671" lon="174.4133567"><ele>130.5</ele><time>2026-03-28T20:15:53.626Z</time></trkpt><trkpt lat="-36.7465563" lon="174.4134444"><ele>131.0</ele><time>2026-03-28T20:15:55.626Z</time></trkpt><trkpt lat="-36.7465415" lon="174.4135506"><ele>131.5</ele><time>2026-03-28T20:15:58.625Z</time></trkpt><trkpt lat="-36.7466025" lon="174.4135892"><ele>132.0</ele><time>2026-03-28T20:16:02.626Z</time></trkpt><trkpt lat="-36.7466606" lon="174.4135218"><ele>132.0</ele><time>2026-03-28T20:16:05.625Z</time></trkpt><trkpt lat="-36.7467037" lon="174.4134402"><ele>132.0</ele><time>2026-03-28T20:16:08.627Z</time></trkpt><trkpt lat="-36.746739" lon="174.4133601"><ele>132.0</ele><time>2026-03-28T20:16:11.624Z</time></trkpt><trkpt lat="-36.7467867" lon="174.4132694"><ele>132.0</ele><time>2026-03-28T20:16:14.626Z</time></trkpt><trkpt lat="-36.7468277" lon="174.413206"><ele>132.0</ele><time>2026-03-28T20:16:17.627Z</time></trkpt><trkpt lat="-36.7468836" lon="174.4132444"><ele>132.0</ele><time>2026-03-28T20:16:21.625Z</time></trkpt><trkpt lat="-36.7469084" lon="174.4133387"><ele>132.0</ele><time>2026-03-28T20:16:24.625Z</time></trkpt><trkpt lat="-36.7469142" lon="174.4134495"><ele>134.33333333333334</ele><time>2026-03-28T20:16:27.626Z</time></trkpt><trkpt lat="-36.7469417" lon="174.4135297"><ele>136.66666666666666</ele><time>2026-03-28T20:16:29.626Z</time></trkpt><trkpt lat="-36.7469874" lon="174.4136063"><ele>139.0</ele><time>2026-03-28T20:16:32.626Z</time></trkpt><trkpt lat="-36.747053" lon="174.4135962"><ele>141.33333333333331</ele><time>2026-03-28T20:16:35.626Z</time></trkpt><trkpt lat="-36.7470679" lon="174.413509"><ele>143.66666666666666</ele><time>2026-03-28T20:16:38.627Z</time></trkpt><trkpt lat="-36.7470532" lon="174.4133816"><ele>146.0</ele><time>2026-03-28T20:16:41.626Z</time></trkpt><trkpt lat="-36.7469839" lon="174.4132553"><ele>146.0</ele><time>2026-03-28T20:16:43.625Z</time></trkpt><trkpt lat="-36.7469182" lon="174.413117"><ele>146.0</ele><time>2026-03-28T20:16:45.626Z</time></trkpt><trkpt lat="-36.746841" lon="174.4129437"><ele>146.0</ele><time>2026-03-28T20:16:47.626Z</time></trkpt><trkpt lat="-36.7468079" lon="174.4128645"><ele>146.0</ele><time>2026-03-28T20:16:48.627Z</time></trkpt><trkpt lat="-36.7467636" lon="174.4127958"><ele>146.0</ele><time>2026-03-28T20:16:49.626Z</time></trkpt><trkpt lat="-36.7467421" lon="174.4127124"><ele>142.6</ele><time>2026-03-28T20:16:50.626Z</time></trkpt><trkpt lat="-36.7467089" lon="174.4126392"><ele>139.2</ele><time>2026-03-28T20:16:51.626Z</time></trkpt><trkpt lat="-36.7466638" lon="174.4125637"><ele>135.8</ele><time>2026-03-28T20:16:52.626Z</time></trkpt><trkpt lat="-36.7465779" lon="174.4124591"><ele>132.4</ele><time>2026-03-28T20:16:54.627Z</time></trkpt><trkpt lat="-36.7464893" lon="174.4123809"><ele>129.0</ele><time>2026-03-28T20:16:56.626Z</time></trkpt><trkpt lat="-36.7463993" lon="174.4123625"><ele>129.0</ele><time>2026-03-28T20:16:57.627Z</time></trkpt><trkpt lat="-36.746327" lon="174.412326"><ele>129.0</ele><time>2026-03-28T20:16:58.627Z</time></trkpt><trkpt lat="-36.7462662" lon="174.4122927"><ele>129.0</ele><time>2026-03-28T20:16:59.626Z</time></trkpt><trkpt lat="-36.7461721" lon="174.4122191"><ele>129.0</ele><time>2026-03-28T20:17:01.624Z</time></trkpt><trkpt lat="-36.7461041" lon="174.4121667"><ele>129.0</ele><time>2026-03-28T20:17:03.626Z</time></trkpt><trkpt lat="-36.7460608" lon="174.4120972"><ele>129.0</ele><time>2026-03-28T20:17:05.625Z</time></trkpt><trkpt lat="-36.7460089" lon="174.4120372"><ele>128.7142857142857</ele><time>2026-03-28T20:17:08.626Z</time></trkpt><trkpt lat="-36.7459427" lon="174.4120161"><ele>128.42857142857142</ele><time>2026-03-28T20:17:11.627Z</time></trkpt><trkpt lat="-36.745851" lon="174.4120546"><ele>128.14285714285714</ele><time>2026-03-28T20:17:14.625Z</time></trkpt><trkpt lat="-36.7457789" lon="174.4120776"><ele>127.85714285714285</ele><time>2026-03-28T20:17:17.626Z</time></trkpt><trkpt lat="-36.7457363" lon="174.4120196"><ele>127.57142857142856</ele><time>2026-03-28T20:17:20.626Z</time></trkpt><trkpt lat="-36.7457579" lon="174.4119251"><ele>127.28571428571429</ele><time>2026-03-28T20:17:23.625Z</time></trkpt><trkpt lat="-36.745724" lon="174.4118589"><ele>127.0</ele><time>2026-03-28T20:17:26.626Z</time></trkpt><trkpt lat="-36.7456532" lon="174.4118804"><ele>127.00000000000001</ele><time>2026-03-28T20:17:28.625Z</time></trkpt><trkpt lat="-36.745587" lon="174.4119498"><ele>127.0</ele><time>2026-03-28T20:17:31.626Z</time></trkpt><trkpt lat="-36.745542" lon="174.4120694"><ele>127.0</ele><time>2026-03-28T20:17:33.626Z</time></trkpt><trkpt lat="-36.7455" lon="174.4121597"><ele>127.0</ele><time>2026-03-28T20:17:34.626Z</time></trkpt><trkpt lat="-36.7454153" lon="174.4122287"><ele>127.00000000000001</ele><time>2026-03-28T20:17:36.626Z</time></trkpt><trkpt lat="-36.7453485" lon="174.4122217"><ele>127.0</ele><time>2026-03-28T20:17:37.626Z</time></trkpt><trkpt lat="-36.7452327" lon="174.4121719"><ele>126.50000000000001</ele><time>2026-03-28T20:17:39.624Z</time></trkpt><trkpt lat="-36.7451709" lon="174.4121342"><ele>126.0</ele><time>2026-03-28T20:17:40.626Z</time></trkpt><trkpt lat="-36.7451019" lon="174.4121206"><ele>125.5</ele><time>2026-03-28T20:17:41.625Z</time></trkpt><trkpt lat="-36.745001" lon="174.4121181"><ele>125.0</ele><time>2026-03-28T20:17:42.625Z</time></trkpt><trkpt lat="-36.7449243" lon="174.4121022"><ele>124.50000000000001</ele><time>2026-03-28T20:17:43.627Z</time></trkpt><trkpt lat="-36.744819" lon="174.4120592"><ele>124.0</ele><time>2026-03-28T20:17:45.624Z</time></trkpt><trkpt lat="-36.7447797" lon="174.4119896"><ele>124.00000000000001</ele><time>2026-03-28T20:17:46.625Z</time></trkpt><trkpt lat="-36.7447426" lon="174.4118732"><ele>124.0</ele><time>2026-03-28T20:17:48.626Z</time></trkpt><trkpt lat="-36.7447495" lon="174.4117676"><ele>124.0</ele><time>2026-03-28T20:17:50.626Z</time></trkpt><trkpt lat="-36.7448196" lon="174.4116882"><ele>124.0</ele><time>2026-03-28T20:17:52.625Z</time></trkpt><trkpt lat="-36.744873" lon="174.4116272"><ele>124.00000000000001</ele><time>2026-03-28T20:17:54.625Z</time></trkpt><trkpt lat="-36.7449332" lon="174.4115424"><ele>124.0</ele><time>2026-03-28T20:17:56.627Z</time></trkpt><trkpt lat="-36.744949" lon="174.4114364"><ele>124.00000000000001</ele><time>2026-03-28T20:17:58.627Z</time></trkpt><trkpt lat="-36.744936" lon="174.4113378"><ele>124.0</ele><time>2026-03-28T20:18:00.626Z</time></trkpt><trkpt lat="-36.7449298" lon="174.4112383"><ele>124.0</ele><time>2026-03-28T20:18:02.626Z</time></trkpt><trkpt lat="-36.7449113" lon="174.4111069"><ele>124.0</ele><time>2026-03-28T20:18:04.626Z</time></trkpt><trkpt lat="-36.7448643" lon="174.4110218"><ele>124.00000000000001</ele><time>2026-03-28T20:18:06.626Z</time></trkpt><trkpt lat="-36.7447945" lon="174.4109599"><ele>124.0</ele><time>2026-03-28T20:18:08.625Z</time></trkpt><trkpt lat="-36.7447143" lon="174.4110014"><ele>124.00000000000001</ele><time>2026-03-28T20:18:10.626Z</time></trkpt><trkpt lat="-36.744645" lon="174.4110158"><ele>124.0</ele><time>2026-03-28T20:18:12.626Z</time></trkpt><trkpt lat="-36.7445758" lon="174.4110643"><ele>124.0</ele><time>2026-03-28T20:18:14.627Z</time></trkpt><trkpt lat="-36.7445166" lon="174.4111434"><ele>124.0</ele><time>2026-03-28T20:18:17.626Z</time></trkpt><trkpt lat="-36.7445652" lon="174.4112214"><ele>124.00000000000001</ele><time>2026-03-28T20:18:23.626Z</time></trkpt><trkpt lat="-36.7445265" lon="174.4113282"><ele>124.0</ele><time>2026-03-28T20:18:26.626Z</time></trkpt><trkpt lat="-36.7444893" lon="174.4113983"><ele>124.0</ele><time>2026-03-28T20:18:28.626Z</time></trkpt><trkpt lat="-36.7444545" lon="174.4114707"><ele>124.00000000000001</ele><time>2026-03-28T20:18:30.625Z</time></trkpt><trkpt lat="-36.7444105" lon="174.41153"><ele>124.0</ele><time>2026-03-28T20:18:32.626Z</time></trkpt><trkpt lat="-36.7443819" lon="174.4116006"><ele>124.0</ele><time>2026-03-28T20:18:34.625Z</time></trkpt><trkpt lat="-36.7443353" lon="174.4116817"><ele>124.00000000000001</ele><time>2026-03-28T20:18:36.625Z</time></trkpt><trkpt lat="-36.7442592" lon="174.4117177"><ele>124.0</ele><time>2026-03-28T20:18:38.626Z</time></trkpt><trkpt lat="-36.7442187" lon="174.4117843"><ele>124.0</ele><time>2026-03-28T20:18:40.626Z</time></trkpt><trkpt lat="-36.7441612" lon="174.4118688"><ele>124.33333333333334</ele><time>2026-03-28T20:18:43.626Z</time></trkpt><trkpt lat="-36.744098" lon="174.4119164"><ele>124.66666666666667</ele><time>2026-03-28T20:18:45.626Z</time></trkpt><trkpt lat="-36.7440317" lon="174.4119319"><ele>125.0</ele><time>2026-03-28T20:18:47.626Z</time></trkpt><trkpt lat="-36.7439476" lon="174.4119574"><ele>125.33333333333334</ele><time>2026-03-28T20:18:49.624Z</time></trkpt><trkpt lat="-36.7438634" lon="174.4119892"><ele>125.66666666666667</ele><time>2026-03-28T20:18:51.626Z</time></trkpt><trkpt lat="-36.7437906" lon="174.4120327"><ele>126.0</ele><time>2026-03-28T20:18:53.626Z</time></trkpt><trkpt lat="-36.7437521" lon="174.4121156"><ele>126.16666666666667</ele><time>2026-03-28T20:18:55.625Z</time></trkpt><trkpt lat="-36.7437629" lon="174.4122195"><ele>126.33333333333334</ele><time>2026-03-28T20:18:57.626Z</time></trkpt><trkpt lat="-36.7437348" lon="174.4123079"><ele>126.5</ele><time>2026-03-28T20:19:00.625Z</time></trkpt><trkpt lat="-36.743667" lon="174.4123563"><ele>126.66666666666667</ele><time>2026-03-28T20:19:02.626Z</time></trkpt><trkpt lat="-36.7435653" lon="174.4124251"><ele>126.83333333333334</ele><time>2026-03-28T20:19:04.626Z</time></trkpt><trkpt lat="-36.7435115" lon="174.4124742"><ele>127.0</ele><time>2026-03-28T20:19:05.626Z</time></trkpt><trkpt lat="-36.7434457" lon="174.4125698"><ele>126.66666666666667</ele><time>2026-03-28T20:19:07.626Z</time></trkpt><trkpt lat="-36.7433625" lon="174.4126418"><ele>126.33333333333334</ele><time>2026-03-28T20:19:09.625Z</time></trkpt><trkpt lat="-36.7432988" lon="174.4127014"><ele>126.0</ele><time>2026-03-28T20:19:11.624Z</time></trkpt><trkpt lat="-36.7432436" lon="174.4127851"><ele>125.66666666666666</ele><time>2026-03-28T20:19:13.625Z</time></trkpt><trkpt lat="-36.7431975" lon="174.4128552"><ele>125.33333333333333</ele><time>2026-03-28T20:19:15.626Z</time></trkpt><trkpt lat="-36.7431336" lon="174.4129455"><ele>125.0</ele><time>2026-03-28T20:19:17.626Z</time></trkpt><trkpt lat="-36.7430697" lon="174.4130365"><ele>125.99999999999999</ele><time>2026-03-28T20:19:19.625Z</time></trkpt><trkpt lat="-36.7430186" lon="174.4131003"><ele>127.0</ele><time>2026-03-28T20:19:21.625Z</time></trkpt><trkpt lat="-36.742986" lon="174.4131734"><ele>128.0</ele><time>2026-03-28T20:19:23.626Z</time></trkpt><trkpt lat="-36.7429382" lon="174.4132713"><ele>129.0</ele><time>2026-03-28T20:19:25.626Z</time></trkpt><trkpt lat="-36.7428913" lon="174.4133704"><ele>130.0</ele><time>2026-03-28T20:19:27.626Z</time></trkpt><trkpt lat="-36.7428452" lon="174.4134396"><ele>131.0</ele><time>2026-03-28T20:19:29.626Z</time></trkpt><trkpt lat="-36.7428" lon="174.4134999"><ele>131.0</ele><time>2026-03-28T20:19:31.625Z</time></trkpt><trkpt lat="-36.7427532" lon="174.4135737"><ele>131.0</ele><time>2026-03-28T20:19:34.626Z</time></trkpt><trkpt lat="-36.7427131" lon="174.4136636"><ele>131.0</ele><time>2026-03-28T20:19:38.626Z</time></trkpt><trkpt lat="-36.7426752" lon="174.4137389"><ele>131.0</ele><time>2026-03-28T20:19:40.625Z</time></trkpt><trkpt lat="-36.742627" lon="174.4137994"><ele>131.0</ele><time>2026-03-28T20:19:42.626Z</time></trkpt><trkpt lat="-36.7425778" lon="174.4138544"><ele>131.0</ele><time>2026-03-28T20:19:44.626Z</time></trkpt><trkpt lat="-36.7425337" lon="174.4139317"><ele>131.0</ele><time>2026-03-28T20:19:47.626Z</time></trkpt><trkpt lat="-36.7424711" lon="174.413973"><ele>131.83333333333331</ele><time>2026-03-28T20:19:51.625Z</time></trkpt><trkpt lat="-36.7424182" lon="174.4138935"><ele>132.66666666666666</ele><time>2026-03-28T20:19:56.626Z</time></trkpt><trkpt lat="-36.7423406" lon="174.4138841"><ele>133.5</ele><time>2026-03-28T20:20:00.626Z</time></trkpt><trkpt lat="-36.7423236" lon="174.4139655"><ele>134.33333333333334</ele><time>2026-03-28T20:20:03.625Z</time></trkpt><trkpt lat="-36.7423015" lon="174.414047"><ele>135.16666666666669</ele><time>2026-03-28T20:20:06.625Z</time></trkpt><trkpt lat="-36.7423048" lon="174.4141447"><ele>136.0</ele><time>2026-03-28T20:20:09.626Z</time></trkpt><trkpt lat="-36.7423156" lon="174.4142409"><ele>136.0</ele><time>2026-03-28T20:20:13.626Z</time></trkpt><trkpt lat="-36.7422408" lon="174.4142658"><ele>136.0</ele><time>2026-03-28T20:20:17.625Z</time></trkpt><trkpt lat="-36.7421588" lon="174.4142119"><ele>136.0</ele><time>2026-03-28T20:20:20.624Z</time></trkpt><trkpt lat="-36.7420889" lon="174.4141681"><ele>136.0</ele><time>2026-03-28T20:20:22.626Z</time></trkpt><trkpt lat="-36.7420136" lon="174.4141153"><ele>136.0</ele><time>2026-03-28T20:20:24.626Z</time></trkpt><trkpt lat="-36.7419254" lon="174.4140501"><ele>136.0</ele><time>2026-03-28T20:20:26.626Z</time></trkpt><trkpt lat="-36.741839" lon="174.4140036"><ele>135.8</ele><time>2026-03-28T20:20:28.624Z</time></trkpt><trkpt lat="-36.7417407" lon="174.4139443"><ele>135.6</ele><time>2026-03-28T20:20:30.626Z</time></trkpt><trkpt lat="-36.7416425" lon="174.4138914"><ele>135.4</ele><time>2026-03-28T20:20:32.626Z</time></trkpt><trkpt lat="-36.7415424" lon="174.4138431"><ele>135.2</ele><time>2026-03-28T20:20:34.626Z</time></trkpt><trkpt lat="-36.741437" lon="174.4137965"><ele>135.0</ele><time>2026-03-28T20:20:36.626Z</time></trkpt><trkpt lat="-36.7413306" lon="174.4137452"><ele>133.4</ele><time>2026-03-28T20:20:38.626Z</time></trkpt><trkpt lat="-36.741215" lon="174.4136949"><ele>131.8</ele><time>2026-03-28T20:20:40.626Z</time></trkpt><trkpt lat="-36.7411" lon="174.4136405"><ele>130.2</ele><time>2026-03-28T20:20:42.626Z</time></trkpt><trkpt lat="-36.7410388" lon="174.4136095"><ele>128.6</ele><time>2026-03-28T20:20:43.626Z</time></trkpt><trkpt lat="-36.7409274" lon="174.4135596"><ele>127.0</ele><time>2026-03-28T20:20:45.626Z</time></trkpt><trkpt lat="-36.7408655" lon="174.4135395"><ele>126.85714285714286</ele><time>2026-03-28T20:20:46.625Z</time></trkpt><trkpt lat="-36.7408017" lon="174.4135149"><ele>126.71428571428571</ele><time>2026-03-28T20:20:47.625Z</time></trkpt><trkpt lat="-36.7407388" lon="174.4134894"><ele>126.57142857142857</ele><time>2026-03-28T20:20:48.625Z</time></trkpt><trkpt lat="-36.7406762" lon="174.4134613"><ele>126.42857142857143</ele><time>2026-03-28T20:20:49.625Z</time></trkpt><trkpt lat="-36.7406127" lon="174.4134277"><ele>126.28571428571428</ele><time>2026-03-28T20:20:50.626Z</time></trkpt><trkpt lat="-36.7405494" lon="174.4133951"><ele>126.14285714285714</ele><time>2026-03-28T20:20:51.625Z</time></trkpt><trkpt lat="-36.7404826" lon="174.4133676"><ele>126.0</ele><time>2026-03-28T20:20:52.626Z</time></trkpt><trkpt lat="-36.7404151" lon="174.4133327"><ele>126.0</ele><time>2026-03-28T20:20:53.625Z</time></trkpt><trkpt lat="-36.7403506" lon="174.4133046"><ele>126.0</ele><time>2026-03-28T20:20:54.624Z</time></trkpt><trkpt lat="-36.740287" lon="174.4132711"><ele>126.0</ele><time>2026-03-28T20:20:55.626Z</time></trkpt><trkpt lat="-36.7402198" lon="174.4132397"><ele>126.0</ele><time>2026-03-28T20:20:56.625Z</time></trkpt><trkpt lat="-36.7401512" lon="174.4131972"><ele>126.0</ele><time>2026-03-28T20:20:57.626Z</time></trkpt><trkpt lat="-36.7400853" lon="174.4131636"><ele>126.0</ele><time>2026-03-28T20:20:58.626Z</time></trkpt><trkpt lat="-36.7400153" lon="174.4131281"><ele>126.0</ele><time>2026-03-28T20:20:59.625Z</time></trkpt><trkpt lat="-36.7399456" lon="174.4130876"><ele>126.28571428571428</ele><time>2026-03-28T20:21:00.625Z</time></trkpt><trkpt lat="-36.7398788" lon="174.4130523"><ele>126.57142857142857</ele><time>2026-03-28T20:21:01.624Z</time></trkpt><trkpt lat="-36.7398132" lon="174.4130286"><ele>126.85714285714286</ele><time>2026-03-28T20:21:02.626Z</time></trkpt><trkpt lat="-36.7397539" lon="174.4129989"><ele>127.14285714285714</ele><time>2026-03-28T20:21:03.626Z</time></trkpt><trkpt lat="-36.7396923" lon="174.4129595"><ele>127.42857142857142</ele><time>2026-03-28T20:21:04.626Z</time></trkpt><trkpt lat="-36.739632" lon="174.4129287"><ele>127.71428571428571</ele><time>2026-03-28T20:21:05.626Z</time></trkpt><trkpt lat="-36.7395728" lon="174.4128966"><ele>128.0</ele><time>2026-03-28T20:21:06.627Z</time></trkpt><trkpt lat="-36.7394561" lon="174.412838"><ele>127.33333333333333</ele><time>2026-03-28T20:21:08.627Z</time></trkpt><trkpt lat="-36.7393978" lon="174.4128045"><ele>126.66666666666666</ele><time>2026-03-28T20:21:09.625Z</time></trkpt><trkpt lat="-36.7393398" lon="174.4127705"><ele>126.0</ele><time>2026-03-28T20:21:10.626Z</time></trkpt><trkpt lat="-36.7392262" lon="174.4127081"><ele>125.33333333333334</ele><time>2026-03-28T20:21:12.625Z</time></trkpt><trkpt lat="-36.7391695" lon="174.4126721"><ele>124.66666666666667</ele><time>2026-03-28T20:21:13.625Z</time></trkpt><trkpt lat="-36.7390507" lon="174.4126147"><ele>124.0</ele><time>2026-03-28T20:21:15.625Z</time></trkpt><trkpt lat="-36.7389894" lon="174.4125863"><ele>124.0</ele><time>2026-03-28T20:21:16.625Z</time></trkpt><trkpt lat="-36.7389291" lon="174.4125542"><ele>124.00000000000001</ele><time>2026-03-28T20:21:17.626Z</time></trkpt><trkpt lat="-36.7388695" lon="174.4125262"><ele>124.0</ele><time>2026-03-28T20:21:18.625Z</time></trkpt><trkpt lat="-36.7388078" lon="174.4124977"><ele>124.0</ele><time>2026-03-28T20:21:19.627Z</time></trkpt><trkpt lat="-36.7387446" lon="174.4124705"><ele>124.00000000000001</ele><time>2026-03-28T20:21:20.627Z</time></trkpt><trkpt lat="-36.738683" lon="174.412442"><ele>124.0</ele><time>2026-03-28T20:21:21.625Z</time></trkpt><trkpt lat="-36.7386212" lon="174.4124084"><ele>124.0</ele><time>2026-03-28T20:21:22.626Z</time></trkpt><trkpt lat="-36.73856" lon="174.4123748"><ele>124.0</ele><time>2026-03-28T20:21:23.626Z</time></trkpt><trkpt lat="-36.7384934" lon="174.4123398"><ele>124.00000000000001</ele><time>2026-03-28T20:21:24.626Z</time></trkpt><trkpt lat="-36.7384258" lon="174.4123114"><ele>124.0</ele><time>2026-03-28T20:21:25.626Z</time></trkpt><trkpt lat="-36.7383611" lon="174.4122799"><ele>124.0</ele><time>2026-03-28T20:21:26.626Z</time></trkpt><trkpt lat="-36.7382954" lon="174.4122495"><ele>124.00000000000001</ele><time>2026-03-28T20:21:27.625Z</time></trkpt><trkpt lat="-36.7382328" lon="174.4122165"><ele>124.0</ele><time>2026-03-28T20:21:28.627Z</time></trkpt><trkpt lat="-36.7381656" lon="174.412185"><ele>124.0</ele><time>2026-03-28T20:21:29.625Z</time></trkpt><trkpt lat="-36.7381008" lon="174.4121555"><ele>124.00000000000001</ele><time>2026-03-28T20:21:30.626Z</time></trkpt><trkpt lat="-36.7380365" lon="174.4121257"><ele>124.0</ele><time>2026-03-28T20:21:31.625Z</time></trkpt><trkpt lat="-36.737973" lon="174.4120933"><ele>124.0</ele><time>2026-03-28T20:21:32.626Z</time></trkpt><trkpt lat="-36.7379113" lon="174.4120542"><ele>124.0</ele><time>2026-03-28T20:21:33.627Z</time></trkpt><trkpt lat="-36.7378492" lon="174.4120234"><ele>124.00000000000001</ele><time>2026-03-28T20:21:34.626Z</time></trkpt><trkpt lat="-36.73779" lon="174.4119943"><ele>124.0</ele><time>2026-03-28T20:21:35.625Z</time></trkpt><trkpt lat="-36.7376787" lon="174.4119305"><ele>124.6</ele><time>2026-03-28T20:21:37.626Z</time></trkpt><trkpt lat="-36.7375722" lon="174.4118823"><ele>125.2</ele><time>2026-03-28T20:21:39.625Z</time></trkpt><trkpt lat="-36.7374656" lon="174.4118293"><ele>125.79999999999998</ele><time>2026-03-28T20:21:41.625Z</time></trkpt><trkpt lat="-36.7373512" lon="174.4117736"><ele>126.39999999999999</ele><time>2026-03-28T20:21:43.626Z</time></trkpt><trkpt lat="-36.7372891" lon="174.4117485"><ele>127.0</ele><time>2026-03-28T20:21:44.626Z</time></trkpt><trkpt lat="-36.7372297" lon="174.4117218"><ele>127.0</ele><time>2026-03-28T20:21:45.626Z</time></trkpt><trkpt lat="-36.7371133" lon="174.4116701"><ele>126.99999999999999</ele><time>2026-03-28T20:21:47.625Z</time></trkpt><trkpt lat="-36.7370557" lon="174.4116384"><ele>126.99999999999999</ele><time>2026-03-28T20:21:48.626Z</time></trkpt><trkpt lat="-36.7369927" lon="174.4116077"><ele>127.0</ele><time>2026-03-28T20:21:49.625Z</time></trkpt><trkpt lat="-36.7368916" lon="174.4115663"><ele>127.0</ele><time>2026-03-28T20:21:51.626Z</time></trkpt><trkpt lat="-36.7367893" lon="174.4115241"><ele>127.39999999999999</ele><time>2026-03-28T20:21:53.626Z</time></trkpt><trkpt lat="-36.7366822" lon="174.4114722"><ele>127.79999999999998</ele><time>2026-03-28T20:21:55.625Z</time></trkpt><trkpt lat="-36.7365775" lon="174.4114242"><ele>128.2</ele><time>2026-03-28T20:21:57.625Z</time></trkpt><trkpt lat="-36.7364812" lon="174.4113769"><ele>128.6</ele><time>2026-03-28T20:21:59.626Z</time></trkpt><trkpt lat="-36.7363862" lon="174.4113412"><ele>129.0</ele><time>2026-03-28T20:22:01.626Z</time></trkpt><trkpt lat="-36.7363018" lon="174.4113135"><ele>129.66666666666666</ele><time>2026-03-28T20:22:03.625Z</time></trkpt><trkpt lat="-36.7362261" lon="174.411278"><ele>130.33333333333334</ele><time>2026-03-28T20:22:05.626Z</time></trkpt><trkpt lat="-36.7361536" lon="174.4112473"><ele>131.0</ele><time>2026-03-28T20:22:07.626Z</time></trkpt><trkpt lat="-36.7360785" lon="174.4112059"><ele>131.66666666666669</ele><time>2026-03-28T20:22:10.626Z</time></trkpt><trkpt lat="-36.7361529" lon="174.4111635"><ele>132.33333333333334</ele><time>2026-03-28T20:22:14.626Z</time></trkpt><trkpt lat="-36.7362256" lon="174.4111704"><ele>133.0</ele><time>2026-03-28T20:22:16.625Z</time></trkpt><trkpt lat="-36.7363088" lon="174.4111695"><ele>133.0</ele><time>2026-03-28T20:22:18.625Z</time></trkpt><trkpt lat="-36.7363873" lon="174.4111575"><ele>133.0</ele><time>2026-03-28T20:22:20.626Z</time></trkpt><trkpt lat="-36.7364649" lon="174.4111472"><ele>133.0</ele><time>2026-03-28T20:22:22.626Z</time></trkpt><trkpt lat="-36.736522" lon="174.4110992"><ele>133.0</ele><time>2026-03-28T20:22:24.626Z</time></trkpt><trkpt lat="-36.7364935" lon="174.4110229"><ele>133.0</ele><time>2026-03-28T20:22:26.626Z</time></trkpt><trkpt lat="-36.7364271" lon="174.4109542"><ele>133.0</ele><time>2026-03-28T20:22:29.626Z</time></trkpt><trkpt lat="-36.7363666" lon="174.4109149"><ele>133.0</ele><time>2026-03-28T20:22:31.625Z</time></trkpt><trkpt lat="-36.7363308" lon="174.41082"><ele>133.0</ele><time>2026-03-28T20:22:34.626Z</time></trkpt><trkpt lat="-36.736353" lon="174.4107305"><ele>133.0</ele><time>2026-03-28T20:22:36.626Z</time></trkpt><trkpt lat="-36.7363767" lon="174.4106362"><ele>133.0</ele><time>2026-03-28T20:22:38.626Z</time></trkpt><trkpt lat="-36.7364093" lon="174.4105437"><ele>133.0</ele><time>2026-03-28T20:22:40.625Z</time></trkpt><trkpt lat="-36.7364369" lon="174.4104387"><ele>133.0</ele><time>2026-03-28T20:22:42.625Z</time></trkpt><trkpt lat="-36.7364612" lon="174.4103295"><ele>133.0</ele><time>2026-03-28T20:22:44.625Z</time></trkpt><trkpt lat="-36.736482" lon="174.4102164"><ele>134.0</ele><time>2026-03-28T20:22:46.626Z</time></trkpt><trkpt lat="-36.7364875" lon="174.4100866"><ele>135.0</ele><time>2026-03-28T20:22:48.626Z</time></trkpt><trkpt lat="-36.7364997" lon="174.4099647"><ele>136.0</ele><time>2026-03-28T20:22:50.626Z</time></trkpt><trkpt lat="-36.736533" lon="174.4098458"><ele>137.0</ele><time>2026-03-28T20:22:52.624Z</time></trkpt><trkpt lat="-36.7365599" lon="174.4097507"><ele>138.0</ele><time>2026-03-28T20:22:53.626Z</time></trkpt><trkpt lat="-36.7365873" lon="174.409666"><ele>138.0</ele><time>2026-03-28T20:22:54.625Z</time></trkpt><trkpt lat="-36.7366275" lon="174.409536"><ele>138.0</ele><time>2026-03-28T20:22:56.625Z</time></trkpt><trkpt lat="-36.7366539" lon="174.4094132"><ele>138.0</ele><time>2026-03-28T20:22:58.626Z</time></trkpt><trkpt lat="-36.7366935" lon="174.409269"><ele>138.0</ele><time>2026-03-28T20:23:00.626Z</time></trkpt><trkpt lat="-36.7367247" lon="174.4091362"><ele>138.0</ele><time>2026-03-28T20:23:02.626Z</time></trkpt><trkpt lat="-36.7367653" lon="174.4090003"><ele>138.0</ele><time>2026-03-28T20:23:04.625Z</time></trkpt><trkpt lat="-36.7368122" lon="174.4088646"><ele>138.0</ele><time>2026-03-28T20:23:06.626Z</time></trkpt><trkpt lat="-36.7368381" lon="174.4087448"><ele>138.0</ele><time>2026-03-28T20:23:08.626Z</time></trkpt><trkpt lat="-36.7368728" lon="174.4086439"><ele>138.0</ele><time>2026-03-28T20:23:10.625Z</time></trkpt><trkpt lat="-36.7369039" lon="174.4085467"><ele>138.0</ele><time>2026-03-28T20:23:12.625Z</time></trkpt><trkpt lat="-36.7369459" lon="174.4084478"><ele>137.66666666666666</ele><time>2026-03-28T20:23:14.626Z</time></trkpt><trkpt lat="-36.7369778" lon="174.4083719"><ele>137.33333333333334</ele><time>2026-03-28T20:23:16.625Z</time></trkpt><trkpt lat="-36.7370119" lon="174.4082779"><ele>137.0</ele><time>2026-03-28T20:23:18.626Z</time></trkpt><trkpt lat="-36.7370424" lon="174.4081848"><ele>136.66666666666669</ele><time>2026-03-28T20:23:20.626Z</time></trkpt><trkpt lat="-36.7370659" lon="174.4080998"><ele>136.33333333333334</ele><time>2026-03-28T20:23:22.626Z</time></trkpt><trkpt lat="-36.7370978" lon="174.4079873"><ele>136.0</ele><time>2026-03-28T20:23:25.625Z</time></trkpt><trkpt lat="-36.737116" lon="174.4079052"><ele>137.33333333333334</ele><time>2026-03-28T20:23:27.626Z</time></trkpt><trkpt lat="-36.7371458" lon="174.4078025"><ele>138.66666666666669</ele><time>2026-03-28T20:23:30.625Z</time></trkpt><trkpt lat="-36.737168" lon="174.4077272"><ele>140.0</ele><time>2026-03-28T20:23:32.626Z</time></trkpt><trkpt lat="-36.7371951" lon="174.4076525"><ele>141.33333333333334</ele><time>2026-03-28T20:23:34.626Z</time></trkpt><trkpt lat="-36.7372273" lon="174.4075633"><ele>142.66666666666666</ele><time>2026-03-28T20:23:36.626Z</time></trkpt><trkpt lat="-36.7372552" lon="174.4074718"><ele>144.0</ele><time>2026-03-28T20:23:38.626Z</time></trkpt><trkpt lat="-36.7372808" lon="174.4073836"><ele>144.0</ele><time>2026-03-28T20:23:40.626Z</time></trkpt><trkpt lat="-36.7372947" lon="174.4072862"><ele>144.0</ele><time>2026-03-28T20:23:42.625Z</time></trkpt><trkpt lat="-36.737319" lon="174.4071932"><ele>144.0</ele><time>2026-03-28T20:23:44.626Z</time></trkpt><trkpt lat="-36.7373502" lon="174.4071082"><ele>144.0</ele><time>2026-03-28T20:23:46.626Z</time></trkpt><trkpt lat="-36.7373703" lon="174.4070227"><ele>144.0</ele><time>2026-03-28T20:23:48.627Z</time></trkpt><trkpt lat="-36.7373773" lon="174.4069359"><ele>144.0</ele><time>2026-03-28T20:23:50.626Z</time></trkpt><trkpt lat="-36.7374509" lon="174.4068986"><ele>143.6</ele><time>2026-03-28T20:23:54.625Z</time></trkpt><trkpt lat="-36.7374769" lon="174.4068129"><ele>143.2</ele><time>2026-03-28T20:24:25.625Z</time></trkpt><trkpt lat="-36.7374515" lon="174.4067265"><ele>142.79999999999998</ele><time>2026-03-28T20:24:28.626Z</time></trkpt><trkpt lat="-36.7373739" lon="174.4066608"><ele>142.4</ele><time>2026-03-28T20:24:30.624Z</time></trkpt><trkpt lat="-36.7372921" lon="174.406604"><ele>142.0</ele><time>2026-03-28T20:24:32.626Z</time></trkpt><trkpt lat="-36.7371687" lon="174.4065886"><ele>142.0</ele><time>2026-03-28T20:24:34.626Z</time></trkpt><trkpt lat="-36.7371053" lon="174.406571"><ele>142.0</ele><time>2026-03-28T20:24:35.625Z</time></trkpt><trkpt lat="-36.7370847" lon="174.4064806"><ele>142.0</ele><time>2026-03-28T20:24:37.626Z</time></trkpt><trkpt lat="-36.7370477" lon="174.4063757"><ele>142.0</ele><time>2026-03-28T20:24:39.626Z</time></trkpt><trkpt lat="-36.7369851" lon="174.4063624"><ele>142.0</ele><time>2026-03-28T20:24:40.625Z</time></trkpt><trkpt lat="-36.7368866" lon="174.4062986"><ele>142.0</ele><time>2026-03-28T20:24:42.626Z</time></trkpt><trkpt lat="-36.7367537" lon="174.4062443"><ele>140.14285714285714</ele><time>2026-03-28T20:24:44.626Z</time></trkpt><trkpt lat="-36.7366819" lon="174.4062154"><ele>138.28571428571428</ele><time>2026-03-28T20:24:45.625Z</time></trkpt><trkpt lat="-36.7366077" lon="174.4061888"><ele>136.42857142857142</ele><time>2026-03-28T20:24:46.626Z</time></trkpt><trkpt lat="-36.7365354" lon="174.4061609"><ele>134.57142857142856</ele><time>2026-03-28T20:24:47.626Z</time></trkpt><trkpt lat="-36.7364694" lon="174.4061206"><ele>132.71428571428572</ele><time>2026-03-28T20:24:48.626Z</time></trkpt><trkpt lat="-36.7364041" lon="174.4060949"><ele>130.85714285714283</ele><time>2026-03-28T20:24:49.625Z</time></trkpt><trkpt lat="-36.736333" lon="174.4061047"><ele>129.0</ele><time>2026-03-28T20:24:50.626Z</time></trkpt><trkpt lat="-36.7362508" lon="174.4061063"><ele>129.0</ele><time>2026-03-28T20:24:51.625Z</time></trkpt><trkpt lat="-36.7361767" lon="174.4061012"><ele>129.0</ele><time>2026-03-28T20:24:52.624Z</time></trkpt><trkpt lat="-36.7360962" lon="174.406077"><ele>129.0</ele><time>2026-03-28T20:24:53.626Z</time></trkpt><trkpt lat="-36.7360149" lon="174.4060598"><ele>129.0</ele><time>2026-03-28T20:24:54.626Z</time></trkpt><trkpt lat="-36.735943" lon="174.4061138"><ele>129.0</ele><time>2026-03-28T20:24:55.626Z</time></trkpt><trkpt lat="-36.7358357" lon="174.4061481"><ele>129.0</ele><time>2026-03-28T20:24:56.626Z</time></trkpt><trkpt lat="-36.7356811" lon="174.4061435"><ele>127.5</ele><time>2026-03-28T20:24:58.626Z</time></trkpt><trkpt lat="-36.7355869" lon="174.4061725"><ele>126.0</ele><time>2026-03-28T20:24:59.626Z</time></trkpt><trkpt lat="-36.7354919" lon="174.4061866"><ele>124.5</ele><time>2026-03-28T20:25:00.626Z</time></trkpt><trkpt lat="-36.735409" lon="174.4061955"><ele>123.0</ele><time>2026-03-28T20:25:01.625Z</time></trkpt><trkpt lat="-36.7353365" lon="174.4062091"><ele>121.5</ele><time>2026-03-28T20:25:02.627Z</time></trkpt><trkpt lat="-36.7352593" lon="174.4062192"><ele>120.0</ele><time>2026-03-28T20:25:03.626Z</time></trkpt><trkpt lat="-36.7351956" lon="174.406207"><ele>120.0</ele><time>2026-03-28T20:25:04.626Z</time></trkpt><trkpt lat="-36.7351246" lon="174.4061982"><ele>120.0</ele><time>2026-03-28T20:25:05.626Z</time></trkpt><trkpt lat="-36.7350151" lon="174.4061608"><ele>120.0</ele><time>2026-03-28T20:25:07.625Z</time></trkpt><trkpt lat="-36.7349243" lon="174.4060945"><ele>120.0</ele><time>2026-03-28T20:25:09.626Z</time></trkpt><trkpt lat="-36.7348354" lon="174.4059997"><ele>120.0</ele><time>2026-03-28T20:25:11.626Z</time></trkpt><trkpt lat="-36.7347622" lon="174.4058675"><ele>120.0</ele><time>2026-03-28T20:25:13.625Z</time></trkpt><trkpt lat="-36.734725" lon="174.4057509"><ele>120.0</ele><time>2026-03-28T20:25:15.626Z</time></trkpt><trkpt lat="-36.7346808" lon="174.4056363"><ele>120.0</ele><time>2026-03-28T20:25:17.626Z</time></trkpt><trkpt lat="-36.734684" lon="174.4055354"><ele>120.0</ele><time>2026-03-28T20:25:19.627Z</time></trkpt><trkpt lat="-36.7346458" lon="174.4054501"><ele>120.0</ele><time>2026-03-28T20:25:22.626Z</time></trkpt><trkpt lat="-36.7346242" lon="174.40536"><ele>120.0</ele><time>2026-03-28T20:25:26.626Z</time></trkpt><trkpt lat="-36.7346849" lon="174.4053299"><ele>120.16666666666667</ele><time>2026-03-28T20:25:30.625Z</time></trkpt><trkpt lat="-36.734672" lon="174.4052524"><ele>120.33333333333334</ele><time>2026-03-28T20:25:33.626Z</time></trkpt><trkpt lat="-36.7346578" lon="174.4051411"><ele>120.5</ele><time>2026-03-28T20:25:36.626Z</time></trkpt><trkpt lat="-36.7346566" lon="174.4050455"><ele>120.66666666666667</ele><time>2026-03-28T20:25:38.624Z</time></trkpt><trkpt lat="-36.7346215" lon="174.4049496"><ele>120.83333333333334</ele><time>2026-03-28T20:25:40.627Z</time></trkpt><trkpt lat="-36.7346274" lon="174.4048546"><ele>121.0</ele><time>2026-03-28T20:25:42.626Z</time></trkpt><trkpt lat="-36.7346576" lon="174.4047607"><ele>122.6</ele><time>2026-03-28T20:25:44.625Z</time></trkpt><trkpt lat="-36.7346976" lon="174.4046583"><ele>124.19999999999999</ele><time>2026-03-28T20:25:46.626Z</time></trkpt><trkpt lat="-36.7347657" lon="174.4045556"><ele>125.80000000000001</ele><time>2026-03-28T20:25:48.626Z</time></trkpt><trkpt lat="-36.7347787" lon="174.4044277"><ele>127.4</ele><time>2026-03-28T20:25:50.625Z</time></trkpt><trkpt lat="-36.7347829" lon="174.4043249"><ele>129.0</ele><time>2026-03-28T20:25:52.626Z</time></trkpt><trkpt lat="-36.7347963" lon="174.4042264"><ele>129.0</ele><time>2026-03-28T20:25:55.625Z</time></trkpt><trkpt lat="-36.734794" lon="174.4041138"><ele>129.0</ele><time>2026-03-28T20:25:58.626Z</time></trkpt><trkpt lat="-36.7347876" lon="174.4040215"><ele>129.0</ele><time>2026-03-28T20:26:00.626Z</time></trkpt><trkpt lat="-36.7348074" lon="174.4039245"><ele>129.0</ele><time>2026-03-28T20:26:02.626Z</time></trkpt><trkpt lat="-36.7348471" lon="174.4038361"><ele>129.0</ele><time>2026-03-28T20:26:04.626Z</time></trkpt><trkpt lat="-36.7348832" lon="174.4037315"><ele>129.0</ele><time>2026-03-28T20:26:06.625Z</time></trkpt><trkpt lat="-36.7349413" lon="174.4036704"><ele>128.83333333333334</ele><time>2026-03-28T20:26:08.626Z</time></trkpt><trkpt lat="-36.7349985" lon="174.4036309"><ele>128.66666666666666</ele><time>2026-03-28T20:26:09.626Z</time></trkpt><trkpt lat="-36.7350673" lon="174.4035759"><ele>128.5</ele><time>2026-03-28T20:26:11.625Z</time></trkpt><trkpt lat="-36.7351416" lon="174.4035685"><ele>128.33333333333331</ele><time>2026-03-28T20:26:12.625Z</time></trkpt><trkpt lat="-36.7352259" lon="174.4035361"><ele>128.16666666666666</ele><time>2026-03-28T20:26:14.625Z</time></trkpt><trkpt lat="-36.7353182" lon="174.4034742"><ele>128.0</ele><time>2026-03-28T20:26:16.627Z</time></trkpt><trkpt lat="-36.7353816" lon="174.4034076"><ele>127.99999999999999</ele><time>2026-03-28T20:26:18.625Z</time></trkpt><trkpt lat="-36.735448" lon="174.4034032"><ele>128.0</ele><time>2026-03-28T20:26:20.625Z</time></trkpt><trkpt lat="-36.7355272" lon="174.4034384"><ele>128.0</ele><time>2026-03-28T20:26:22.625Z</time></trkpt><trkpt lat="-36.735612" lon="174.4034677"><ele>128.0</ele><time>2026-03-28T20:26:24.626Z</time></trkpt><trkpt lat="-36.7357005" lon="174.4034574"><ele>127.99999999999999</ele><time>2026-03-28T20:26:26.626Z</time></trkpt><trkpt lat="-36.7357758" lon="174.4033849"><ele>128.0</ele><time>2026-03-28T20:26:28.626Z</time></trkpt><trkpt lat="-36.7358198" lon="174.4032605"><ele>127.99999999999999</ele><time>2026-03-28T20:26:30.626Z</time></trkpt><trkpt lat="-36.735846" lon="174.4031873"><ele>128.0</ele><time>2026-03-28T20:26:31.625Z</time></trkpt><trkpt lat="-36.7358787" lon="174.4031185"><ele>128.0</ele><time>2026-03-28T20:26:32.626Z</time></trkpt><trkpt lat="-36.7359093" lon="174.402982"><ele>128.0</ele><time>2026-03-28T20:26:34.626Z</time></trkpt><trkpt lat="-36.7359297" lon="174.402867"><ele>127.99999999999999</ele><time>2026-03-28T20:26:36.625Z</time></trkpt><trkpt lat="-36.735984" lon="174.4027466"><ele>128.0</ele><time>2026-03-28T20:26:38.625Z</time></trkpt><trkpt lat="-36.7360231" lon="174.4026797"><ele>127.49999999999999</ele><time>2026-03-28T20:26:39.625Z</time></trkpt><trkpt lat="-36.7360451" lon="174.4026004"><ele>127.0</ele><time>2026-03-28T20:26:40.625Z</time></trkpt><trkpt lat="-36.7360592" lon="174.4025168"><ele>126.5</ele><time>2026-03-28T20:26:41.626Z</time></trkpt><trkpt lat="-36.7360726" lon="174.4023772"><ele>126.0</ele><time>2026-03-28T20:26:43.625Z</time></trkpt><trkpt lat="-36.7361133" lon="174.4023067"><ele>125.49999999999999</ele><time>2026-03-28T20:26:44.625Z</time></trkpt><trkpt lat="-36.7361566" lon="174.4022296"><ele>125.0</ele><time>2026-03-28T20:26:45.625Z</time></trkpt><trkpt lat="-36.7361953" lon="174.4021353"><ele>124.33333333333333</ele><time>2026-03-28T20:26:47.625Z</time></trkpt><trkpt lat="-36.736234" lon="174.4020186"><ele>123.66666666666666</ele><time>2026-03-28T20:26:49.625Z</time></trkpt><trkpt lat="-36.7362503" lon="174.4019091"><ele>123.0</ele><time>2026-03-28T20:26:51.626Z</time></trkpt><trkpt lat="-36.7362638" lon="174.4018282"><ele>122.33333333333334</ele><time>2026-03-28T20:26:53.626Z</time></trkpt><trkpt lat="-36.7362862" lon="174.4017093"><ele>121.66666666666667</ele><time>2026-03-28T20:26:56.625Z</time></trkpt><trkpt lat="-36.736312" lon="174.4016348"><ele>121.0</ele><time>2026-03-28T20:26:58.626Z</time></trkpt><trkpt lat="-36.7363396" lon="174.4015432"><ele>121.00000000000001</ele><time>2026-03-28T20:27:00.626Z</time></trkpt><trkpt lat="-36.7363799" lon="174.4014579"><ele>121.0</ele><time>2026-03-28T20:27:02.625Z</time></trkpt><trkpt lat="-36.7364262" lon="174.401351"><ele>121.0</ele><time>2026-03-28T20:27:04.625Z</time></trkpt><trkpt lat="-36.7364327" lon="174.4012668"><ele>121.0</ele><time>2026-03-28T20:27:06.625Z</time></trkpt><trkpt lat="-36.7364423" lon="174.4011877"><ele>121.00000000000001</ele><time>2026-03-28T20:27:08.626Z</time></trkpt><trkpt lat="-36.7364794" lon="174.4010982"><ele>121.0</ele><time>2026-03-28T20:27:11.626Z</time></trkpt><trkpt lat="-36.7365217" lon="174.4010207"><ele>121.50000000000001</ele><time>2026-03-28T20:27:14.626Z</time></trkpt><trkpt lat="-36.7365853" lon="174.4009804"><ele>122.0</ele><time>2026-03-28T20:27:17.626Z</time></trkpt><trkpt lat="-36.7366432" lon="174.400931"><ele>122.5</ele><time>2026-03-28T20:27:20.626Z</time></trkpt><trkpt lat="-36.7366946" lon="174.4008385"><ele>123.0</ele><time>2026-03-28T20:27:23.626Z</time></trkpt><trkpt lat="-36.736745" lon="174.4007725"><ele>123.50000000000001</ele><time>2026-03-28T20:27:25.626Z</time></trkpt><trkpt lat="-36.7367979" lon="174.4006977"><ele>124.0</ele><time>2026-03-28T20:27:27.626Z</time></trkpt><trkpt lat="-36.7368429" lon="174.4006226"><ele>125.80000000000001</ele><time>2026-03-28T20:27:29.626Z</time></trkpt><trkpt lat="-36.736886" lon="174.4005115"><ele>127.60000000000001</ele><time>2026-03-28T20:27:32.626Z</time></trkpt><trkpt lat="-36.736953" lon="174.4004498"><ele>129.4</ele><time>2026-03-28T20:27:34.626Z</time></trkpt><trkpt lat="-36.737032" lon="174.4003957"><ele>131.20000000000002</ele><time>2026-03-28T20:27:36.625Z</time></trkpt><trkpt lat="-36.7371152" lon="174.4003045"><ele>133.0</ele><time>2026-03-28T20:27:38.626Z</time></trkpt><trkpt lat="-36.7371592" lon="174.4002195"><ele>133.0</ele><time>2026-03-28T20:27:40.625Z</time></trkpt><trkpt lat="-36.7372014" lon="174.4001308"><ele>133.0</ele><time>2026-03-28T20:27:42.626Z</time></trkpt><trkpt lat="-36.7372379" lon="174.400057"><ele>133.0</ele><time>2026-03-28T20:27:43.626Z</time></trkpt><trkpt lat="-36.7372809" lon="174.3999912"><ele>133.0</ele><time>2026-03-28T20:27:44.626Z</time></trkpt><trkpt lat="-36.7373186" lon="174.3999096"><ele>133.0</ele><time>2026-03-28T20:27:45.625Z</time></trkpt><trkpt lat="-36.7373325" lon="174.3998327"><ele>133.0</ele><time>2026-03-28T20:27:46.625Z</time></trkpt><trkpt lat="-36.7373341" lon="174.3997164"><ele>133.0</ele><time>2026-03-28T20:27:48.626Z</time></trkpt><trkpt lat="-36.7372785" lon="174.3997698"><ele>133.0</ele><time>2026-03-28T20:27:54.626Z</time></trkpt><trkpt lat="-36.7372614" lon="174.3998979"><ele>133.0</ele><time>2026-03-28T20:27:57.626Z</time></trkpt><trkpt lat="-36.7372333" lon="174.3999701"><ele>133.0</ele><time>2026-03-28T20:27:59.626Z</time></trkpt><trkpt lat="-36.7371702" lon="174.400034"><ele>133.0</ele><time>2026-03-28T20:28:01.626Z</time></trkpt><trkpt lat="-36.737133" lon="174.4001032"><ele>133.0</ele><time>2026-03-28T20:28:03.625Z</time></trkpt><trkpt lat="-36.7370754" lon="174.4001453"><ele>133.0</ele><time>2026-03-28T20:28:05.626Z</time></trkpt><trkpt lat="-36.7369667" lon="174.4001731"><ele>133.0</ele><time>2026-03-28T20:28:07.626Z</time></trkpt><trkpt lat="-36.7368767" lon="174.4002439"><ele>133.0</ele><time>2026-03-28T20:28:09.626Z</time></trkpt><trkpt lat="-36.736803" lon="174.4003195"><ele>133.0</ele><time>2026-03-28T20:28:11.625Z</time></trkpt><trkpt lat="-36.7367384" lon="174.4003883"><ele>133.0</ele><time>2026-03-28T20:28:13.625Z</time></trkpt><trkpt lat="-36.7366791" lon="174.4004704"><ele>131.20000000000002</ele><time>2026-03-28T20:28:15.626Z</time></trkpt><trkpt lat="-36.7366511" lon="174.4005458"><ele>129.4</ele><time>2026-03-28T20:28:16.627Z</time></trkpt><trkpt lat="-36.7366164" lon="174.4006443"><ele>127.60000000000001</ele><time>2026-03-28T20:28:18.625Z</time></trkpt><trkpt lat="-36.736526" lon="174.4006765"><ele>125.80000000000001</ele><time>2026-03-28T20:28:21.626Z</time></trkpt><trkpt lat="-36.7364372" lon="174.4007319"><ele>124.0</ele><time>2026-03-28T20:28:23.626Z</time></trkpt><trkpt lat="-36.7363411" lon="174.4007964"><ele>124.00000000000001</ele><time>2026-03-28T20:28:25.626Z</time></trkpt><trkpt lat="-36.7363284" lon="174.4009029"><ele>124.0</ele><time>2026-03-28T20:28:27.626Z</time></trkpt><trkpt lat="-36.7363109" lon="174.4010027"><ele>124.0</ele><time>2026-03-28T20:28:29.626Z</time></trkpt><trkpt lat="-36.7363088" lon="174.4011158"><ele>124.0</ele><time>2026-03-28T20:28:31.626Z</time></trkpt><trkpt lat="-36.736327" lon="174.4012076"><ele>124.00000000000001</ele><time>2026-03-28T20:28:33.626Z</time></trkpt><trkpt lat="-36.7363104" lon="174.4012979"><ele>124.0</ele><time>2026-03-28T20:28:35.627Z</time></trkpt><trkpt lat="-36.736196" lon="174.4014354"><ele>123.50000000000001</ele><time>2026-03-28T20:28:37.626Z</time></trkpt><trkpt lat="-36.7361582" lon="174.4015252"><ele>123.0</ele><time>2026-03-28T20:28:38.625Z</time></trkpt><trkpt lat="-36.736138" lon="174.4016293"><ele>122.5</ele><time>2026-03-28T20:28:39.624Z</time></trkpt><trkpt lat="-36.7361306" lon="174.4017165"><ele>122.0</ele><time>2026-03-28T20:28:40.627Z</time></trkpt><trkpt lat="-36.7361293" lon="174.4017972"><ele>121.50000000000001</ele><time>2026-03-28T20:28:41.626Z</time></trkpt><trkpt lat="-36.73613" lon="174.4019286"><ele>121.0</ele><time>2026-03-28T20:28:43.626Z</time></trkpt><trkpt lat="-36.7360759" lon="174.401984"><ele>119.8</ele><time>2026-03-28T20:28:45.626Z</time></trkpt><trkpt lat="-36.7360022" lon="174.4019422"><ele>118.6</ele><time>2026-03-28T20:28:46.627Z</time></trkpt><trkpt lat="-36.7359886" lon="174.4018081"><ele>117.4</ele><time>2026-03-28T20:28:48.626Z</time></trkpt><trkpt lat="-36.7360168" lon="174.4017185"><ele>116.2</ele><time>2026-03-28T20:28:49.627Z</time></trkpt><trkpt lat="-36.7359885" lon="174.4015993"><ele>115.0</ele><time>2026-03-28T20:28:51.626Z</time></trkpt><trkpt lat="-36.7358677" lon="174.4015954"><ele>115.0</ele><time>2026-03-28T20:28:53.626Z</time></trkpt><trkpt lat="-36.7357679" lon="174.4017166"><ele>115.0</ele><time>2026-03-28T20:28:55.625Z</time></trkpt><trkpt lat="-36.7356583" lon="174.4016907"><ele>115.0</ele><time>2026-03-28T20:28:57.626Z</time></trkpt><trkpt lat="-36.7355948" lon="174.4016469"><ele>115.0</ele><time>2026-03-28T20:28:58.626Z</time></trkpt><trkpt lat="-36.7355454" lon="174.4015918"><ele>115.0</ele><time>2026-03-28T20:28:59.624Z</time></trkpt><trkpt lat="-36.7354839" lon="174.4015407"><ele>115.00000000000001</ele><time>2026-03-28T20:29:00.626Z</time></trkpt><trkpt lat="-36.7354078" lon="174.4015161"><ele>115.0</ele><time>2026-03-28T20:29:01.624Z</time></trkpt><trkpt lat="-36.7353377" lon="174.4014838"><ele>115.0</ele><time>2026-03-28T20:29:02.627Z</time></trkpt><trkpt lat="-36.7352513" lon="174.4014923"><ele>115.0</ele><time>2026-03-28T20:29:03.625Z</time></trkpt><trkpt lat="-36.7351748" lon="174.4014992"><ele>115.00000000000001</ele><time>2026-03-28T20:29:04.626Z</time></trkpt><trkpt lat="-36.7351091" lon="174.4015234"><ele>115.0</ele><time>2026-03-28T20:29:05.626Z</time></trkpt><trkpt lat="-36.7350302" lon="174.4015841"><ele>114.4</ele><time>2026-03-28T20:29:07.626Z</time></trkpt><trkpt lat="-36.7349103" lon="174.4015842"><ele>113.8</ele><time>2026-03-28T20:29:09.625Z</time></trkpt><trkpt lat="-36.7347843" lon="174.4015039"><ele>113.19999999999999</ele><time>2026-03-28T20:29:11.627Z</time></trkpt><trkpt lat="-36.7348274" lon="174.401444"><ele>112.6</ele><time>2026-03-28T20:29:12.624Z</time></trkpt><trkpt lat="-36.7348504" lon="174.4013648"><ele>112.0</ele><time>2026-03-28T20:29:13.625Z</time></trkpt><trkpt lat="-36.7349093" lon="174.4013013"><ele>111.16666666666667</ele><time>2026-03-28T20:29:14.626Z</time></trkpt><trkpt lat="-36.7349865" lon="174.4012483"><ele>110.33333333333334</ele><time>2026-03-28T20:29:15.626Z</time></trkpt><trkpt lat="-36.7350774" lon="174.4011952"><ele>109.5</ele><time>2026-03-28T20:29:16.626Z</time></trkpt><trkpt lat="-36.735145" lon="174.4011653"><ele>108.66666666666666</ele><time>2026-03-28T20:29:17.626Z</time></trkpt><trkpt lat="-36.7352116" lon="174.4011514"><ele>107.83333333333333</ele><time>2026-03-28T20:29:18.626Z</time></trkpt><trkpt lat="-36.7352734" lon="174.4011196"><ele>107.0</ele><time>2026-03-28T20:29:19.625Z</time></trkpt><trkpt lat="-36.7352991" lon="174.4010381"><ele>106.99999999999999</ele><time>2026-03-28T20:29:21.625Z</time></trkpt><trkpt lat="-36.7352218" lon="174.4010081"><ele>107.0</ele><time>2026-03-28T20:29:22.626Z</time></trkpt><trkpt lat="-36.7351483" lon="174.4010012"><ele>107.0</ele><time>2026-03-28T20:29:23.627Z</time></trkpt><trkpt lat="-36.7350769" lon="174.4010372"><ele>107.0</ele><time>2026-03-28T20:29:24.626Z</time></trkpt><trkpt lat="-36.7350139" lon="174.4010725"><ele>106.99999999999999</ele><time>2026-03-28T20:29:25.626Z</time></trkpt><trkpt lat="-36.7349129" lon="174.4010525"><ele>107.0</ele><time>2026-03-28T20:29:27.625Z</time></trkpt><trkpt lat="-36.7349256" lon="174.4009175"><ele>106.28571428571429</ele><time>2026-03-28T20:29:29.626Z</time></trkpt><trkpt lat="-36.734977" lon="174.4008558"><ele>105.57142857142857</ele><time>2026-03-28T20:29:30.626Z</time></trkpt><trkpt lat="-36.7350306" lon="174.4007963"><ele>104.85714285714286</ele><time>2026-03-28T20:29:31.626Z</time></trkpt><trkpt lat="-36.7350445" lon="174.4007052"><ele>104.14285714285714</ele><time>2026-03-28T20:29:32.626Z</time></trkpt><trkpt lat="-36.735029" lon="174.4005999"><ele>103.42857142857143</ele><time>2026-03-28T20:29:34.625Z</time></trkpt><trkpt lat="-36.7350751" lon="174.4005247"><ele>102.71428571428572</ele><time>2026-03-28T20:29:37.626Z</time></trkpt><trkpt lat="-36.7351382" lon="174.4005265"><ele>102.0</ele><time>2026-03-28T20:29:39.626Z</time></trkpt><trkpt lat="-36.7352187" lon="174.4005425"><ele>101.66666666666667</ele><time>2026-03-28T20:29:41.626Z</time></trkpt><trkpt lat="-36.735309" lon="174.4005924"><ele>101.33333333333334</ele><time>2026-03-28T20:29:44.626Z</time></trkpt><trkpt lat="-36.7353859" lon="174.4006445"><ele>101.0</ele><time>2026-03-28T20:29:46.627Z</time></trkpt><trkpt lat="-36.7354654" lon="174.4006542"><ele>100.66666666666667</ele><time>2026-03-28T20:29:48.626Z</time></trkpt><trkpt lat="-36.7355227" lon="174.4006036"><ele>100.33333333333334</ele><time>2026-03-28T20:29:50.627Z</time></trkpt><trkpt lat="-36.7355736" lon="174.4005437"><ele>100.0</ele><time>2026-03-28T20:29:52.627Z</time></trkpt><trkpt lat="-36.7356145" lon="174.4004511"><ele>100.00000000000001</ele><time>2026-03-28T20:29:54.625Z</time></trkpt><trkpt lat="-36.7356813" lon="174.4003893"><ele>100.0</ele><time>2026-03-28T20:29:56.625Z</time></trkpt><trkpt lat="-36.7357464" lon="174.4003257"><ele>100.0</ele><time>2026-03-28T20:29:58.627Z</time></trkpt><trkpt lat="-36.7357017" lon="174.4002657"><ele>100.0</ele><time>2026-03-28T20:30:00.626Z</time></trkpt><trkpt lat="-36.7357025" lon="174.4001593"><ele>100.00000000000001</ele><time>2026-03-28T20:30:02.626Z</time></trkpt><trkpt lat="-36.735779" lon="174.4001303"><ele>100.0</ele><time>2026-03-28T20:30:03.626Z</time></trkpt><trkpt lat="-36.7358386" lon="174.400059"><ele>100.00000000000001</ele><time>2026-03-28T20:30:05.625Z</time></trkpt><trkpt lat="-36.7359034" lon="174.3999624"><ele>100.0</ele><time>2026-03-28T20:30:07.626Z</time></trkpt><trkpt lat="-36.7359637" lon="174.3998741"><ele>100.0</ele><time>2026-03-28T20:30:09.625Z</time></trkpt><trkpt lat="-36.7360226" lon="174.3997743"><ele>100.0</ele><time>2026-03-28T20:30:11.626Z</time></trkpt><trkpt lat="-36.7360677" lon="174.3996928"><ele>100.00000000000001</ele><time>2026-03-28T20:30:12.626Z</time></trkpt><trkpt lat="-36.736099" lon="174.3996155"><ele>100.0</ele><time>2026-03-28T20:30:13.626Z</time></trkpt><trkpt lat="-36.7361399" lon="174.3995174"><ele>99.66666666666667</ele><time>2026-03-28T20:30:14.626Z</time></trkpt><trkpt lat="-36.7361618" lon="174.3994403"><ele>99.33333333333334</ele><time>2026-03-28T20:30:15.625Z</time></trkpt><trkpt lat="-36.7362202" lon="174.3993786"><ele>99.0</ele><time>2026-03-28T20:30:16.626Z</time></trkpt><trkpt lat="-36.7362968" lon="174.3993448"><ele>98.66666666666666</ele><time>2026-03-28T20:30:18.625Z</time></trkpt><trkpt lat="-36.7363636" lon="174.399243"><ele>98.33333333333333</ele><time>2026-03-28T20:30:20.626Z</time></trkpt><trkpt lat="-36.7363696" lon="174.3991229"><ele>98.0</ele><time>2026-03-28T20:30:22.625Z</time></trkpt><trkpt lat="-36.7363096" lon="174.3990373"><ele>97.99999999999999</ele><time>2026-03-28T20:30:24.625Z</time></trkpt><trkpt lat="-36.7362306" lon="174.3989793"><ele>98.0</ele><time>2026-03-28T20:30:26.626Z</time></trkpt><trkpt lat="-36.7361527" lon="174.3990196"><ele>98.0</ele><time>2026-03-28T20:30:28.626Z</time></trkpt><trkpt lat="-36.7360776" lon="174.3990854"><ele>98.0</ele><time>2026-03-28T20:30:30.626Z</time></trkpt><trkpt lat="-36.7360019" lon="174.3991419"><ele>97.99999999999999</ele><time>2026-03-28T20:30:32.626Z</time></trkpt><trkpt lat="-36.7359311" lon="174.3991814"><ele>98.0</ele><time>2026-03-28T20:30:34.626Z</time></trkpt><trkpt lat="-36.7358702" lon="174.3992465"><ele>98.16666666666666</ele><time>2026-03-28T20:30:36.626Z</time></trkpt><trkpt lat="-36.7358126" lon="174.3993439"><ele>98.33333333333333</ele><time>2026-03-28T20:30:38.624Z</time></trkpt><trkpt lat="-36.7358016" lon="174.3994304"><ele>98.5</ele><time>2026-03-28T20:30:40.626Z</time></trkpt><trkpt lat="-36.7357812" lon="174.3995232"><ele>98.66666666666666</ele><time>2026-03-28T20:30:42.624Z</time></trkpt><trkpt lat="-36.7357501" lon="174.3995996"><ele>98.83333333333333</ele><time>2026-03-28T20:30:44.626Z</time></trkpt><trkpt lat="-36.7356657" lon="174.3996784"><ele>99.0</ele><time>2026-03-28T20:30:46.625Z</time></trkpt><trkpt lat="-36.7356132" lon="174.399725"><ele>99.2</ele><time>2026-03-28T20:30:47.626Z</time></trkpt><trkpt lat="-36.7354981" lon="174.3998079"><ele>99.4</ele><time>2026-03-28T20:30:49.626Z</time></trkpt><trkpt lat="-36.7354138" lon="174.3998617"><ele>99.6</ele><time>2026-03-28T20:30:51.626Z</time></trkpt><trkpt lat="-36.7353361" lon="174.3999115"><ele>99.8</ele><time>2026-03-28T20:30:53.626Z</time></trkpt><trkpt lat="-36.7352644" lon="174.3999694"><ele>100.0</ele><time>2026-03-28T20:30:55.626Z</time></trkpt><trkpt lat="-36.7351919" lon="174.4000314"><ele>100.16666666666667</ele><time>2026-03-28T20:30:57.626Z</time></trkpt><trkpt lat="-36.7351259" lon="174.4000864"><ele>100.33333333333334</ele><time>2026-03-28T20:30:59.626Z</time></trkpt><trkpt lat="-36.7350332" lon="174.4001154"><ele>100.5</ele><time>2026-03-28T20:31:01.624Z</time></trkpt><trkpt lat="-36.7349654" lon="174.4001148"><ele>100.66666666666666</ele><time>2026-03-28T20:31:02.625Z</time></trkpt><trkpt lat="-36.7348967" lon="174.4001196"><ele>100.83333333333333</ele><time>2026-03-28T20:31:04.626Z</time></trkpt><trkpt lat="-36.7348078" lon="174.4001279"><ele>101.0</ele><time>2026-03-28T20:31:06.626Z</time></trkpt><trkpt lat="-36.7347226" lon="174.4001282"><ele>100.99999999999999</ele><time>2026-03-28T20:31:08.625Z</time></trkpt><trkpt lat="-36.7346551" lon="174.4001287"><ele>101.0</ele><time>2026-03-28T20:31:10.626Z</time></trkpt><trkpt lat="-36.7345739" lon="174.4001246"><ele>101.0</ele><time>2026-03-28T20:31:12.625Z</time></trkpt><trkpt lat="-36.734475" lon="174.4001092"><ele>101.0</ele><time>2026-03-28T20:31:14.625Z</time></trkpt><trkpt lat="-36.7344014" lon="174.400105"><ele>100.99999999999999</ele><time>2026-03-28T20:31:15.626Z</time></trkpt><trkpt lat="-36.7343104" lon="174.4001195"><ele>101.0</ele><time>2026-03-28T20:31:17.626Z</time></trkpt><trkpt lat="-36.7342342" lon="174.4001236"><ele>102.8</ele><time>2026-03-28T20:31:19.626Z</time></trkpt><trkpt lat="-36.7341394" lon="174.4001408"><ele>104.6</ele><time>2026-03-28T20:31:21.626Z</time></trkpt><trkpt lat="-36.7340361" lon="174.4001471"><ele>106.4</ele><time>2026-03-28T20:31:23.626Z</time></trkpt><trkpt lat="-36.7339343" lon="174.4001641"><ele>108.2</ele><time>2026-03-28T20:31:25.625Z</time></trkpt><trkpt lat="-36.7338395" lon="174.4002125"><ele>110.0</ele><time>2026-03-28T20:31:27.625Z</time></trkpt><trkpt lat="-36.7337593" lon="174.4001334"><ele>110.0</ele><time>2026-03-28T20:31:30.625Z</time></trkpt><trkpt lat="-36.7336985" lon="174.4000717"><ele>110.0</ele><time>2026-03-28T20:31:32.625Z</time></trkpt><trkpt lat="-36.7336234" lon="174.4000003"><ele>110.0</ele><time>2026-03-28T20:31:34.626Z</time></trkpt><trkpt lat="-36.7335393" lon="174.3999012"><ele>110.0</ele><time>2026-03-28T20:31:36.625Z</time></trkpt><trkpt lat="-36.7335106" lon="174.3998044"><ele>110.0</ele><time>2026-03-28T20:31:38.626Z</time></trkpt><trkpt lat="-36.7335412" lon="174.3996968"><ele>110.85714285714285</ele><time>2026-03-28T20:31:41.626Z</time></trkpt><trkpt lat="-36.7334965" lon="174.3996388"><ele>111.71428571428572</ele><time>2026-03-28T20:31:44.626Z</time></trkpt><trkpt lat="-36.7334185" lon="174.3996152"><ele>112.57142857142858</ele><time>2026-03-28T20:31:47.625Z</time></trkpt><trkpt lat="-36.733363" lon="174.3995695"><ele>113.42857142857143</ele><time>2026-03-28T20:31:49.626Z</time></trkpt><trkpt lat="-36.733334" lon="174.3994693"><ele>114.28571428571429</ele><time>2026-03-28T20:31:52.626Z</time></trkpt><trkpt lat="-36.7333166" lon="174.3993849"><ele>115.14285714285715</ele><time>2026-03-28T20:31:54.626Z</time></trkpt><trkpt lat="-36.733303" lon="174.3992891"><ele>116.00000000000001</ele><time>2026-03-28T20:31:56.626Z</time></trkpt><trkpt lat="-36.7333143" lon="174.3991996"><ele>115.99999999999999</ele><time>2026-03-28T20:31:58.626Z</time></trkpt><trkpt lat="-36.733323" lon="174.3990942"><ele>116.0</ele><time>2026-03-28T20:32:00.626Z</time></trkpt><trkpt lat="-36.7333261" lon="174.398998"><ele>116.0</ele><time>2026-03-28T20:32:02.625Z</time></trkpt><trkpt lat="-36.7333119" lon="174.3988966"><ele>116.0</ele><time>2026-03-28T20:32:04.624Z</time></trkpt><trkpt lat="-36.7333223" lon="174.3988067"><ele>115.99999999999999</ele><time>2026-03-28T20:32:06.626Z</time></trkpt><trkpt lat="-36.7333552" lon="174.3987067"><ele>116.0</ele><time>2026-03-28T20:32:09.626Z</time></trkpt><trkpt lat="-36.7333776" lon="174.3986164"><ele>116.00000000000001</ele><time>2026-03-28T20:32:11.625Z</time></trkpt><trkpt lat="-36.7333789" lon="174.3985259"><ele>116.0</ele><time>2026-03-28T20:32:13.627Z</time></trkpt><trkpt lat="-36.7333727" lon="174.3984286"><ele>116.00000000000001</ele><time>2026-03-28T20:32:15.626Z</time></trkpt><trkpt lat="-36.7333743" lon="174.3983309"><ele>116.00000000000001</ele><time>2026-03-28T20:32:17.626Z</time></trkpt><trkpt lat="-36.7333791" lon="174.3982474"><ele>116.0</ele><time>2026-03-28T20:32:19.626Z</time></trkpt><trkpt lat="-36.7333936" lon="174.3981467"><ele>116.00000000000001</ele><time>2026-03-28T20:32:22.625Z</time></trkpt><trkpt lat="-36.7334312" lon="174.3980756"><ele>116.00000000000001</ele><time>2026-03-28T20:32:25.626Z</time></trkpt><trkpt lat="-36.7334701" lon="174.3979987"><ele>115.99999999999999</ele><time>2026-03-28T20:33:28.625Z</time></trkpt><trkpt lat="-36.7335407" lon="174.397963"><ele>116.0</ele><time>2026-03-28T20:33:32.626Z</time></trkpt><trkpt lat="-36.7336167" lon="174.3979286"><ele>116.0</ele><time>2026-03-28T20:33:36.626Z</time></trkpt><trkpt lat="-36.7336873" lon="174.3979011"><ele>116.0</ele><time>2026-03-28T20:33:38.626Z</time></trkpt><trkpt lat="-36.7337774" lon="174.3978784"><ele>115.99999999999999</ele><time>2026-03-28T20:33:41.625Z</time></trkpt><trkpt lat="-36.7338407" lon="174.3978868"><ele>116.0</ele><time>2026-03-28T20:33:43.626Z</time></trkpt><trkpt lat="-36.7339131" lon="174.3978929"><ele>115.49999999999999</ele><time>2026-03-28T20:33:45.625Z</time></trkpt><trkpt lat="-36.7339786" lon="174.3978388"><ele>115.0</ele><time>2026-03-28T20:33:48.626Z</time></trkpt><trkpt lat="-36.733981" lon="174.3977342"><ele>114.5</ele><time>2026-03-28T20:33:50.626Z</time></trkpt><trkpt lat="-36.7339877" lon="174.3976391"><ele>114.0</ele><time>2026-03-28T20:33:51.626Z</time></trkpt><trkpt lat="-36.733974" lon="174.3975122"><ele>113.49999999999999</ele><time>2026-03-28T20:33:53.626Z</time></trkpt><trkpt lat="-36.7339969" lon="174.3973916"><ele>113.0</ele><time>2026-03-28T20:33:55.626Z</time></trkpt><trkpt lat="-36.7340849" lon="174.3973182"><ele>113.0</ele><time>2026-03-28T20:33:57.626Z</time></trkpt><trkpt lat="-36.734155" lon="174.397288"><ele>113.00000000000001</ele><time>2026-03-28T20:33:58.627Z</time></trkpt><trkpt lat="-36.73427" lon="174.3972723"><ele>113.00000000000001</ele><time>2026-03-28T20:34:00.626Z</time></trkpt><trkpt lat="-36.7343702" lon="174.3972653"><ele>113.0</ele><time>2026-03-28T20:34:02.626Z</time></trkpt><trkpt lat="-36.7344462" lon="174.3971926"><ele>113.0</ele><time>2026-03-28T20:34:04.625Z</time></trkpt><trkpt lat="-36.7345059" lon="174.3970961"><ele>108.60000000000001</ele><time>2026-03-28T20:34:06.626Z</time></trkpt><trkpt lat="-36.7345779" lon="174.3969891"><ele>104.20000000000002</ele><time>2026-03-28T20:34:08.626Z</time></trkpt><trkpt lat="-36.734643" lon="174.3969696"><ele>99.8</ele><time>2026-03-28T20:34:09.625Z</time></trkpt><trkpt lat="-36.7347422" lon="174.3969672"><ele>95.4</ele><time>2026-03-28T20:34:11.625Z</time></trkpt><trkpt lat="-36.7348497" lon="174.3969814"><ele>91.0</ele><time>2026-03-28T20:34:13.626Z</time></trkpt><trkpt lat="-36.7349495" lon="174.3970111"><ele>91.0</ele><time>2026-03-28T20:34:15.626Z</time></trkpt><trkpt lat="-36.7349916" lon="174.3970908"><ele>91.0</ele><time>2026-03-28T20:34:18.625Z</time></trkpt><trkpt lat="-36.7350178" lon="174.3971722"><ele>91.0</ele><time>2026-03-28T20:34:21.626Z</time></trkpt><trkpt lat="-36.7350943" lon="174.3972506"><ele>91.0</ele><time>2026-03-28T20:34:24.626Z</time></trkpt><trkpt lat="-36.7351277" lon="174.3973512"><ele>91.0</ele><time>2026-03-28T20:34:26.626Z</time></trkpt><trkpt lat="-36.7352084" lon="174.3973682"><ele>91.0</ele><time>2026-03-28T20:34:29.625Z</time></trkpt><trkpt lat="-36.7352941" lon="174.3973672"><ele>91.71428571428571</ele><time>2026-03-28T20:34:32.625Z</time></trkpt><trkpt lat="-36.7353621" lon="174.3974"><ele>92.42857142857143</ele><time>2026-03-28T20:34:35.626Z</time></trkpt><trkpt lat="-36.7354238" lon="174.3974179"><ele>93.14285714285714</ele><time>2026-03-28T20:34:37.626Z</time></trkpt><trkpt lat="-36.7354879" lon="174.3974413"><ele>93.85714285714286</ele><time>2026-03-28T20:34:39.625Z</time></trkpt><trkpt lat="-36.7355341" lon="174.3975003"><ele>94.57142857142857</ele><time>2026-03-28T20:34:41.626Z</time></trkpt><trkpt lat="-36.7356028" lon="174.3975767"><ele>95.28571428571428</ele><time>2026-03-28T20:34:43.626Z</time></trkpt><trkpt lat="-36.7356654" lon="174.3976438"><ele>96.0</ele><time>2026-03-28T20:34:45.626Z</time></trkpt><trkpt lat="-36.7357406" lon="174.3976598"><ele>96.0</ele><time>2026-03-28T20:34:48.624Z</time></trkpt><trkpt lat="-36.7357882" lon="174.3977438"><ele>96.0</ele><time>2026-03-28T20:34:51.625Z</time></trkpt><trkpt lat="-36.7358257" lon="174.3978122"><ele>96.0</ele><time>2026-03-28T20:34:53.626Z</time></trkpt><trkpt lat="-36.7358474" lon="174.397898"><ele>96.0</ele><time>2026-03-28T20:34:55.626Z</time></trkpt><trkpt lat="-36.7358204" lon="174.3979997"><ele>96.0</ele><time>2026-03-28T20:34:58.626Z</time></trkpt><trkpt lat="-36.7357843" lon="174.3980868"><ele>96.0</ele><time>2026-03-28T20:35:01.625Z</time></trkpt><trkpt lat="-36.7358062" lon="174.3981721"><ele>95.5</ele><time>2026-03-28T20:35:04.626Z</time></trkpt><trkpt lat="-36.7358406" lon="174.3982461"><ele>95.0</ele><time>2026-03-28T20:35:06.626Z</time></trkpt><trkpt lat="-36.7358705" lon="174.3983238"><ele>94.5</ele><time>2026-03-28T20:35:08.626Z</time></trkpt><trkpt lat="-36.7359286" lon="174.3983788"><ele>94.0</ele><time>2026-03-28T20:35:09.626Z</time></trkpt><trkpt lat="-36.7359963" lon="174.3984034"><ele>93.5</ele><time>2026-03-28T20:35:10.625Z</time></trkpt><trkpt lat="-36.736096" lon="174.3983945"><ele>93.0</ele><time>2026-03-28T20:35:12.626Z</time></trkpt><trkpt lat="-36.736147" lon="174.3982814"><ele>93.0</ele><time>2026-03-28T20:35:14.625Z</time></trkpt><trkpt lat="-36.7361934" lon="174.3981667"><ele>93.0</ele><time>2026-03-28T20:35:16.626Z</time></trkpt><trkpt lat="-36.7362118" lon="174.3980826"><ele>93.0</ele><time>2026-03-28T20:35:18.625Z</time></trkpt><trkpt lat="-36.7362507" lon="174.3980001"><ele>93.0</ele><time>2026-03-28T20:35:20.625Z</time></trkpt><trkpt lat="-36.7363429" lon="174.397954"><ele>93.0</ele><time>2026-03-28T20:35:22.626Z</time></trkpt><trkpt lat="-36.7364251" lon="174.3979179"><ele>93.0</ele><time>2026-03-28T20:35:23.626Z</time></trkpt><trkpt lat="-36.7365275" lon="174.3978867"><ele>93.0</ele><time>2026-03-28T20:35:24.625Z</time></trkpt><trkpt lat="-36.7365917" lon="174.3978585"><ele>93.0</ele><time>2026-03-28T20:35:25.626Z</time></trkpt><trkpt lat="-36.7366937" lon="174.397942"><ele>93.0</ele><time>2026-03-28T20:35:27.626Z</time></trkpt><trkpt lat="-36.7367116" lon="174.3980426"><ele>93.0</ele><time>2026-03-28T20:35:29.626Z</time></trkpt><trkpt lat="-36.7367381" lon="174.3979458"><ele>93.0</ele><time>2026-03-28T20:35:33.625Z</time></trkpt><trkpt lat="-36.7366438" lon="174.3978751"><ele>90.83333333333333</ele><time>2026-03-28T20:35:35.625Z</time></trkpt><trkpt lat="-36.7365419" lon="174.3978267"><ele>88.66666666666667</ele><time>2026-03-28T20:35:37.626Z</time></trkpt><trkpt lat="-36.7364801" lon="174.3977989"><ele>86.5</ele><time>2026-03-28T20:35:38.626Z</time></trkpt><trkpt lat="-36.7364716" lon="174.3977048"><ele>84.33333333333334</ele><time>2026-03-28T20:35:40.626Z</time></trkpt><trkpt lat="-36.736508" lon="174.3976039"><ele>82.16666666666667</ele><time>2026-03-28T20:35:42.626Z</time></trkpt><trkpt lat="-36.7365204" lon="174.3974828"><ele>80.0</ele><time>2026-03-28T20:35:44.625Z</time></trkpt><trkpt lat="-36.7365562" lon="174.3974108"><ele>80.0</ele><time>2026-03-28T20:35:46.626Z</time></trkpt><trkpt lat="-36.7365342" lon="174.3972929"><ele>80.0</ele><time>2026-03-28T20:35:48.626Z</time></trkpt><trkpt lat="-36.7364717" lon="174.3972099"><ele>80.0</ele><time>2026-03-28T20:35:51.626Z</time></trkpt><trkpt lat="-36.7364369" lon="174.397109"><ele>80.0</ele><time>2026-03-28T20:35:53.625Z</time></trkpt><trkpt lat="-36.7363975" lon="174.3970205"><ele>80.0</ele><time>2026-03-28T20:35:55.626Z</time></trkpt><trkpt lat="-36.7363387" lon="174.3969265"><ele>79.5</ele><time>2026-03-28T20:35:57.626Z</time></trkpt><trkpt lat="-36.7362872" lon="174.396794"><ele>79.0</ele><time>2026-03-28T20:35:59.626Z</time></trkpt><trkpt lat="-36.7362344" lon="174.3967418"><ele>78.5</ele><time>2026-03-28T20:36:01.626Z</time></trkpt><trkpt lat="-36.7361699" lon="174.3967068"><ele>78.0</ele><time>2026-03-28T20:36:02.625Z</time></trkpt><trkpt lat="-36.7361078" lon="174.3966355"><ele>77.5</ele><time>2026-03-28T20:36:04.626Z</time></trkpt><trkpt lat="-36.7360971" lon="174.3965486"><ele>77.0</ele><time>2026-03-28T20:36:05.625Z</time></trkpt><trkpt lat="-36.7360252" lon="174.3965168"><ele>77.0</ele><time>2026-03-28T20:36:07.626Z</time></trkpt><trkpt lat="-36.735963" lon="174.3964526"><ele>77.0</ele><time>2026-03-28T20:36:09.625Z</time></trkpt><trkpt lat="-36.7359092" lon="174.3963711"><ele>77.0</ele><time>2026-03-28T20:36:11.625Z</time></trkpt><trkpt lat="-36.7358469" lon="174.3962555"><ele>77.0</ele><time>2026-03-28T20:36:13.626Z</time></trkpt><trkpt lat="-36.7357793" lon="174.3961509"><ele>77.0</ele><time>2026-03-28T20:36:15.626Z</time></trkpt><trkpt lat="-36.7356967" lon="174.3960839"><ele>73.6</ele><time>2026-03-28T20:36:17.625Z</time></trkpt><trkpt lat="-36.7356083" lon="174.3959902"><ele>70.2</ele><time>2026-03-28T20:36:19.626Z</time></trkpt><trkpt lat="-36.7354846" lon="174.3958937"><ele>66.8</ele><time>2026-03-28T20:36:21.626Z</time></trkpt><trkpt lat="-36.7354124" lon="174.3957978"><ele>63.4</ele><time>2026-03-28T20:36:23.625Z</time></trkpt><trkpt lat="-36.7353542" lon="174.3957532"><ele>60.0</ele><time>2026-03-28T20:36:24.625Z</time></trkpt><trkpt lat="-36.7352957" lon="174.3957181"><ele>59.2</ele><time>2026-03-28T20:36:25.627Z</time></trkpt><trkpt lat="-36.7351965" lon="174.3956861"><ele>58.4</ele><time>2026-03-28T20:36:27.626Z</time></trkpt><trkpt lat="-36.7351248" lon="174.3956492"><ele>57.599999999999994</ele><time>2026-03-28T20:36:28.626Z</time></trkpt><trkpt lat="-36.7350575" lon="174.3955563"><ele>56.8</ele><time>2026-03-28T20:36:30.626Z</time></trkpt><trkpt lat="-36.7350258" lon="174.3954444"><ele>56.0</ele><time>2026-03-28T20:36:32.626Z</time></trkpt><trkpt lat="-36.7350755" lon="174.3953367"><ele>56.00000000000001</ele><time>2026-03-28T20:36:34.625Z</time></trkpt><trkpt lat="-36.7351435" lon="174.3952793"><ele>56.0</ele><time>2026-03-28T20:36:36.626Z</time></trkpt><trkpt lat="-36.7352194" lon="174.3952905"><ele>56.0</ele><time>2026-03-28T20:36:37.625Z</time></trkpt><trkpt lat="-36.7353153" lon="174.3953608"><ele>56.0</ele><time>2026-03-28T20:36:39.626Z</time></trkpt><trkpt lat="-36.7353873" lon="174.3953872"><ele>56.00000000000001</ele><time>2026-03-28T20:36:40.625Z</time></trkpt><trkpt lat="-36.7354292" lon="174.3954615"><ele>56.0</ele><time>2026-03-28T20:36:42.625Z</time></trkpt><trkpt lat="-36.7354833" lon="174.3954071"><ele>56.0</ele><time>2026-03-28T20:36:44.625Z</time></trkpt><trkpt lat="-36.7354491" lon="174.3952724"><ele>55.99999999999999</ele><time>2026-03-28T20:36:46.626Z</time></trkpt><trkpt lat="-36.7353828" lon="174.3951665"><ele>55.99999999999999</ele><time>2026-03-28T20:36:48.626Z</time></trkpt><trkpt lat="-36.7353292" lon="174.3950962"><ele>56.0</ele><time>2026-03-28T20:36:49.626Z</time></trkpt><trkpt lat="-36.7352708" lon="174.3949536"><ele>56.0</ele><time>2026-03-28T20:36:51.626Z</time></trkpt><trkpt lat="-36.7351793" lon="174.3949014"><ele>56.0</ele><time>2026-03-28T20:36:53.626Z</time></trkpt><trkpt lat="-36.7350378" lon="174.3948869"><ele>56.0</ele><time>2026-03-28T20:36:55.626Z</time></trkpt><trkpt lat="-36.7349611" lon="174.3947823"><ele>56.0</ele><time>2026-03-28T20:36:57.626Z</time></trkpt><trkpt lat="-36.7349961" lon="174.3946575"><ele>56.0</ele><time>2026-03-28T20:36:59.625Z</time></trkpt><trkpt lat="-36.73499" lon="174.3945242"><ele>54.199999999999996</ele><time>2026-03-28T20:37:01.626Z</time></trkpt><trkpt lat="-36.7349445" lon="174.3943843"><ele>52.39999999999999</ele><time>2026-03-28T20:37:03.626Z</time></trkpt><trkpt lat="-36.7349115" lon="174.3943112"><ele>50.6</ele><time>2026-03-28T20:37:04.626Z</time></trkpt><trkpt lat="-36.7349284" lon="174.3941854"><ele>48.8</ele><time>2026-03-28T20:37:06.626Z</time></trkpt><trkpt lat="-36.7349629" lon="174.3941177"><ele>47.0</ele><time>2026-03-28T20:37:07.625Z</time></trkpt><trkpt lat="-36.7350375" lon="174.3939694"><ele>47.0</ele><time>2026-03-28T20:37:09.626Z</time></trkpt><trkpt lat="-36.735056" lon="174.3938411"><ele>47.0</ele><time>2026-03-28T20:37:11.626Z</time></trkpt><trkpt lat="-36.7350363" lon="174.3937176"><ele>47.0</ele><time>2026-03-28T20:37:13.626Z</time></trkpt><trkpt lat="-36.7349693" lon="174.3936247"><ele>47.0</ele><time>2026-03-28T20:37:15.625Z</time></trkpt><trkpt lat="-36.7348533" lon="174.3935499"><ele>47.0</ele><time>2026-03-28T20:37:17.624Z</time></trkpt><trkpt lat="-36.7348001" lon="174.3934893"><ele>45.2</ele><time>2026-03-28T20:37:18.626Z</time></trkpt><trkpt lat="-36.7347148" lon="174.3933653"><ele>43.400000000000006</ele><time>2026-03-28T20:37:20.626Z</time></trkpt><trkpt lat="-36.7346712" lon="174.3932668"><ele>41.599999999999994</ele><time>2026-03-28T20:37:22.626Z</time></trkpt><trkpt lat="-36.734607" lon="174.3932299"><ele>39.8</ele><time>2026-03-28T20:37:24.626Z</time></trkpt><trkpt lat="-36.7345638" lon="174.3931675"><ele>38.0</ele><time>2026-03-28T20:37:26.626Z</time></trkpt><trkpt lat="-36.7345085" lon="174.3930675"><ele>38.0</ele><time>2026-03-28T20:37:29.624Z</time></trkpt><trkpt lat="-36.7344361" lon="174.3930625"><ele>38.0</ele><time>2026-03-28T20:37:30.626Z</time></trkpt><trkpt lat="-36.7343586" lon="174.3930848"><ele>38.0</ele><time>2026-03-28T20:37:31.626Z</time></trkpt><trkpt lat="-36.7342605" lon="174.393104"><ele>38.0</ele><time>2026-03-28T20:37:33.625Z</time></trkpt><trkpt lat="-36.7341863" lon="174.393037"><ele>38.0</ele><time>2026-03-28T20:37:35.625Z</time></trkpt><trkpt lat="-36.7341262" lon="174.3929089"><ele>36.4</ele><time>2026-03-28T20:37:37.626Z</time></trkpt><trkpt lat="-36.734091" lon="174.3928216"><ele>34.8</ele><time>2026-03-28T20:37:39.625Z</time></trkpt><trkpt lat="-36.7341685" lon="174.3927134"><ele>33.2</ele><time>2026-03-28T20:37:41.626Z</time></trkpt><trkpt lat="-36.7342697" lon="174.3926315"><ele>31.6</ele><time>2026-03-28T20:37:43.626Z</time></trkpt><trkpt lat="-36.7343245" lon="174.3925032"><ele>30.0</ele><time>2026-03-28T20:37:45.626Z</time></trkpt><trkpt lat="-36.7342855" lon="174.3924249"><ele>30.0</ele><time>2026-03-28T20:37:46.626Z</time></trkpt><trkpt lat="-36.7342277" lon="174.392332"><ele>30.0</ele><time>2026-03-28T20:37:48.626Z</time></trkpt><trkpt lat="-36.7341357" lon="174.3922041"><ele>30.0</ele><time>2026-03-28T20:37:50.624Z</time></trkpt><trkpt lat="-36.734069" lon="174.3921446"><ele>30.0</ele><time>2026-03-28T20:37:51.625Z</time></trkpt><trkpt lat="-36.7340001" lon="174.3921574"><ele>30.0</ele><time>2026-03-28T20:37:52.626Z</time></trkpt><trkpt lat="-36.7339386" lon="174.3921212"><ele>29.166666666666668</ele><time>2026-03-28T20:37:53.626Z</time></trkpt><trkpt lat="-36.7338535" lon="174.3921138"><ele>28.333333333333336</ele><time>2026-03-28T20:37:55.626Z</time></trkpt><trkpt lat="-36.7337399" lon="174.3921364"><ele>27.5</ele><time>2026-03-28T20:37:57.626Z</time></trkpt><trkpt lat="-36.7336599" lon="174.3921264"><ele>26.666666666666668</ele><time>2026-03-28T20:37:58.624Z</time></trkpt><trkpt lat="-36.7335925" lon="174.3920923"><ele>25.833333333333336</ele><time>2026-03-28T20:37:59.626Z</time></trkpt><trkpt lat="-36.7335453" lon="174.3920383"><ele>25.0</ele><time>2026-03-28T20:38:00.626Z</time></trkpt><trkpt lat="-36.7335114" lon="174.3919626"><ele>24.6</ele><time>2026-03-28T20:38:01.625Z</time></trkpt><trkpt lat="-36.7334353" lon="174.3918472"><ele>24.2</ele><time>2026-03-28T20:38:03.625Z</time></trkpt><trkpt lat="-36.7333745" lon="174.3917436"><ele>23.799999999999997</ele><time>2026-03-28T20:38:05.626Z</time></trkpt><trkpt lat="-36.7333728" lon="174.3916295"><ele>23.4</ele><time>2026-03-28T20:38:07.626Z</time></trkpt><trkpt lat="-36.7333781" lon="174.3915226"><ele>23.0</ele><time>2026-03-28T20:38:09.625Z</time></trkpt><trkpt lat="-36.7333527" lon="174.3914185"><ele>23.666666666666668</ele><time>2026-03-28T20:38:11.625Z</time></trkpt><trkpt lat="-36.7332992" lon="174.3913342"><ele>24.333333333333336</ele><time>2026-03-28T20:38:13.625Z</time></trkpt><trkpt lat="-36.7332498" lon="174.3912363"><ele>25.0</ele><time>2026-03-28T20:38:15.626Z</time></trkpt><trkpt lat="-36.7331955" lon="174.3911505"><ele>25.666666666666668</ele><time>2026-03-28T20:38:17.625Z</time></trkpt><trkpt lat="-36.7331354" lon="174.3910975"><ele>26.333333333333332</ele><time>2026-03-28T20:38:19.627Z</time></trkpt><trkpt lat="-36.7330678" lon="174.3910476"><ele>27.0</ele><time>2026-03-28T20:38:21.625Z</time></trkpt><trkpt lat="-36.7330237" lon="174.3909871"><ele>27.0</ele><time>2026-03-28T20:38:23.627Z</time></trkpt><trkpt lat="-36.7329428" lon="174.3909178"><ele>27.0</ele><time>2026-03-28T20:38:26.625Z</time></trkpt><trkpt lat="-36.7328714" lon="174.3908852"><ele>27.0</ele><time>2026-03-28T20:38:28.626Z</time></trkpt><trkpt lat="-36.7328089" lon="174.3908532"><ele>27.0</ele><time>2026-03-28T20:38:30.626Z</time></trkpt><trkpt lat="-36.732751" lon="174.3908119"><ele>27.0</ele><time>2026-03-28T20:38:32.627Z</time></trkpt><trkpt lat="-36.7326854" lon="174.3908216"><ele>27.0</ele><time>2026-03-28T20:38:34.626Z</time></trkpt><trkpt lat="-36.7326304" lon="174.3908756"><ele>27.0</ele><time>2026-03-28T20:38:36.626Z</time></trkpt><trkpt lat="-36.7325841" lon="174.3909419"><ele>27.0</ele><time>2026-03-28T20:38:38.626Z</time></trkpt><trkpt lat="-36.7325456" lon="174.3910052"><ele>27.0</ele><time>2026-03-28T20:38:40.627Z</time></trkpt><trkpt lat="-36.7325012" lon="174.3910948"><ele>27.0</ele><time>2026-03-28T20:38:43.624Z</time></trkpt><trkpt lat="-36.7324681" lon="174.3911731"><ele>27.0</ele><time>2026-03-28T20:38:46.626Z</time></trkpt><trkpt lat="-36.7324264" lon="174.391239"><ele>27.0</ele><time>2026-03-28T20:38:49.625Z</time></trkpt><trkpt lat="-36.7324003" lon="174.3913177"><ele>27.0</ele><time>2026-03-28T20:40:17.626Z</time></trkpt><trkpt lat="-36.7323369" lon="174.3913731"><ele>27.0</ele><time>2026-03-28T20:40:20.627Z</time></trkpt><trkpt lat="-36.7322771" lon="174.3914249"><ele>27.0</ele><time>2026-03-28T20:40:22.626Z</time></trkpt><trkpt lat="-36.7322091" lon="174.3914772"><ele>27.000000000000004</ele><time>2026-03-28T20:40:24.626Z</time></trkpt><trkpt lat="-36.7321254" lon="174.3914896"><ele>27.000000000000004</ele><time>2026-03-28T20:40:26.626Z</time></trkpt><trkpt lat="-36.7320301" lon="174.3914975"><ele>27.0</ele><time>2026-03-28T20:40:28.626Z</time></trkpt><trkpt lat="-36.7319022" lon="174.3915068"><ele>27.0</ele><time>2026-03-28T20:40:30.625Z</time></trkpt><trkpt lat="-36.7317981" lon="174.3914978"><ele>27.666666666666668</ele><time>2026-03-28T20:40:33.625Z</time></trkpt><trkpt lat="-36.7317178" lon="174.3914969"><ele>28.333333333333336</ele><time>2026-03-28T20:40:35.625Z</time></trkpt><trkpt lat="-36.73164" lon="174.3915253"><ele>29.0</ele><time>2026-03-28T20:40:37.625Z</time></trkpt><trkpt lat="-36.7315666" lon="174.3915564"><ele>29.666666666666668</ele><time>2026-03-28T20:40:39.625Z</time></trkpt><trkpt lat="-36.7315093" lon="174.3916191"><ele>30.333333333333336</ele><time>2026-03-28T20:40:41.627Z</time></trkpt><trkpt lat="-36.7315389" lon="174.3916905"><ele>31.0</ele><time>2026-03-28T20:40:44.626Z</time></trkpt><trkpt lat="-36.7315643" lon="174.3917755"><ele>31.0</ele><time>2026-03-28T20:40:47.626Z</time></trkpt><trkpt lat="-36.7315142" lon="174.3918294"><ele>31.000000000000004</ele><time>2026-03-28T20:40:50.626Z</time></trkpt><trkpt lat="-36.7314718" lon="174.391903"><ele>31.0</ele><time>2026-03-28T20:40:52.627Z</time></trkpt><trkpt lat="-36.7314253" lon="174.3919631"><ele>31.0</ele><time>2026-03-28T20:40:54.625Z</time></trkpt><trkpt lat="-36.7313385" lon="174.391972"><ele>31.000000000000004</ele><time>2026-03-28T20:40:57.625Z</time></trkpt><trkpt lat="-36.7312718" lon="174.3919099"><ele>31.0</ele><time>2026-03-28T20:40:59.625Z</time></trkpt><trkpt lat="-36.7312129" lon="174.391864"><ele>31.0</ele><time>2026-03-28T20:41:00.626Z</time></trkpt><trkpt lat="-36.7311351" lon="174.391817"><ele>31.000000000000004</ele><time>2026-03-28T20:41:02.626Z</time></trkpt><trkpt lat="-36.7310635" lon="174.391794"><ele>31.0</ele><time>2026-03-28T20:41:04.626Z</time></trkpt><trkpt lat="-36.7309947" lon="174.3918256"><ele>31.0</ele><time>2026-03-28T20:41:06.626Z</time></trkpt><trkpt lat="-36.7309621" lon="174.391925"><ele>31.0</ele><time>2026-03-28T20:41:09.626Z</time></trkpt><trkpt lat="-36.7309767" lon="174.3920135"><ele>31.000000000000004</ele><time>2026-03-28T20:41:12.626Z</time></trkpt><trkpt lat="-36.7309609" lon="174.392128"><ele>31.0</ele><time>2026-03-28T20:41:15.625Z</time></trkpt><trkpt lat="-36.7309456" lon="174.3922341"><ele>31.500000000000004</ele><time>2026-03-28T20:41:18.626Z</time></trkpt><trkpt lat="-36.7309457" lon="174.3923535"><ele>32.0</ele><time>2026-03-28T20:41:21.625Z</time></trkpt><trkpt lat="-36.7308699" lon="174.3923526"><ele>32.5</ele><time>2026-03-28T20:41:26.625Z</time></trkpt><trkpt lat="-36.7308525" lon="174.392277"><ele>33.0</ele><time>2026-03-28T20:41:28.624Z</time></trkpt><trkpt lat="-36.7308334" lon="174.3921669"><ele>33.5</ele><time>2026-03-28T20:41:31.626Z</time></trkpt><trkpt lat="-36.7308098" lon="174.392088"><ele>34.0</ele><time>2026-03-28T20:41:34.625Z</time></trkpt><trkpt lat="-36.7307489" lon="174.392028"><ele>33.99999999999999</ele><time>2026-03-28T20:41:37.625Z</time></trkpt><trkpt lat="-36.7306836" lon="174.3919974"><ele>34.0</ele><time>2026-03-28T20:41:39.626Z</time></trkpt><trkpt lat="-36.7306168" lon="174.392001"><ele>34.0</ele><time>2026-03-28T20:41:41.626Z</time></trkpt><trkpt lat="-36.7305439" lon="174.3920211"><ele>34.0</ele><time>2026-03-28T20:41:43.626Z</time></trkpt><trkpt lat="-36.7304544" lon="174.3920093"><ele>34.0</ele><time>2026-03-28T20:41:46.624Z</time></trkpt><trkpt lat="-36.7303899" lon="174.3920114"><ele>33.99999999999999</ele><time>2026-03-28T20:41:48.627Z</time></trkpt><trkpt lat="-36.7304661" lon="174.3920464"><ele>34.0</ele><time>2026-03-28T20:41:53.626Z</time></trkpt><trkpt lat="-36.7305352" lon="174.3920531"><ele>34.0</ele><time>2026-03-28T20:41:55.626Z</time></trkpt><trkpt lat="-36.7306071" lon="174.3920936"><ele>34.0</ele><time>2026-03-28T20:41:57.625Z</time></trkpt><trkpt lat="-36.7306747" lon="174.3921639"><ele>34.0</ele><time>2026-03-28T20:42:00.625Z</time></trkpt><trkpt lat="-36.7306701" lon="174.3922432"><ele>34.0</ele><time>2026-03-28T20:42:03.624Z</time></trkpt><trkpt lat="-36.7306021" lon="174.3922646"><ele>34.0</ele><time>2026-03-28T20:42:06.625Z</time></trkpt><trkpt lat="-36.7305173" lon="174.3922493"><ele>34.0</ele><time>2026-03-28T20:42:10.626Z</time></trkpt><trkpt lat="-36.7304459" lon="174.3922464"><ele>34.0</ele><time>2026-03-28T20:42:12.626Z</time></trkpt><trkpt lat="-36.7303719" lon="174.3922548"><ele>34.0</ele><time>2026-03-28T20:42:14.625Z</time></trkpt><trkpt lat="-36.7302883" lon="174.392217"><ele>34.0</ele><time>2026-03-28T20:42:17.626Z</time></trkpt><trkpt lat="-36.7302313" lon="174.3921529"><ele>34.0</ele><time>2026-03-28T20:42:19.625Z</time></trkpt><trkpt lat="-36.7301475" lon="174.3921028"><ele>34.0</ele><time>2026-03-28T20:42:22.626Z</time></trkpt><trkpt lat="-36.7300796" lon="174.3920226"><ele>34.0</ele><time>2026-03-28T20:42:25.625Z</time></trkpt><trkpt lat="-36.7300265" lon="174.3919164"><ele>36.4</ele><time>2026-03-28T20:42:27.625Z</time></trkpt><trkpt lat="-36.7299579" lon="174.3918154"><ele>38.8</ele><time>2026-03-28T20:42:29.625Z</time></trkpt><trkpt lat="-36.7299145" lon="174.3917282"><ele>41.199999999999996</ele><time>2026-03-28T20:42:31.626Z</time></trkpt><trkpt lat="-36.7298482" lon="174.3916841"><ele>43.599999999999994</ele><time>2026-03-28T20:42:33.625Z</time></trkpt><trkpt lat="-36.7297535" lon="174.3916481"><ele>46.0</ele><time>2026-03-28T20:42:35.626Z</time></trkpt><trkpt lat="-36.7296645" lon="174.391585"><ele>46.0</ele><time>2026-03-28T20:42:37.626Z</time></trkpt><trkpt lat="-36.7295682" lon="174.391541"><ele>46.0</ele><time>2026-03-28T20:42:39.625Z</time></trkpt><trkpt lat="-36.729497" lon="174.3914972"><ele>46.0</ele><time>2026-03-28T20:42:41.624Z</time></trkpt><trkpt lat="-36.7294223" lon="174.3914263"><ele>46.0</ele><time>2026-03-28T20:42:43.626Z</time></trkpt><trkpt lat="-36.7293621" lon="174.3913615"><ele>46.0</ele><time>2026-03-28T20:42:45.626Z</time></trkpt><trkpt lat="-36.7293062" lon="174.3912879"><ele>46.0</ele><time>2026-03-28T20:42:47.626Z</time></trkpt><trkpt lat="-36.7292439" lon="174.3912061"><ele>45.0</ele><time>2026-03-28T20:42:49.626Z</time></trkpt><trkpt lat="-36.7291778" lon="174.391106"><ele>44.0</ele><time>2026-03-28T20:42:51.626Z</time></trkpt><trkpt lat="-36.7291173" lon="174.3910359"><ele>43.0</ele><time>2026-03-28T20:42:53.626Z</time></trkpt><trkpt lat="-36.7290497" lon="174.390954"><ele>42.0</ele><time>2026-03-28T20:42:55.626Z</time></trkpt><trkpt lat="-36.7289864" lon="174.3908758"><ele>41.0</ele><time>2026-03-28T20:42:57.626Z</time></trkpt><trkpt lat="-36.7289306" lon="174.3908073"><ele>40.0</ele><time>2026-03-28T20:42:59.625Z</time></trkpt><trkpt lat="-36.7288408" lon="174.3907305"><ele>40.0</ele><time>2026-03-28T20:43:01.625Z</time></trkpt><trkpt lat="-36.7287528" lon="174.3907154"><ele>40.0</ele><time>2026-03-28T20:43:03.626Z</time></trkpt><trkpt lat="-36.7286678" lon="174.3907116"><ele>40.0</ele><time>2026-03-28T20:43:05.627Z</time></trkpt><trkpt lat="-36.7286079" lon="174.3907447"><ele>40.0</ele><time>2026-03-28T20:43:07.625Z</time></trkpt><trkpt lat="-36.7285424" lon="174.390805"><ele>40.0</ele><time>2026-03-28T20:43:09.626Z</time></trkpt><trkpt lat="-36.7284996" lon="174.3908713"><ele>40.0</ele><time>2026-03-28T20:43:11.626Z</time></trkpt><trkpt lat="-36.7284813" lon="174.3909483"><ele>42.16666666666667</ele><time>2026-03-28T20:43:16.626Z</time></trkpt><trkpt lat="-36.7284442" lon="174.3908802"><ele>44.333333333333336</ele><time>2026-03-28T20:43:19.626Z</time></trkpt><trkpt lat="-36.7283725" lon="174.3908242"><ele>46.5</ele><time>2026-03-28T20:43:22.626Z</time></trkpt><trkpt lat="-36.7283112" lon="174.3907856"><ele>48.66666666666667</ele><time>2026-03-28T20:43:25.626Z</time></trkpt><trkpt lat="-36.7282238" lon="174.3907506"><ele>50.833333333333336</ele><time>2026-03-28T20:43:28.625Z</time></trkpt><trkpt lat="-36.7281567" lon="174.3907328"><ele>53.0</ele><time>2026-03-28T20:43:30.626Z</time></trkpt><trkpt lat="-36.7280636" lon="174.3907352"><ele>53.00000000000001</ele><time>2026-03-28T20:43:33.626Z</time></trkpt><trkpt lat="-36.7280003" lon="174.3907278"><ele>53.0</ele><time>2026-03-28T20:43:35.626Z</time></trkpt><trkpt lat="-36.7279111" lon="174.3907127"><ele>53.0</ele><time>2026-03-28T20:43:38.626Z</time></trkpt><trkpt lat="-36.7278382" lon="174.3906709"><ele>53.0</ele><time>2026-03-28T20:43:42.626Z</time></trkpt><trkpt lat="-36.7278808" lon="174.3907505"><ele>53.00000000000001</ele><time>2026-03-28T20:43:48.626Z</time></trkpt><trkpt lat="-36.7279078" lon="174.3908258"><ele>53.0</ele><time>2026-03-28T20:43:51.624Z</time></trkpt><trkpt lat="-36.7278415" lon="174.3908747"><ele>53.0</ele><time>2026-03-28T20:43:55.626Z</time></trkpt><trkpt lat="-36.7277885" lon="174.3908146"><ele>53.0</ele><time>2026-03-28T20:43:59.626Z</time></trkpt><trkpt lat="-36.7277602" lon="174.3908887"><ele>53.0</ele><time>2026-03-28T20:44:09.626Z</time></trkpt><trkpt lat="-36.7277052" lon="174.3909414"><ele>53.0</ele><time>2026-03-28T20:44:13.626Z</time></trkpt><trkpt lat="-36.7276482" lon="174.3909953"><ele>53.0</ele><time>2026-03-28T20:44:17.626Z</time></trkpt><trkpt lat="-36.7275651" lon="174.3910514"><ele>53.0</ele><time>2026-03-28T20:44:21.625Z</time></trkpt><trkpt lat="-36.7274979" lon="174.3910838"><ele>53.0</ele><time>2026-03-28T20:44:24.627Z</time></trkpt><trkpt lat="-36.7275205" lon="174.39116"><ele>54.00000000000001</ele><time>2026-03-28T20:44:29.626Z</time></trkpt><trkpt lat="-36.727599" lon="174.3912018"><ele>55.0</ele><time>2026-03-28T20:44:34.627Z</time></trkpt><trkpt lat="-36.7276423" lon="174.3912835"><ele>56.0</ele><time>2026-03-28T20:44:38.626Z</time></trkpt><trkpt lat="-36.7276567" lon="174.3913815"><ele>57.0</ele><time>2026-03-28T20:44:41.626Z</time></trkpt><trkpt lat="-36.7276663" lon="174.3914774"><ele>58.00000000000001</ele><time>2026-03-28T20:44:44.626Z</time></trkpt><trkpt lat="-36.7276718" lon="174.3915573"><ele>59.0</ele><time>2026-03-28T20:44:46.625Z</time></trkpt><trkpt lat="-36.7276811" lon="174.3916683"><ele>60.42857142857143</ele><time>2026-03-28T20:44:49.626Z</time></trkpt><trkpt lat="-36.7276869" lon="174.3917624"><ele>61.85714285714286</ele><time>2026-03-28T20:44:52.626Z</time></trkpt><trkpt lat="-36.727713" lon="174.3918511"><ele>63.28571428571429</ele><time>2026-03-28T20:44:55.625Z</time></trkpt><trkpt lat="-36.7277237" lon="174.3919347"><ele>64.71428571428572</ele><time>2026-03-28T20:44:58.626Z</time></trkpt><trkpt lat="-36.7277364" lon="174.3920273"><ele>66.14285714285715</ele><time>2026-03-28T20:45:01.626Z</time></trkpt><trkpt lat="-36.7277474" lon="174.3921109"><ele>67.57142857142857</ele><time>2026-03-28T20:45:04.626Z</time></trkpt><trkpt lat="-36.727743" lon="174.3922169"><ele>69.0</ele><time>2026-03-28T20:45:08.625Z</time></trkpt><trkpt lat="-36.7277467" lon="174.3923065"><ele>69.71428571428572</ele><time>2026-03-28T20:45:11.626Z</time></trkpt><trkpt lat="-36.7277251" lon="174.3923848"><ele>70.42857142857143</ele><time>2026-03-28T20:45:16.626Z</time></trkpt><trkpt lat="-36.7277002" lon="174.3924576"><ele>71.14285714285714</ele><time>2026-03-28T20:45:19.625Z</time></trkpt><trkpt lat="-36.7276886" lon="174.392548"><ele>71.85714285714286</ele><time>2026-03-28T20:45:23.625Z</time></trkpt><trkpt lat="-36.7276267" lon="174.3925999"><ele>72.57142857142857</ele><time>2026-03-28T20:45:26.626Z</time></trkpt><trkpt lat="-36.7275455" lon="174.392612"><ele>73.28571428571429</ele><time>2026-03-28T20:45:30.625Z</time></trkpt><trkpt lat="-36.727488" lon="174.3926577"><ele>74.0</ele><time>2026-03-28T20:45:34.625Z</time></trkpt><trkpt lat="-36.7274361" lon="174.3927114"><ele>74.0</ele><time>2026-03-28T20:45:38.626Z</time></trkpt><trkpt lat="-36.727418" lon="174.3927927"><ele>74.0</ele><time>2026-03-28T20:45:42.626Z</time></trkpt><trkpt lat="-36.7274598" lon="174.3928808"><ele>74.0</ele><time>2026-03-28T20:45:47.626Z</time></trkpt><trkpt lat="-36.7274296" lon="174.3929807"><ele>74.0</ele><time>2026-03-28T20:45:52.625Z</time></trkpt><trkpt lat="-36.7273723" lon="174.3930483"><ele>74.0</ele><time>2026-03-28T20:45:55.625Z</time></trkpt><trkpt lat="-36.7273729" lon="174.3931554"><ele>74.0</ele><time>2026-03-28T20:45:58.624Z</time></trkpt><trkpt lat="-36.7273315" lon="174.3932304"><ele>74.66666666666667</ele><time>2026-03-28T20:46:01.626Z</time></trkpt><trkpt lat="-36.7272903" lon="174.393298"><ele>75.33333333333334</ele><time>2026-03-28T20:46:04.626Z</time></trkpt><trkpt lat="-36.7272035" lon="174.3933148"><ele>76.0</ele><time>2026-03-28T20:46:07.626Z</time></trkpt><trkpt lat="-36.727185" lon="174.3934039"><ele>76.66666666666667</ele><time>2026-03-28T20:46:10.625Z</time></trkpt><trkpt lat="-36.7271762" lon="174.3934996"><ele>77.33333333333333</ele><time>2026-03-28T20:46:14.626Z</time></trkpt><trkpt lat="-36.7271847" lon="174.3936179"><ele>78.0</ele><time>2026-03-28T20:46:18.625Z</time></trkpt><trkpt lat="-36.7271472" lon="174.3937217"><ele>78.0</ele><time>2026-03-28T20:46:20.626Z</time></trkpt><trkpt lat="-36.7271023" lon="174.3938008"><ele>78.0</ele><time>2026-03-28T20:46:22.626Z</time></trkpt><trkpt lat="-36.7271065" lon="174.3939111"><ele>78.0</ele><time>2026-03-28T20:46:25.625Z</time></trkpt><trkpt lat="-36.7270966" lon="174.3940089"><ele>78.0</ele><time>2026-03-28T20:46:27.627Z</time></trkpt><trkpt lat="-36.7270832" lon="174.3940877"><ele>78.0</ele><time>2026-03-28T20:46:29.626Z</time></trkpt><trkpt lat="-36.7270492" lon="174.3941687"><ele>78.0</ele><time>2026-03-28T20:46:32.626Z</time></trkpt><trkpt lat="-36.7270202" lon="174.3942502"><ele>78.0</ele><time>2026-03-28T20:46:35.626Z</time></trkpt><trkpt lat="-36.7270384" lon="174.3943461"><ele>78.0</ele><time>2026-03-28T20:46:38.626Z</time></trkpt><trkpt lat="-36.727058" lon="174.3944391"><ele>78.0</ele><time>2026-03-28T20:46:41.624Z</time></trkpt><trkpt lat="-36.7270146" lon="174.3944978"><ele>78.0</ele><time>2026-03-28T20:46:43.624Z</time></trkpt><trkpt lat="-36.7269603" lon="174.3944556"><ele>78.0</ele><time>2026-03-28T20:46:45.625Z</time></trkpt><trkpt lat="-36.7269144" lon="174.3943824"><ele>78.0</ele><time>2026-03-28T20:46:47.625Z</time></trkpt><trkpt lat="-36.7269153" lon="174.3942819"><ele>78.0</ele><time>2026-03-28T20:46:50.626Z</time></trkpt><trkpt lat="-36.7268833" lon="174.3941957"><ele>78.0</ele><time>2026-03-28T20:46:54.625Z</time></trkpt><trkpt lat="-36.7268727" lon="174.3942815"><ele>78.0</ele><time>2026-03-28T20:47:01.626Z</time></trkpt><trkpt lat="-36.7268955" lon="174.3943759"><ele>78.0</ele><time>2026-03-28T20:47:03.626Z</time></trkpt><trkpt lat="-36.7269071" lon="174.3944715"><ele>78.0</ele><time>2026-03-28T20:47:05.625Z</time></trkpt><trkpt lat="-36.7269123" lon="174.3945541"><ele>78.0</ele><time>2026-03-28T20:47:07.626Z</time></trkpt><trkpt lat="-36.7269049" lon="174.3946369"><ele>78.0</ele><time>2026-03-28T20:47:09.625Z</time></trkpt><trkpt lat="-36.7268594" lon="174.3947353"><ele>80.4</ele><time>2026-03-28T20:47:12.624Z</time></trkpt><trkpt lat="-36.7267837" lon="174.3948042"><ele>82.8</ele><time>2026-03-28T20:47:14.625Z</time></trkpt><trkpt lat="-36.7267102" lon="174.3948685"><ele>85.2</ele><time>2026-03-28T20:47:16.626Z</time></trkpt><trkpt lat="-36.7265809" lon="174.39494"><ele>87.6</ele><time>2026-03-28T20:47:18.626Z</time></trkpt><trkpt lat="-36.7264797" lon="174.3949665"><ele>90.0</ele><time>2026-03-28T20:47:20.626Z</time></trkpt><trkpt lat="-36.7264009" lon="174.3950169"><ele>90.0</ele><time>2026-03-28T20:47:22.626Z</time></trkpt><trkpt lat="-36.7263265" lon="174.3950767"><ele>90.0</ele><time>2026-03-28T20:47:24.625Z</time></trkpt><trkpt lat="-36.7263037" lon="174.3951594"><ele>90.0</ele><time>2026-03-28T20:47:26.626Z</time></trkpt><trkpt lat="-36.7263013" lon="174.3952452"><ele>90.0</ele><time>2026-03-28T20:47:28.624Z</time></trkpt><trkpt lat="-36.7262995" lon="174.3953268"><ele>90.0</ele><time>2026-03-28T20:47:30.625Z</time></trkpt><trkpt lat="-36.7262617" lon="174.3954308"><ele>90.0</ele><time>2026-03-28T20:47:33.626Z</time></trkpt><trkpt lat="-36.7261966" lon="174.3954841"><ele>90.66666666666667</ele><time>2026-03-28T20:47:35.625Z</time></trkpt><trkpt lat="-36.7261363" lon="174.3955441"><ele>91.33333333333333</ele><time>2026-03-28T20:47:37.627Z</time></trkpt><trkpt lat="-36.7260675" lon="174.3955913"><ele>92.0</ele><time>2026-03-28T20:47:39.625Z</time></trkpt><trkpt lat="-36.725995" lon="174.39566"><ele>92.66666666666666</ele><time>2026-03-28T20:47:42.625Z</time></trkpt><trkpt lat="-36.7259473" lon="174.3957154"><ele>93.33333333333333</ele><time>2026-03-28T20:47:44.625Z</time></trkpt><trkpt lat="-36.7258891" lon="174.3957838"><ele>94.0</ele><time>2026-03-28T20:47:46.625Z</time></trkpt><trkpt lat="-36.7258504" lon="174.3958777"><ele>95.42857142857143</ele><time>2026-03-28T20:47:48.626Z</time></trkpt><trkpt lat="-36.7258172" lon="174.3959668"><ele>96.85714285714286</ele><time>2026-03-28T20:47:50.626Z</time></trkpt><trkpt lat="-36.725792" lon="174.396056"><ele>98.28571428571428</ele><time>2026-03-28T20:47:53.626Z</time></trkpt><trkpt lat="-36.7257767" lon="174.3961327"><ele>99.71428571428572</ele><time>2026-03-28T20:47:55.626Z</time></trkpt><trkpt lat="-36.7257476" lon="174.3962048"><ele>101.14285714285715</ele><time>2026-03-28T20:47:59.626Z</time></trkpt><trkpt lat="-36.7257357" lon="174.3961164"><ele>102.57142857142857</ele><time>2026-03-28T20:48:02.626Z</time></trkpt><trkpt lat="-36.7257023" lon="174.3960093"><ele>104.0</ele><time>2026-03-28T20:48:05.625Z</time></trkpt><trkpt lat="-36.7256515" lon="174.3959396"><ele>103.99999999999999</ele><time>2026-03-28T20:48:08.624Z</time></trkpt><trkpt lat="-36.7256294" lon="174.3958448"><ele>104.0</ele><time>2026-03-28T20:48:12.627Z</time></trkpt><trkpt lat="-36.7256541" lon="174.39575"><ele>104.0</ele><time>2026-03-28T20:48:16.625Z</time></trkpt><trkpt lat="-36.7256414" lon="174.3956583"><ele>104.0</ele><time>2026-03-28T20:48:19.625Z</time></trkpt><trkpt lat="-36.7256386" lon="174.3955513"><ele>103.99999999999999</ele><time>2026-03-28T20:48:22.625Z</time></trkpt><trkpt lat="-36.7256745" lon="174.3954621"><ele>104.0</ele><time>2026-03-28T20:48:24.626Z</time></trkpt><trkpt lat="-36.7257097" lon="174.3953719"><ele>104.16666666666666</ele><time>2026-03-28T20:48:26.626Z</time></trkpt><trkpt lat="-36.7257529" lon="174.3952906"><ele>104.33333333333333</ele><time>2026-03-28T20:48:28.625Z</time></trkpt><trkpt lat="-36.7257971" lon="174.3952229"><ele>104.5</ele><time>2026-03-28T20:48:30.626Z</time></trkpt><trkpt lat="-36.7258198" lon="174.3951324"><ele>104.66666666666666</ele><time>2026-03-28T20:48:32.625Z</time></trkpt><trkpt lat="-36.7258593" lon="174.3950386"><ele>104.83333333333333</ele><time>2026-03-28T20:48:34.625Z</time></trkpt><trkpt lat="-36.7258912" lon="174.3949401"><ele>105.0</ele><time>2026-03-28T20:48:36.625Z</time></trkpt><trkpt lat="-36.725911" lon="174.394848"><ele>105.0</ele><time>2026-03-28T20:48:38.625Z</time></trkpt><trkpt lat="-36.7259135" lon="174.3947582"><ele>105.0</ele><time>2026-03-28T20:48:40.627Z</time></trkpt><trkpt lat="-36.7259172" lon="174.3946597"><ele>105.0</ele><time>2026-03-28T20:48:42.626Z</time></trkpt><trkpt lat="-36.7259035" lon="174.3945632"><ele>105.0</ele><time>2026-03-28T20:48:44.626Z</time></trkpt><trkpt lat="-36.7258731" lon="174.3944471"><ele>105.0</ele><time>2026-03-28T20:48:47.625Z</time></trkpt><trkpt lat="-36.7258382" lon="174.3943422"><ele>105.0</ele><time>2026-03-28T20:48:49.626Z</time></trkpt><trkpt lat="-36.7257991" lon="174.3942514"><ele>105.14285714285714</ele><time>2026-03-28T20:48:51.625Z</time></trkpt><trkpt lat="-36.7257398" lon="174.3941685"><ele>105.28571428571428</ele><time>2026-03-28T20:48:53.626Z</time></trkpt><trkpt lat="-36.7256874" lon="174.3940956"><ele>105.42857142857143</ele><time>2026-03-28T20:48:55.625Z</time></trkpt><trkpt lat="-36.7256589" lon="174.3940149"><ele>105.57142857142857</ele><time>2026-03-28T20:48:57.625Z</time></trkpt><trkpt lat="-36.7256484" lon="174.3939267"><ele>105.71428571428571</ele><time>2026-03-28T20:48:59.626Z</time></trkpt><trkpt lat="-36.7256021" lon="174.393865"><ele>105.85714285714286</ele><time>2026-03-28T20:49:01.626Z</time></trkpt><trkpt lat="-36.7255607" lon="174.3937923"><ele>106.0</ele><time>2026-03-28T20:49:03.627Z</time></trkpt><trkpt lat="-36.7255617" lon="174.3936965"><ele>105.57142857142857</ele><time>2026-03-28T20:49:05.625Z</time></trkpt><trkpt lat="-36.7255766" lon="174.3936016"><ele>105.14285714285714</ele><time>2026-03-28T20:49:07.626Z</time></trkpt><trkpt lat="-36.7255891" lon="174.3935133"><ele>104.71428571428571</ele><time>2026-03-28T20:49:09.626Z</time></trkpt><trkpt lat="-36.7256024" lon="174.3934223"><ele>104.28571428571428</ele><time>2026-03-28T20:49:11.626Z</time></trkpt><trkpt lat="-36.7256141" lon="174.3933413"><ele>103.85714285714286</ele><time>2026-03-28T20:49:13.626Z</time></trkpt><trkpt lat="-36.7256005" lon="174.3932444"><ele>103.42857142857142</ele><time>2026-03-28T20:49:16.626Z</time></trkpt><trkpt lat="-36.7255885" lon="174.3931536"><ele>103.0</ele><time>2026-03-28T20:49:19.626Z</time></trkpt><trkpt lat="-36.7255841" lon="174.3930714"><ele>102.99999999999999</ele><time>2026-03-28T20:51:30.626Z</time></trkpt><trkpt lat="-36.7255166" lon="174.3930789"><ele>103.0</ele><time>2026-03-28T20:51:33.624Z</time></trkpt><trkpt lat="-36.7254483" lon="174.3930343"><ele>103.0</ele><time>2026-03-28T20:51:37.626Z</time></trkpt><trkpt lat="-36.7253783" lon="174.3930575"><ele>103.0</ele><time>2026-03-28T20:51:40.625Z</time></trkpt><trkpt lat="-36.7253472" lon="174.3931307"><ele>103.0</ele><time>2026-03-28T20:51:44.626Z</time></trkpt><trkpt lat="-36.7252652" lon="174.3931345"><ele>102.99999999999999</ele><time>2026-03-28T20:51:48.624Z</time></trkpt><trkpt lat="-36.725209" lon="174.3931968"><ele>103.0</ele><time>2026-03-28T20:51:51.626Z</time></trkpt><trkpt lat="-36.725193" lon="174.3932815"><ele>102.99999999999999</ele><time>2026-03-28T20:51:54.626Z</time></trkpt><trkpt lat="-36.7251893" lon="174.3933649"><ele>103.0</ele><time>2026-03-28T20:51:57.625Z</time></trkpt><trkpt lat="-36.7252694" lon="174.3933997"><ele>103.0</ele><time>2026-03-28T20:52:01.626Z</time></trkpt><trkpt lat="-36.7253246" lon="174.3934402"><ele>103.0</ele><time>2026-03-28T20:52:03.627Z</time></trkpt><trkpt lat="-36.7253874" lon="174.3934892"><ele>103.0</ele><time>2026-03-28T20:52:05.626Z</time></trkpt><trkpt lat="-36.7253988" lon="174.3935817"><ele>102.99999999999999</ele><time>2026-03-28T20:52:08.625Z</time></trkpt><trkpt lat="-36.7253785" lon="174.3936752"><ele>103.0</ele><time>2026-03-28T20:52:11.626Z</time></trkpt><trkpt lat="-36.7254217" lon="174.3937442"><ele>103.00000000000001</ele><time>2026-03-28T20:52:14.625Z</time></trkpt><trkpt lat="-36.7254393" lon="174.3938229"><ele>103.0</ele><time>2026-03-28T20:52:16.624Z</time></trkpt><trkpt lat="-36.7254592" lon="174.3939363"><ele>103.0</ele><time>2026-03-28T20:52:19.624Z</time></trkpt><trkpt lat="-36.7254903" lon="174.3940166"><ele>103.0</ele><time>2026-03-28T20:52:21.626Z</time></trkpt><trkpt lat="-36.7255179" lon="174.3940944"><ele>103.00000000000001</ele><time>2026-03-28T20:52:23.625Z</time></trkpt><trkpt lat="-36.7255416" lon="174.394197"><ele>103.0</ele><time>2026-03-28T20:52:26.625Z</time></trkpt><trkpt lat="-36.7255323" lon="174.3943076"><ele>103.33333333333334</ele><time>2026-03-28T20:52:29.624Z</time></trkpt><trkpt lat="-36.7255622" lon="174.3944101"><ele>103.66666666666667</ele><time>2026-03-28T20:52:32.625Z</time></trkpt><trkpt lat="-36.725597" lon="174.3945099"><ele>104.0</ele><time>2026-03-28T20:52:34.627Z</time></trkpt><trkpt lat="-36.7255881" lon="174.39463"><ele>104.33333333333334</ele><time>2026-03-28T20:52:36.624Z</time></trkpt><trkpt lat="-36.7255569" lon="174.3947325"><ele>104.66666666666667</ele><time>2026-03-28T20:52:38.626Z</time></trkpt><trkpt lat="-36.725522" lon="174.3948342"><ele>105.0</ele><time>2026-03-28T20:52:40.626Z</time></trkpt><trkpt lat="-36.7254963" lon="174.3949327"><ele>105.0</ele><time>2026-03-28T20:52:42.627Z</time></trkpt><trkpt lat="-36.7254638" lon="174.3950299"><ele>105.0</ele><time>2026-03-28T20:52:44.626Z</time></trkpt><trkpt lat="-36.7254054" lon="174.3951327"><ele>105.0</ele><time>2026-03-28T20:52:46.627Z</time></trkpt><trkpt lat="-36.7253567" lon="174.3952279"><ele>105.0</ele><time>2026-03-28T20:52:48.624Z</time></trkpt><trkpt lat="-36.7253353" lon="174.3953655"><ele>105.0</ele><time>2026-03-28T20:52:50.626Z</time></trkpt><trkpt lat="-36.7253745" lon="174.395473"><ele>104.83333333333333</ele><time>2026-03-28T20:52:52.625Z</time></trkpt><trkpt lat="-36.7253969" lon="174.3955896"><ele>104.66666666666666</ele><time>2026-03-28T20:52:54.626Z</time></trkpt><trkpt lat="-36.7254152" lon="174.3957"><ele>104.5</ele><time>2026-03-28T20:52:56.626Z</time></trkpt><trkpt lat="-36.72543" lon="174.3958195"><ele>104.33333333333333</ele><time>2026-03-28T20:52:58.625Z</time></trkpt><trkpt lat="-36.7254617" lon="174.3959196"><ele>104.16666666666666</ele><time>2026-03-28T20:53:00.626Z</time></trkpt><trkpt lat="-36.7254812" lon="174.3960124"><ele>104.0</ele><time>2026-03-28T20:53:01.626Z</time></trkpt><trkpt lat="-36.7254708" lon="174.3960971"><ele>104.0</ele><time>2026-03-28T20:53:02.625Z</time></trkpt><trkpt lat="-36.7255075" lon="174.3961965"><ele>104.0</ele><time>2026-03-28T20:53:04.625Z</time></trkpt><trkpt lat="-36.7255371" lon="174.3963694"><ele>104.0</ele><time>2026-03-28T20:53:06.626Z</time></trkpt><trkpt lat="-36.7255779" lon="174.3964792"><ele>104.0</ele><time>2026-03-28T20:53:08.626Z</time></trkpt><trkpt lat="-36.7256812" lon="174.396495"><ele>104.0</ele><time>2026-03-28T20:53:10.626Z</time></trkpt><trkpt lat="-36.7257711" lon="174.3964538"><ele>104.0</ele><time>2026-03-28T20:53:12.625Z</time></trkpt><trkpt lat="-36.7258345" lon="174.3963624"><ele>104.0</ele><time>2026-03-28T20:53:14.624Z</time></trkpt><trkpt lat="-36.7258878" lon="174.3962552"><ele>104.0</ele><time>2026-03-28T20:53:16.627Z</time></trkpt><trkpt lat="-36.7259457" lon="174.3961287"><ele>104.0</ele><time>2026-03-28T20:53:18.626Z</time></trkpt><trkpt lat="-36.726003" lon="174.3960013"><ele>104.0</ele><time>2026-03-28T20:53:20.626Z</time></trkpt><trkpt lat="-36.7260789" lon="174.3958985"><ele>102.33333333333333</ele><time>2026-03-28T20:53:22.626Z</time></trkpt><trkpt lat="-36.7261655" lon="174.3958032"><ele>100.66666666666666</ele><time>2026-03-28T20:53:24.624Z</time></trkpt><trkpt lat="-36.7262495" lon="174.3957587"><ele>99.0</ele><time>2026-03-28T20:53:26.626Z</time></trkpt><trkpt lat="-36.7262945" lon="174.3956934"><ele>97.33333333333333</ele><time>2026-03-28T20:53:29.624Z</time></trkpt><trkpt lat="-36.7263618" lon="174.3956543"><ele>95.66666666666666</ele><time>2026-03-28T20:53:32.625Z</time></trkpt><trkpt lat="-36.7264206" lon="174.3956207"><ele>94.0</ele><time>2026-03-28T20:53:34.626Z</time></trkpt><trkpt lat="-36.7264894" lon="174.3955742"><ele>94.0</ele><time>2026-03-28T20:53:36.626Z</time></trkpt><trkpt lat="-36.7265434" lon="174.3955092"><ele>94.0</ele><time>2026-03-28T20:53:38.626Z</time></trkpt><trkpt lat="-36.7266188" lon="174.3954609"><ele>94.0</ele><time>2026-03-28T20:53:40.626Z</time></trkpt><trkpt lat="-36.7266935" lon="174.3954087"><ele>94.0</ele><time>2026-03-28T20:53:42.625Z</time></trkpt><trkpt lat="-36.7267813" lon="174.3953259"><ele>94.0</ele><time>2026-03-28T20:53:44.625Z</time></trkpt><trkpt lat="-36.7268542" lon="174.3952522"><ele>94.0</ele><time>2026-03-28T20:53:47.625Z</time></trkpt><trkpt lat="-36.7269072" lon="174.3952021"><ele>91.33333333333333</ele><time>2026-03-28T20:53:49.626Z</time></trkpt><trkpt lat="-36.7269413" lon="174.3951239"><ele>88.66666666666666</ele><time>2026-03-28T20:53:51.625Z</time></trkpt><trkpt lat="-36.7269847" lon="174.395034"><ele>86.0</ele><time>2026-03-28T20:53:54.626Z</time></trkpt><trkpt lat="-36.7270576" lon="174.3949878"><ele>83.33333333333333</ele><time>2026-03-28T20:53:57.626Z</time></trkpt><trkpt lat="-36.7271521" lon="174.3949531"><ele>80.66666666666667</ele><time>2026-03-28T20:54:00.625Z</time></trkpt><trkpt lat="-36.7272259" lon="174.3949405"><ele>78.0</ele><time>2026-03-28T20:54:01.625Z</time></trkpt><trkpt lat="-36.7272912" lon="174.394947"><ele>78.0</ele><time>2026-03-28T20:54:02.625Z</time></trkpt><trkpt lat="-36.7273644" lon="174.394938"><ele>78.0</ele><time>2026-03-28T20:54:03.626Z</time></trkpt><trkpt lat="-36.7274322" lon="174.3949547"><ele>78.0</ele><time>2026-03-28T20:54:04.624Z</time></trkpt><trkpt lat="-36.7275192" lon="174.3950151"><ele>78.0</ele><time>2026-03-28T20:54:06.625Z</time></trkpt><trkpt lat="-36.7275903" lon="174.3951125"><ele>78.0</ele><time>2026-03-28T20:54:08.626Z</time></trkpt><trkpt lat="-36.7276442" lon="174.3951809"><ele>78.0</ele><time>2026-03-28T20:54:09.626Z</time></trkpt><trkpt lat="-36.7276836" lon="174.3952494"><ele>77.6</ele><time>2026-03-28T20:54:10.626Z</time></trkpt><trkpt lat="-36.7277588" lon="174.3953634"><ele>77.19999999999999</ele><time>2026-03-28T20:54:12.626Z</time></trkpt><trkpt lat="-36.7278294" lon="174.3954368"><ele>76.8</ele><time>2026-03-28T20:54:14.626Z</time></trkpt><trkpt lat="-36.7278911" lon="174.3955021"><ele>76.39999999999999</ele><time>2026-03-28T20:54:16.625Z</time></trkpt><trkpt lat="-36.7279709" lon="174.3955968"><ele>76.0</ele><time>2026-03-28T20:54:18.624Z</time></trkpt><trkpt lat="-36.7280348" lon="174.3956387"><ele>76.0</ele><time>2026-03-28T20:54:20.627Z</time></trkpt><trkpt lat="-36.7280978" lon="174.3956638"><ele>76.0</ele><time>2026-03-28T20:54:22.626Z</time></trkpt><trkpt lat="-36.728176" lon="174.3956929"><ele>76.0</ele><time>2026-03-28T20:54:24.626Z</time></trkpt><trkpt lat="-36.7282524" lon="174.3957214"><ele>76.0</ele><time>2026-03-28T20:54:26.626Z</time></trkpt><trkpt lat="-36.7283519" lon="174.3957377"><ele>76.0</ele><time>2026-03-28T20:54:28.625Z</time></trkpt><trkpt lat="-36.7284143" lon="174.3957693"><ele>76.0</ele><time>2026-03-28T20:54:30.625Z</time></trkpt><trkpt lat="-36.7284648" lon="174.3958163"><ele>76.0</ele><time>2026-03-28T20:54:32.626Z</time></trkpt><trkpt lat="-36.7285395" lon="174.3958538"><ele>76.0</ele><time>2026-03-28T20:54:34.625Z</time></trkpt><trkpt lat="-36.7286064" lon="174.3958768"><ele>76.0</ele><time>2026-03-28T20:54:36.626Z</time></trkpt><trkpt lat="-36.7286867" lon="174.395855"><ele>76.0</ele><time>2026-03-28T20:54:39.626Z</time></trkpt><trkpt lat="-36.728757" lon="174.3957893"><ele>76.0</ele><time>2026-03-28T20:54:42.627Z</time></trkpt><trkpt lat="-36.7288268" lon="174.395765"><ele>76.0</ele><time>2026-03-28T20:54:45.625Z</time></trkpt><trkpt lat="-36.7288926" lon="174.3957631"><ele>75.0</ele><time>2026-03-28T20:54:47.625Z</time></trkpt><trkpt lat="-36.7289759" lon="174.3957881"><ele>74.0</ele><time>2026-03-28T20:54:50.625Z</time></trkpt><trkpt lat="-36.7290184" lon="174.3958473"><ele>73.0</ele><time>2026-03-28T20:54:52.626Z</time></trkpt><trkpt lat="-36.729063" lon="174.3959284"><ele>72.0</ele><time>2026-03-28T20:54:54.626Z</time></trkpt><trkpt lat="-36.729083" lon="174.3960162"><ele>71.0</ele><time>2026-03-28T20:54:56.626Z</time></trkpt><trkpt lat="-36.7291083" lon="174.3961004"><ele>70.0</ele><time>2026-03-28T20:54:58.626Z</time></trkpt><trkpt lat="-36.7291169" lon="174.3962109"><ele>70.0</ele><time>2026-03-28T20:55:01.625Z</time></trkpt><trkpt lat="-36.7290926" lon="174.3962837"><ele>70.0</ele><time>2026-03-28T20:55:03.625Z</time></trkpt><trkpt lat="-36.7290509" lon="174.3963431"><ele>70.0</ele><time>2026-03-28T20:55:05.624Z</time></trkpt><trkpt lat="-36.7289865" lon="174.396419"><ele>70.0</ele><time>2026-03-28T20:55:08.625Z</time></trkpt><trkpt lat="-36.7289151" lon="174.3964941"><ele>70.0</ele><time>2026-03-28T20:55:11.625Z</time></trkpt><trkpt lat="-36.728865" lon="174.3965467"><ele>70.0</ele><time>2026-03-28T20:55:13.625Z</time></trkpt><trkpt lat="-36.7288001" lon="174.3966228"><ele>72.33333333333333</ele><time>2026-03-28T20:55:16.625Z</time></trkpt><trkpt lat="-36.7287153" lon="174.3966617"><ele>74.66666666666666</ele><time>2026-03-28T20:55:19.625Z</time></trkpt><trkpt lat="-36.728663" lon="174.3967114"><ele>77.0</ele><time>2026-03-28T20:55:22.626Z</time></trkpt><trkpt lat="-36.7287224" lon="174.3967597"><ele>79.33333333333333</ele><time>2026-03-28T20:55:26.626Z</time></trkpt><trkpt lat="-36.7287934" lon="174.3967936"><ele>81.66666666666667</ele><time>2026-03-28T20:55:29.626Z</time></trkpt><trkpt lat="-36.7288694" lon="174.3968355"><ele>84.0</ele><time>2026-03-28T20:55:31.626Z</time></trkpt><trkpt lat="-36.728962" lon="174.3968771"><ele>84.0</ele><time>2026-03-28T20:55:34.626Z</time></trkpt><trkpt lat="-36.7290213" lon="174.3969205"><ele>84.0</ele><time>2026-03-28T20:55:36.625Z</time></trkpt><trkpt lat="-36.729048" lon="174.3969976"><ele>84.0</ele><time>2026-03-28T20:55:38.626Z</time></trkpt><trkpt lat="-36.7290328" lon="174.3970893"><ele>84.0</ele><time>2026-03-28T20:55:41.626Z</time></trkpt><trkpt lat="-36.7289751" lon="174.397161"><ele>84.0</ele><time>2026-03-28T20:55:44.626Z</time></trkpt><trkpt lat="-36.7289253" lon="174.3972418"><ele>84.0</ele><time>2026-03-28T20:55:47.626Z</time></trkpt><trkpt lat="-36.7288604" lon="174.397294"><ele>85.66666666666667</ele><time>2026-03-28T20:55:49.625Z</time></trkpt><trkpt lat="-36.7288054" lon="174.3973503"><ele>87.33333333333333</ele><time>2026-03-28T20:55:51.626Z</time></trkpt><trkpt lat="-36.7288107" lon="174.3974609"><ele>89.0</ele><time>2026-03-28T20:55:54.625Z</time></trkpt><trkpt lat="-36.7287756" lon="174.3975337"><ele>90.66666666666666</ele><time>2026-03-28T20:55:57.626Z</time></trkpt><trkpt lat="-36.7288009" lon="174.3976271"><ele>92.33333333333333</ele><time>2026-03-28T20:56:01.626Z</time></trkpt><trkpt lat="-36.7288872" lon="174.3976639"><ele>94.0</ele><time>2026-03-28T20:56:04.624Z</time></trkpt><trkpt lat="-36.7289635" lon="174.3977113"><ele>94.0</ele><time>2026-03-28T20:56:06.627Z</time></trkpt><trkpt lat="-36.7290664" lon="174.3977944"><ele>94.0</ele><time>2026-03-28T20:56:08.626Z</time></trkpt><trkpt lat="-36.7291402" lon="174.3978627"><ele>94.0</ele><time>2026-03-28T20:56:10.626Z</time></trkpt><trkpt lat="-36.7292208" lon="174.3979178"><ele>94.0</ele><time>2026-03-28T20:56:12.626Z</time></trkpt><trkpt lat="-36.7293143" lon="174.3979574"><ele>94.0</ele><time>2026-03-28T20:56:14.626Z</time></trkpt><trkpt lat="-36.7294036" lon="174.3980265"><ele>95.16666666666666</ele><time>2026-03-28T20:56:16.626Z</time></trkpt><trkpt lat="-36.7294655" lon="174.3980885"><ele>96.33333333333333</ele><time>2026-03-28T20:56:19.626Z</time></trkpt><trkpt lat="-36.7295427" lon="174.3981071"><ele>97.5</ele><time>2026-03-28T20:56:21.626Z</time></trkpt><trkpt lat="-36.7296215" lon="174.398155"><ele>98.66666666666666</ele><time>2026-03-28T20:56:23.626Z</time></trkpt><trkpt lat="-36.7296977" lon="174.3981849"><ele>99.83333333333333</ele><time>2026-03-28T20:56:25.625Z</time></trkpt><trkpt lat="-36.7297756" lon="174.3982207"><ele>101.0</ele><time>2026-03-28T20:56:27.626Z</time></trkpt><trkpt lat="-36.7298569" lon="174.3982691"><ele>100.99999999999999</ele><time>2026-03-28T20:56:29.625Z</time></trkpt><trkpt lat="-36.7299374" lon="174.3982877"><ele>101.0</ele><time>2026-03-28T20:56:31.625Z</time></trkpt><trkpt lat="-36.7300165" lon="174.3983293"><ele>101.0</ele><time>2026-03-28T20:56:33.625Z</time></trkpt><trkpt lat="-36.7300985" lon="174.3984017"><ele>101.0</ele><time>2026-03-28T20:56:35.626Z</time></trkpt><trkpt lat="-36.7301772" lon="174.3984532"><ele>100.99999999999999</ele><time>2026-03-28T20:56:38.626Z</time></trkpt><trkpt lat="-36.7301986" lon="174.3985361"><ele>101.0</ele><time>2026-03-28T20:56:41.626Z</time></trkpt><trkpt lat="-36.7302529" lon="174.3986383"><ele>101.99999999999999</ele><time>2026-03-28T20:56:44.625Z</time></trkpt><trkpt lat="-36.7303293" lon="174.3986666"><ele>103.0</ele><time>2026-03-28T20:56:46.625Z</time></trkpt><trkpt lat="-36.7303953" lon="174.3987107"><ele>104.0</ele><time>2026-03-28T20:56:48.625Z</time></trkpt><trkpt lat="-36.7304566" lon="174.3987947"><ele>105.0</ele><time>2026-03-28T20:56:50.625Z</time></trkpt><trkpt lat="-36.7305243" lon="174.3988662"><ele>105.99999999999999</ele><time>2026-03-28T20:56:52.626Z</time></trkpt><trkpt lat="-36.7305915" lon="174.3988838"><ele>107.0</ele><time>2026-03-28T20:56:54.624Z</time></trkpt><trkpt lat="-36.7306365" lon="174.3988256"><ele>106.99999999999999</ele><time>2026-03-28T20:56:56.626Z</time></trkpt><trkpt lat="-36.7306575" lon="174.3987133"><ele>107.0</ele><time>2026-03-28T20:56:59.626Z</time></trkpt><trkpt lat="-36.7306803" lon="174.3986141"><ele>107.0</ele><time>2026-03-28T20:57:02.626Z</time></trkpt><trkpt lat="-36.7307436" lon="174.39865"><ele>107.0</ele><time>2026-03-28T20:57:05.626Z</time></trkpt><trkpt lat="-36.7307827" lon="174.3987383"><ele>106.99999999999999</ele><time>2026-03-28T20:57:08.626Z</time></trkpt><trkpt lat="-36.7308498" lon="174.3987642"><ele>107.0</ele><time>2026-03-28T20:57:11.626Z</time></trkpt><trkpt lat="-36.7309319" lon="174.3987556"><ele>106.99999999999999</ele><time>2026-03-28T20:57:16.626Z</time></trkpt><trkpt lat="-36.731013" lon="174.398719"><ele>107.0</ele><time>2026-03-28T20:57:19.625Z</time></trkpt><trkpt lat="-36.7310603" lon="174.3986367"><ele>107.0</ele><time>2026-03-28T20:57:22.624Z</time></trkpt><trkpt lat="-36.73112" lon="174.3985518"><ele>107.0</ele><time>2026-03-28T20:57:25.626Z</time></trkpt><trkpt lat="-36.7312119" lon="174.3985554"><ele>106.99999999999999</ele><time>2026-03-28T20:57:28.625Z</time></trkpt><trkpt lat="-36.7313064" lon="174.3985509"><ele>107.0</ele><time>2026-03-28T20:57:31.625Z</time></trkpt><trkpt lat="-36.7313981" lon="174.3985302"><ele>107.6</ele><time>2026-03-28T20:57:34.625Z</time></trkpt><trkpt lat="-36.7314911" lon="174.3984974"><ele>108.19999999999999</ele><time>2026-03-28T20:57:36.626Z</time></trkpt><trkpt lat="-36.7315732" lon="174.398482"><ele>108.8</ele><time>2026-03-28T20:57:38.625Z</time></trkpt><trkpt lat="-36.7316664" lon="174.3984963"><ele>109.4</ele><time>2026-03-28T20:57:40.625Z</time></trkpt><trkpt lat="-36.7317549" lon="174.3985053"><ele>110.0</ele><time>2026-03-28T20:57:42.624Z</time></trkpt><trkpt lat="-36.7318427" lon="174.3985015"><ele>111.33333333333333</ele><time>2026-03-28T20:57:44.625Z</time></trkpt><trkpt lat="-36.7319265" lon="174.3984908"><ele>112.66666666666666</ele><time>2026-03-28T20:57:46.624Z</time></trkpt><trkpt lat="-36.7320064" lon="174.3984861"><ele>114.0</ele><time>2026-03-28T20:57:48.625Z</time></trkpt><trkpt lat="-36.7320865" lon="174.3984983"><ele>115.33333333333334</ele><time>2026-03-28T20:57:50.627Z</time></trkpt><trkpt lat="-36.7321594" lon="174.3985253"><ele>116.66666666666667</ele><time>2026-03-28T20:57:52.625Z</time></trkpt><trkpt lat="-36.732239" lon="174.3985387"><ele>118.0</ele><time>2026-03-28T20:57:54.625Z</time></trkpt><trkpt lat="-36.732322" lon="174.3985629"><ele>118.00000000000001</ele><time>2026-03-28T20:57:56.625Z</time></trkpt><trkpt lat="-36.7323942" lon="174.398593"><ele>118.0</ele><time>2026-03-28T20:57:58.625Z</time></trkpt><trkpt lat="-36.7324577" lon="174.3986262"><ele>118.0</ele><time>2026-03-28T20:58:00.625Z</time></trkpt><trkpt lat="-36.7325335" lon="174.3986551"><ele>118.0</ele><time>2026-03-28T20:58:02.627Z</time></trkpt><trkpt lat="-36.7326189" lon="174.3987023"><ele>118.00000000000001</ele><time>2026-03-28T20:58:04.626Z</time></trkpt><trkpt lat="-36.732705" lon="174.3987547"><ele>118.0</ele><time>2026-03-28T20:58:06.625Z</time></trkpt><trkpt lat="-36.7328046" lon="174.3988045"><ele>117.60000000000001</ele><time>2026-03-28T20:58:08.626Z</time></trkpt><trkpt lat="-36.7328714" lon="174.398897"><ele>117.20000000000002</ele><time>2026-03-28T20:58:10.626Z</time></trkpt><trkpt lat="-36.7329539" lon="174.3989968"><ele>116.8</ele><time>2026-03-28T20:58:12.625Z</time></trkpt><trkpt lat="-36.7330298" lon="174.399081"><ele>116.4</ele><time>2026-03-28T20:58:14.626Z</time></trkpt><trkpt lat="-36.7331022" lon="174.3991567"><ele>116.0</ele><time>2026-03-28T20:58:16.627Z</time></trkpt><trkpt lat="-36.7331412" lon="174.3992582"><ele>116.0</ele><time>2026-03-28T20:58:18.625Z</time></trkpt><trkpt lat="-36.7331677" lon="174.3994165"><ele>116.0</ele><time>2026-03-28T20:58:20.625Z</time></trkpt><trkpt lat="-36.7331759" lon="174.3995637"><ele>116.0</ele><time>2026-03-28T20:58:22.626Z</time></trkpt><trkpt lat="-36.7332041" lon="174.3997262"><ele>116.0</ele><time>2026-03-28T20:58:24.625Z</time></trkpt><trkpt lat="-36.7332045" lon="174.3998064"><ele>116.0</ele><time>2026-03-28T20:58:25.626Z</time></trkpt><trkpt lat="-36.7332324" lon="174.3998851"><ele>115.0</ele><time>2026-03-28T20:58:26.625Z</time></trkpt><trkpt lat="-36.7332703" lon="174.3999525"><ele>114.0</ele><time>2026-03-28T20:58:27.624Z</time></trkpt><trkpt lat="-36.7333749" lon="174.4000349"><ele>113.0</ele><time>2026-03-28T20:58:29.627Z</time></trkpt><trkpt lat="-36.7334735" lon="174.4001151"><ele>112.0</ele><time>2026-03-28T20:58:31.625Z</time></trkpt><trkpt lat="-36.7335746" lon="174.4001741"><ele>111.0</ele><time>2026-03-28T20:58:33.625Z</time></trkpt><trkpt lat="-36.7336736" lon="174.4002128"><ele>110.85714285714285</ele><time>2026-03-28T20:58:35.626Z</time></trkpt><trkpt lat="-36.7337508" lon="174.4002195"><ele>110.71428571428572</ele><time>2026-03-28T20:58:37.626Z</time></trkpt><trkpt lat="-36.7338181" lon="174.4001971"><ele>110.57142857142857</ele><time>2026-03-28T20:58:39.626Z</time></trkpt><trkpt lat="-36.7338867" lon="174.400197"><ele>110.42857142857142</ele><time>2026-03-28T20:58:41.626Z</time></trkpt><trkpt lat="-36.7339373" lon="174.4002493"><ele>110.28571428571428</ele><time>2026-03-28T20:58:43.627Z</time></trkpt><trkpt lat="-36.7339859" lon="174.400307"><ele>110.14285714285714</ele><time>2026-03-28T20:58:45.625Z</time></trkpt><trkpt lat="-36.7340471" lon="174.400361"><ele>110.0</ele><time>2026-03-28T20:58:47.625Z</time></trkpt><trkpt lat="-36.7341239" lon="174.4004231"><ele>110.0</ele><time>2026-03-28T20:58:49.625Z</time></trkpt><trkpt lat="-36.7341925" lon="174.4004779"><ele>110.0</ele><time>2026-03-28T20:58:51.625Z</time></trkpt><trkpt lat="-36.7342152" lon="174.4005694"><ele>110.0</ele><time>2026-03-28T20:58:52.625Z</time></trkpt><trkpt lat="-36.7342241" lon="174.4007289"><ele>110.0</ele><time>2026-03-28T20:58:54.625Z</time></trkpt><trkpt lat="-36.7342183" lon="174.4008118"><ele>110.0</ele><time>2026-03-28T20:58:55.626Z</time></trkpt><trkpt lat="-36.7341943" lon="174.4009631"><ele>109.85714285714285</ele><time>2026-03-28T20:58:57.625Z</time></trkpt><trkpt lat="-36.7341676" lon="174.4010414"><ele>109.71428571428571</ele><time>2026-03-28T20:58:58.625Z</time></trkpt><trkpt lat="-36.7341425" lon="174.4011196"><ele>109.57142857142857</ele><time>2026-03-28T20:58:59.626Z</time></trkpt><trkpt lat="-36.7341115" lon="174.4012064"><ele>109.42857142857142</ele><time>2026-03-28T20:59:00.625Z</time></trkpt><trkpt lat="-36.7340876" lon="174.4012886"><ele>109.28571428571429</ele><time>2026-03-28T20:59:01.626Z</time></trkpt><trkpt lat="-36.7340674" lon="174.4013634"><ele>109.14285714285714</ele><time>2026-03-28T20:59:02.627Z</time></trkpt><trkpt lat="-36.7340411" lon="174.4014488"><ele>109.0</ele><time>2026-03-28T20:59:03.627Z</time></trkpt><trkpt lat="-36.734018" lon="174.4015285"><ele>109.4</ele><time>2026-03-28T20:59:04.626Z</time></trkpt><trkpt lat="-36.7339981" lon="174.4016057"><ele>109.80000000000001</ele><time>2026-03-28T20:59:05.626Z</time></trkpt><trkpt lat="-36.7339726" lon="174.4016906"><ele>110.19999999999999</ele><time>2026-03-28T20:59:06.624Z</time></trkpt><trkpt lat="-36.7339374" lon="174.4018372"><ele>110.6</ele><time>2026-03-28T20:59:08.626Z</time></trkpt><trkpt lat="-36.7339367" lon="174.4019668"><ele>111.0</ele><time>2026-03-28T20:59:10.625Z</time></trkpt><trkpt lat="-36.7339452" lon="174.4020982"><ele>112.19999999999999</ele><time>2026-03-28T20:59:12.627Z</time></trkpt><trkpt lat="-36.7339732" lon="174.4021714"><ele>113.39999999999999</ele><time>2026-03-28T20:59:13.624Z</time></trkpt><trkpt lat="-36.7340421" lon="174.4022946"><ele>114.6</ele><time>2026-03-28T20:59:15.627Z</time></trkpt><trkpt lat="-36.7341141" lon="174.402396"><ele>115.8</ele><time>2026-03-28T20:59:17.626Z</time></trkpt><trkpt lat="-36.7341514" lon="174.4025254"><ele>117.0</ele><time>2026-03-28T20:59:19.625Z</time></trkpt><trkpt lat="-36.7341504" lon="174.4026459"><ele>117.0</ele><time>2026-03-28T20:59:21.625Z</time></trkpt><trkpt lat="-36.7341187" lon="174.402743"><ele>116.99999999999999</ele><time>2026-03-28T20:59:22.625Z</time></trkpt><trkpt lat="-36.7340765" lon="174.4028758"><ele>116.99999999999999</ele><time>2026-03-28T20:59:24.626Z</time></trkpt><trkpt lat="-36.7340843" lon="174.4030163"><ele>117.0</ele><time>2026-03-28T20:59:26.625Z</time></trkpt><trkpt lat="-36.7341344" lon="174.4031224"><ele>117.0</ele><time>2026-03-28T20:59:28.625Z</time></trkpt><trkpt lat="-36.734188" lon="174.4031739"><ele>118.19999999999999</ele><time>2026-03-28T20:59:29.625Z</time></trkpt><trkpt lat="-36.7342639" lon="174.4032932"><ele>119.39999999999999</ele><time>2026-03-28T20:59:31.626Z</time></trkpt><trkpt lat="-36.734297" lon="174.4034194"><ele>120.60000000000001</ele><time>2026-03-28T20:59:33.625Z</time></trkpt><trkpt lat="-36.7342687" lon="174.4035454"><ele>121.80000000000001</ele><time>2026-03-28T20:59:35.625Z</time></trkpt><trkpt lat="-36.7342074" lon="174.4036427"><ele>123.0</ele><time>2026-03-28T20:59:37.625Z</time></trkpt><trkpt lat="-36.734157" lon="174.4037564"><ele>123.60000000000001</ele><time>2026-03-28T20:59:39.627Z</time></trkpt><trkpt lat="-36.7341047" lon="174.4038599"><ele>124.20000000000002</ele><time>2026-03-28T20:59:41.625Z</time></trkpt><trkpt lat="-36.7340943" lon="174.4039672"><ele>124.8</ele><time>2026-03-28T20:59:43.626Z</time></trkpt><trkpt lat="-36.7341358" lon="174.4040919"><ele>125.4</ele><time>2026-03-28T20:59:45.626Z</time></trkpt><trkpt lat="-36.7341728" lon="174.4042117"><ele>126.0</ele><time>2026-03-28T20:59:47.626Z</time></trkpt><trkpt lat="-36.7342276" lon="174.404277"><ele>126.0</ele><time>2026-03-28T20:59:49.625Z</time></trkpt><trkpt lat="-36.7342718" lon="174.4043335"><ele>126.0</ele><time>2026-03-28T20:59:51.626Z</time></trkpt><trkpt lat="-36.734311" lon="174.4043993"><ele>126.0</ele><time>2026-03-28T20:59:53.625Z</time></trkpt><trkpt lat="-36.7343159" lon="174.4045012"><ele>126.0</ele><time>2026-03-28T20:59:56.626Z</time></trkpt><trkpt lat="-36.7343399" lon="174.4045895"><ele>126.0</ele><time>2026-03-28T20:59:59.625Z</time></trkpt><trkpt lat="-36.7344041" lon="174.4046151"><ele>126.0</ele><time>2026-03-28T21:00:01.624Z</time></trkpt><trkpt lat="-36.734485" lon="174.4046699"><ele>126.0</ele><time>2026-03-28T21:00:04.624Z</time></trkpt><trkpt lat="-36.7345715" lon="174.4047031"><ele>125.16666666666667</ele><time>2026-03-28T21:00:07.625Z</time></trkpt><trkpt lat="-36.7346079" lon="174.4048059"><ele>124.33333333333334</ele><time>2026-03-28T21:00:10.624Z</time></trkpt><trkpt lat="-36.7346009" lon="174.4049122"><ele>123.5</ele><time>2026-03-28T21:00:13.625Z</time></trkpt><trkpt lat="-36.7346287" lon="174.4050072"><ele>122.66666666666667</ele><time>2026-03-28T21:00:17.625Z</time></trkpt><trkpt lat="-36.7346549" lon="174.4050931"><ele>121.83333333333334</ele><time>2026-03-28T21:00:21.625Z</time></trkpt><trkpt lat="-36.7346563" lon="174.4051907"><ele>121.0</ele><time>2026-03-28T21:00:25.626Z</time></trkpt><trkpt lat="-36.7346826" lon="174.4052831"><ele>121.00000000000001</ele><time>2026-03-28T21:00:29.626Z</time></trkpt><trkpt lat="-36.7346764" lon="174.4053634"><ele>121.0</ele><time>2026-03-28T21:00:34.626Z</time></trkpt><trkpt lat="-36.7346284" lon="174.4054163"><ele>121.0</ele><time>2026-03-28T21:00:38.626Z</time></trkpt><trkpt lat="-36.7346394" lon="174.4055356"><ele>121.0</ele><time>2026-03-28T21:00:41.626Z</time></trkpt><trkpt lat="-36.734657" lon="174.4056152"><ele>121.00000000000001</ele><time>2026-03-28T21:00:43.626Z</time></trkpt><trkpt lat="-36.7346802" lon="174.4057132"><ele>121.0</ele><time>2026-03-28T21:00:45.626Z</time></trkpt><trkpt lat="-36.7347199" lon="174.4058462"><ele>120.8</ele><time>2026-03-28T21:00:47.627Z</time></trkpt><trkpt lat="-36.7347873" lon="174.4059645"><ele>120.6</ele><time>2026-03-28T21:00:49.627Z</time></trkpt><trkpt lat="-36.7348693" lon="174.4060785"><ele>120.4</ele><time>2026-03-28T21:00:51.625Z</time></trkpt><trkpt lat="-36.7349125" lon="174.4061364"><ele>120.2</ele><time>2026-03-28T21:00:52.625Z</time></trkpt><trkpt lat="-36.7349721" lon="174.4061728"><ele>120.0</ele><time>2026-03-28T21:00:53.626Z</time></trkpt><trkpt lat="-36.7350853" lon="174.4062282"><ele>120.0</ele><time>2026-03-28T21:00:55.626Z</time></trkpt><trkpt lat="-36.7352121" lon="174.4062536"><ele>120.0</ele><time>2026-03-28T21:00:57.626Z</time></trkpt><trkpt lat="-36.7353185" lon="174.4062441"><ele>120.0</ele><time>2026-03-28T21:00:59.626Z</time></trkpt><trkpt lat="-36.7354332" lon="174.4062517"><ele>120.0</ele><time>2026-03-28T21:01:01.626Z</time></trkpt><trkpt lat="-36.7354994" lon="174.4063474"><ele>120.83333333333333</ele><time>2026-03-28T21:01:03.626Z</time></trkpt><trkpt lat="-36.7355395" lon="174.4064661"><ele>121.66666666666666</ele><time>2026-03-28T21:01:05.626Z</time></trkpt><trkpt lat="-36.7355596" lon="174.4066103"><ele>122.5</ele><time>2026-03-28T21:01:07.626Z</time></trkpt><trkpt lat="-36.735559" lon="174.4066942"><ele>123.33333333333333</ele><time>2026-03-28T21:01:08.625Z</time></trkpt><trkpt lat="-36.7355646" lon="174.4067745"><ele>124.16666666666666</ele><time>2026-03-28T21:01:09.624Z</time></trkpt><trkpt lat="-36.7355653" lon="174.4068584"><ele>125.0</ele><time>2026-03-28T21:01:10.624Z</time></trkpt><trkpt lat="-36.7355695" lon="174.4069396"><ele>124.99999999999999</ele><time>2026-03-28T21:01:11.625Z</time></trkpt><trkpt lat="-36.7355683" lon="174.4070347"><ele>125.0</ele><time>2026-03-28T21:01:12.626Z</time></trkpt><trkpt lat="-36.7355793" lon="174.4071283"><ele>125.0</ele><time>2026-03-28T21:01:13.625Z</time></trkpt><trkpt lat="-36.7355868" lon="174.4072206"><ele>125.0</ele><time>2026-03-28T21:01:14.624Z</time></trkpt><trkpt lat="-36.7355977" lon="174.407318"><ele>124.99999999999999</ele><time>2026-03-28T21:01:15.625Z</time></trkpt><trkpt lat="-36.7356038" lon="174.4074163"><ele>125.0</ele><time>2026-03-28T21:01:16.626Z</time></trkpt><trkpt lat="-36.7356058" lon="174.4075129"><ele>125.16666666666666</ele><time>2026-03-28T21:01:17.626Z</time></trkpt><trkpt lat="-36.7356121" lon="174.4076296"><ele>125.33333333333333</ele><time>2026-03-28T21:01:18.626Z</time></trkpt><trkpt lat="-36.7356096" lon="174.4077278"><ele>125.5</ele><time>2026-03-28T21:01:19.625Z</time></trkpt><trkpt lat="-36.7356" lon="174.4078379"><ele>125.66666666666666</ele><time>2026-03-28T21:01:20.625Z</time></trkpt><trkpt lat="-36.7355921" lon="174.4079344"><ele>125.83333333333333</ele><time>2026-03-28T21:01:21.625Z</time></trkpt><trkpt lat="-36.7355877" lon="174.4080259"><ele>126.0</ele><time>2026-03-28T21:01:22.626Z</time></trkpt><trkpt lat="-36.735585" lon="174.4081111"><ele>125.5</ele><time>2026-03-28T21:01:23.624Z</time></trkpt><trkpt lat="-36.7356024" lon="174.4082677"><ele>125.0</ele><time>2026-03-28T21:01:25.624Z</time></trkpt><trkpt lat="-36.7356111" lon="174.4083498"><ele>124.5</ele><time>2026-03-28T21:01:26.625Z</time></trkpt><trkpt lat="-36.7356158" lon="174.4084472"><ele>124.0</ele><time>2026-03-28T21:01:27.626Z</time></trkpt><trkpt lat="-36.7355719" lon="174.4085426"><ele>123.5</ele><time>2026-03-28T21:01:28.626Z</time></trkpt><trkpt lat="-36.7355249" lon="174.4086213"><ele>123.0</ele><time>2026-03-28T21:01:29.625Z</time></trkpt><trkpt lat="-36.7354733" lon="174.4086807"><ele>123.0</ele><time>2026-03-28T21:01:30.627Z</time></trkpt><trkpt lat="-36.7354312" lon="174.4087493"><ele>123.00000000000001</ele><time>2026-03-28T21:01:31.625Z</time></trkpt><trkpt lat="-36.7353785" lon="174.4089012"><ele>123.00000000000001</ele><time>2026-03-28T21:01:33.625Z</time></trkpt><trkpt lat="-36.7353541" lon="174.4090352"><ele>123.0</ele><time>2026-03-28T21:01:35.626Z</time></trkpt><trkpt lat="-36.7353621" lon="174.4091615"><ele>123.0</ele><time>2026-03-28T21:01:37.626Z</time></trkpt><trkpt lat="-36.7353546" lon="174.4092661"><ele>124.0</ele><time>2026-03-28T21:01:39.625Z</time></trkpt><trkpt lat="-36.7353353" lon="174.4093817"><ele>125.0</ele><time>2026-03-28T21:01:41.625Z</time></trkpt><trkpt lat="-36.735324" lon="174.4094621"><ele>126.0</ele><time>2026-03-28T21:01:42.625Z</time></trkpt><trkpt lat="-36.7353291" lon="174.4095769"><ele>127.0</ele><time>2026-03-28T21:01:44.625Z</time></trkpt><trkpt lat="-36.735339" lon="174.4097043"><ele>128.0</ele><time>2026-03-28T21:01:47.627Z</time></trkpt><trkpt lat="-36.7353251" lon="174.4098087"><ele>129.0</ele><time>2026-03-28T21:01:49.627Z</time></trkpt><trkpt lat="-36.7353129" lon="174.4099157"><ele>129.4</ele><time>2026-03-28T21:01:51.625Z</time></trkpt><trkpt lat="-36.7352924" lon="174.4100605"><ele>129.8</ele><time>2026-03-28T21:01:53.626Z</time></trkpt><trkpt lat="-36.7352496" lon="174.4101242"><ele>130.2</ele><time>2026-03-28T21:01:54.627Z</time></trkpt><trkpt lat="-36.7351998" lon="174.4101896"><ele>130.6</ele><time>2026-03-28T21:01:55.625Z</time></trkpt><trkpt lat="-36.7351498" lon="174.4102473"><ele>131.0</ele><time>2026-03-28T21:01:56.625Z</time></trkpt><trkpt lat="-36.7350356" lon="174.4103188"><ele>129.83333333333331</ele><time>2026-03-28T21:01:58.626Z</time></trkpt><trkpt lat="-36.7349649" lon="174.410334"><ele>128.66666666666666</ele><time>2026-03-28T21:01:59.626Z</time></trkpt><trkpt lat="-36.7348526" lon="174.4103612"><ele>127.5</ele><time>2026-03-28T21:02:01.625Z</time></trkpt><trkpt lat="-36.7347809" lon="174.4103669"><ele>126.33333333333334</ele><time>2026-03-28T21:02:02.625Z</time></trkpt><trkpt lat="-36.7347144" lon="174.4103893"><ele>125.16666666666667</ele><time>2026-03-28T21:02:03.626Z</time></trkpt><trkpt lat="-36.7346446" lon="174.4103877"><ele>124.0</ele><time>2026-03-28T21:02:04.626Z</time></trkpt><trkpt lat="-36.7345599" lon="174.410366"><ele>124.0</ele><time>2026-03-28T21:02:06.626Z</time></trkpt><trkpt lat="-36.7344375" lon="174.4103571"><ele>124.0</ele><time>2026-03-28T21:02:08.626Z</time></trkpt><trkpt lat="-36.7343531" lon="174.4103578"><ele>124.0</ele><time>2026-03-28T21:02:10.625Z</time></trkpt><trkpt lat="-36.734293" lon="174.4104106"><ele>124.0</ele><time>2026-03-28T21:02:13.625Z</time></trkpt><trkpt lat="-36.734268" lon="174.4105092"><ele>124.0</ele><time>2026-03-28T21:02:16.626Z</time></trkpt><trkpt lat="-36.7342511" lon="174.4106156"><ele>124.00000000000001</ele><time>2026-03-28T21:02:18.625Z</time></trkpt><trkpt lat="-36.7342701" lon="174.410705"><ele>124.0</ele><time>2026-03-28T21:02:20.626Z</time></trkpt><trkpt lat="-36.7341956" lon="174.4106887"><ele>124.0</ele><time>2026-03-28T21:02:24.626Z</time></trkpt><trkpt lat="-36.734137" lon="174.410629"><ele>124.0</ele><time>2026-03-28T21:02:26.625Z</time></trkpt><trkpt lat="-36.7340892" lon="174.410548"><ele>124.00000000000001</ele><time>2026-03-28T21:02:27.626Z</time></trkpt><trkpt lat="-36.7340004" lon="174.410515"><ele>124.0</ele><time>2026-03-28T21:02:29.626Z</time></trkpt><trkpt lat="-36.7339084" lon="174.4105524"><ele>124.00000000000001</ele><time>2026-03-28T21:02:31.624Z</time></trkpt><trkpt lat="-36.733849" lon="174.4105984"><ele>124.0</ele><time>2026-03-28T21:02:33.627Z</time></trkpt><trkpt lat="-36.733781" lon="174.4105597"><ele>124.0</ele><time>2026-03-28T21:02:35.625Z</time></trkpt><trkpt lat="-36.7337096" lon="174.410525"><ele>124.0</ele><time>2026-03-28T21:02:37.627Z</time></trkpt><trkpt lat="-36.7336232" lon="174.4105128"><ele>124.00000000000001</ele><time>2026-03-28T21:02:39.626Z</time></trkpt><trkpt lat="-36.7335616" lon="174.4105771"><ele>124.0</ele><time>2026-03-28T21:02:42.626Z</time></trkpt><trkpt lat="-36.7335264" lon="174.4106461"><ele>124.33333333333334</ele><time>2026-03-28T21:02:44.625Z</time></trkpt><trkpt lat="-36.7334814" lon="174.4107019"><ele>124.66666666666667</ele><time>2026-03-28T21:02:46.626Z</time></trkpt><trkpt lat="-36.7334044" lon="174.4107394"><ele>125.0</ele><time>2026-03-28T21:02:49.625Z</time></trkpt><trkpt lat="-36.7333365" lon="174.4106944"><ele>125.33333333333334</ele><time>2026-03-28T21:02:52.625Z</time></trkpt><trkpt lat="-36.733314" lon="174.4106106"><ele>125.66666666666667</ele><time>2026-03-28T21:02:55.625Z</time></trkpt><trkpt lat="-36.733244" lon="174.4106529"><ele>126.0</ele><time>2026-03-28T21:02:59.626Z</time></trkpt><trkpt lat="-36.733184" lon="174.4107192"><ele>126.0</ele><time>2026-03-28T21:03:02.626Z</time></trkpt><trkpt lat="-36.7331121" lon="174.4107186"><ele>126.0</ele><time>2026-03-28T21:03:05.627Z</time></trkpt><trkpt lat="-36.7330566" lon="174.4106804"><ele>126.0</ele><time>2026-03-28T21:03:10.625Z</time></trkpt><trkpt lat="-36.7331067" lon="174.4106179"><ele>126.0</ele><time>2026-03-28T21:03:13.626Z</time></trkpt><trkpt lat="-36.7331228" lon="174.4105351"><ele>126.0</ele><time>2026-03-28T21:03:16.626Z</time></trkpt><trkpt lat="-36.7331321" lon="174.410437"><ele>126.0</ele><time>2026-03-28T21:03:19.626Z</time></trkpt><trkpt lat="-36.7331792" lon="174.4103503"><ele>126.0</ele><time>2026-03-28T21:03:22.626Z</time></trkpt><trkpt lat="-36.7331281" lon="174.4102778"><ele>126.0</ele><time>2026-03-28T21:03:26.626Z</time></trkpt><trkpt lat="-36.7330376" lon="174.410271"><ele>126.0</ele><time>2026-03-28T21:03:29.627Z</time></trkpt><trkpt lat="-36.7329628" lon="174.4102871"><ele>126.0</ele><time>2026-03-28T21:03:32.626Z</time></trkpt><trkpt lat="-36.7328875" lon="174.4103483"><ele>126.0</ele><time>2026-03-28T21:03:35.626Z</time></trkpt><trkpt lat="-36.7328053" lon="174.4103578"><ele>126.0</ele><time>2026-03-28T21:03:38.625Z</time></trkpt><trkpt lat="-36.7327164" lon="174.4103313"><ele>126.0</ele><time>2026-03-28T21:03:41.626Z</time></trkpt><trkpt lat="-36.7326429" lon="174.4102974"><ele>127.33333333333333</ele><time>2026-03-28T21:03:43.625Z</time></trkpt><trkpt lat="-36.7325528" lon="174.4102583"><ele>128.66666666666666</ele><time>2026-03-28T21:03:46.625Z</time></trkpt><trkpt lat="-36.7324887" lon="174.410231"><ele>130.0</ele><time>2026-03-28T21:03:48.626Z</time></trkpt><trkpt lat="-36.7324186" lon="174.4101985"><ele>131.33333333333331</ele><time>2026-03-28T21:03:50.625Z</time></trkpt><trkpt lat="-36.7323446" lon="174.4101485"><ele>132.66666666666666</ele><time>2026-03-28T21:03:52.626Z</time></trkpt><trkpt lat="-36.7322688" lon="174.4101265"><ele>134.0</ele><time>2026-03-28T21:03:54.626Z</time></trkpt><trkpt lat="-36.7322053" lon="174.410085"><ele>134.0</ele><time>2026-03-28T21:03:56.625Z</time></trkpt><trkpt lat="-36.732134" lon="174.4100328"><ele>134.0</ele><time>2026-03-28T21:03:58.625Z</time></trkpt><trkpt lat="-36.7320761" lon="174.4099884"><ele>134.0</ele><time>2026-03-28T21:04:00.625Z</time></trkpt><trkpt lat="-36.732012" lon="174.4099584"><ele>134.0</ele><time>2026-03-28T21:04:02.626Z</time></trkpt><trkpt lat="-36.731942" lon="174.409942"><ele>134.0</ele><time>2026-03-28T21:04:04.625Z</time></trkpt><trkpt lat="-36.7318774" lon="174.4099216"><ele>134.0</ele><time>2026-03-28T21:04:06.626Z</time></trkpt><trkpt lat="-36.7318037" lon="174.4099422"><ele>134.0</ele><time>2026-03-28T21:04:08.627Z</time></trkpt><trkpt lat="-36.731726" lon="174.4099895"><ele>134.33333333333331</ele><time>2026-03-28T21:04:10.626Z</time></trkpt><trkpt lat="-36.7316546" lon="174.4100477"><ele>134.66666666666666</ele><time>2026-03-28T21:04:12.626Z</time></trkpt><trkpt lat="-36.7316053" lon="174.4101246"><ele>135.0</ele><time>2026-03-28T21:04:14.626Z</time></trkpt><trkpt lat="-36.7315213" lon="174.4101566"><ele>135.33333333333334</ele><time>2026-03-28T21:04:17.625Z</time></trkpt><trkpt lat="-36.7314458" lon="174.4101694"><ele>135.66666666666669</ele><time>2026-03-28T21:04:19.625Z</time></trkpt><trkpt lat="-36.7313794" lon="174.4102057"><ele>136.0</ele><time>2026-03-28T21:04:21.626Z</time></trkpt><trkpt lat="-36.7313353" lon="174.4102715"><ele>136.0</ele><time>2026-03-28T21:04:23.626Z</time></trkpt><trkpt lat="-36.7312866" lon="174.4103335"><ele>136.0</ele><time>2026-03-28T21:04:25.624Z</time></trkpt><trkpt lat="-36.731225" lon="174.4103903"><ele>136.0</ele><time>2026-03-28T21:04:27.625Z</time></trkpt><trkpt lat="-36.7311547" lon="174.4104205"><ele>136.0</ele><time>2026-03-28T21:04:29.625Z</time></trkpt><trkpt lat="-36.7310808" lon="174.4104231"><ele>136.0</ele><time>2026-03-28T21:04:31.625Z</time></trkpt><trkpt lat="-36.7309967" lon="174.4103965"><ele>136.0</ele><time>2026-03-28T21:04:33.624Z</time></trkpt><trkpt lat="-36.7309203" lon="174.4103383"><ele>136.28571428571428</ele><time>2026-03-28T21:04:35.624Z</time></trkpt><trkpt lat="-36.7308948" lon="174.4102588"><ele>136.57142857142856</ele><time>2026-03-28T21:04:37.625Z</time></trkpt><trkpt lat="-36.7308458" lon="174.4101998"><ele>136.85714285714286</ele><time>2026-03-28T21:04:40.626Z</time></trkpt><trkpt lat="-36.7307872" lon="174.4101617"><ele>137.14285714285714</ele><time>2026-03-28T21:04:43.624Z</time></trkpt><trkpt lat="-36.7307341" lon="174.4102287"><ele>137.42857142857144</ele><time>2026-03-28T21:04:47.625Z</time></trkpt><trkpt lat="-36.7307146" lon="174.4101507"><ele>137.71428571428572</ele><time>2026-03-28T21:04:51.625Z</time></trkpt><trkpt lat="-36.7307165" lon="174.4100612"><ele>138.0</ele><time>2026-03-28T21:04:54.627Z</time></trkpt><trkpt lat="-36.730692" lon="174.4099845"><ele>138.0</ele><time>2026-03-28T21:04:57.625Z</time></trkpt><trkpt lat="-36.7306256" lon="174.4099948"><ele>138.0</ele><time>2026-03-28T21:05:01.627Z</time></trkpt><trkpt lat="-36.7305999" lon="174.4100717"><ele>138.0</ele><time>2026-03-28T21:05:04.625Z</time></trkpt><trkpt lat="-36.7305562" lon="174.4101678"><ele>138.0</ele><time>2026-03-28T21:05:07.626Z</time></trkpt><trkpt lat="-36.7305188" lon="174.410242"><ele>138.0</ele><time>2026-03-28T21:05:09.625Z</time></trkpt><trkpt lat="-36.7304696" lon="174.4103104"><ele>138.0</ele><time>2026-03-28T21:05:11.626Z</time></trkpt><trkpt lat="-36.730416" lon="174.4103758"><ele>138.0</ele><time>2026-03-28T21:05:14.626Z</time></trkpt><trkpt lat="-36.7303658" lon="174.4104682"><ele>137.5</ele><time>2026-03-28T21:05:17.625Z</time></trkpt><trkpt lat="-36.7303949" lon="174.4105538"><ele>137.0</ele><time>2026-03-28T21:05:20.626Z</time></trkpt><trkpt lat="-36.7304153" lon="174.4106319"><ele>136.5</ele><time>2026-03-28T21:05:22.625Z</time></trkpt><trkpt lat="-36.7304177" lon="174.4107289"><ele>136.0</ele><time>2026-03-28T21:05:24.625Z</time></trkpt><trkpt lat="-36.7304097" lon="174.4108414"><ele>135.5</ele><time>2026-03-28T21:05:26.625Z</time></trkpt><trkpt lat="-36.7303606" lon="174.4109686"><ele>135.0</ele><time>2026-03-28T21:05:28.626Z</time></trkpt><trkpt lat="-36.7303166" lon="174.4110691"><ele>135.0</ele><time>2026-03-28T21:05:30.626Z</time></trkpt><trkpt lat="-36.73028" lon="174.4111616"><ele>135.0</ele><time>2026-03-28T21:05:32.625Z</time></trkpt><trkpt lat="-36.7302351" lon="174.4112591"><ele>135.0</ele><time>2026-03-28T21:05:34.625Z</time></trkpt><trkpt lat="-36.7302108" lon="174.411341"><ele>135.0</ele><time>2026-03-28T21:05:36.625Z</time></trkpt><trkpt lat="-36.7301928" lon="174.4114167"><ele>135.0</ele><time>2026-03-28T21:05:38.626Z</time></trkpt><trkpt lat="-36.7301354" lon="174.4115149"><ele>135.0</ele><time>2026-03-28T21:05:41.625Z</time></trkpt><trkpt lat="-36.7301014" lon="174.4115972"><ele>134.0</ele><time>2026-03-28T21:05:43.626Z</time></trkpt><trkpt lat="-36.7301057" lon="174.4116878"><ele>133.0</ele><time>2026-03-28T21:05:45.625Z</time></trkpt><trkpt lat="-36.7300542" lon="174.4118258"><ele>132.0</ele><time>2026-03-28T21:05:47.626Z</time></trkpt><trkpt lat="-36.7300089" lon="174.4119703"><ele>131.0</ele><time>2026-03-28T21:05:49.626Z</time></trkpt><trkpt lat="-36.7299496" lon="174.4121188"><ele>129.83333333333331</ele><time>2026-03-28T21:05:51.626Z</time></trkpt><trkpt lat="-36.7299181" lon="174.4121999"><ele>128.66666666666666</ele><time>2026-03-28T21:05:52.626Z</time></trkpt><trkpt lat="-36.7298591" lon="174.4122621"><ele>127.5</ele><time>2026-03-28T21:05:53.624Z</time></trkpt><trkpt lat="-36.7298692" lon="174.4123899"><ele>126.33333333333334</ele><time>2026-03-28T21:05:55.626Z</time></trkpt><trkpt lat="-36.7299586" lon="174.4124198"><ele>125.16666666666667</ele><time>2026-03-28T21:05:57.626Z</time></trkpt><trkpt lat="-36.7300346" lon="174.4123457"><ele>124.0</ele><time>2026-03-28T21:05:59.626Z</time></trkpt><trkpt lat="-36.7300965" lon="174.4123131"><ele>124.00000000000001</ele><time>2026-03-28T21:06:00.626Z</time></trkpt><trkpt lat="-36.7302046" lon="174.4123708"><ele>124.0</ele><time>2026-03-28T21:06:02.625Z</time></trkpt><trkpt lat="-36.7302719" lon="174.412428"><ele>124.0</ele><time>2026-03-28T21:06:03.624Z</time></trkpt><trkpt lat="-36.7303304" lon="174.4124747"><ele>124.0</ele><time>2026-03-28T21:06:04.625Z</time></trkpt><trkpt lat="-36.7303385" lon="174.412587"><ele>124.00000000000001</ele><time>2026-03-28T21:06:05.625Z</time></trkpt><trkpt lat="-36.7303356" lon="174.4126851"><ele>124.0</ele><time>2026-03-28T21:06:06.625Z</time></trkpt><trkpt lat="-36.7303254" lon="174.4128087"><ele>124.16666666666667</ele><time>2026-03-28T21:06:08.625Z</time></trkpt><trkpt lat="-36.7303271" lon="174.4129079"><ele>124.33333333333334</ele><time>2026-03-28T21:06:10.626Z</time></trkpt><trkpt lat="-36.7303649" lon="174.4129837"><ele>124.5</ele><time>2026-03-28T21:06:13.626Z</time></trkpt><trkpt lat="-36.7304166" lon="174.4129256"><ele>124.66666666666666</ele><time>2026-03-28T21:06:17.626Z</time></trkpt><trkpt lat="-36.7304135" lon="174.4128249"><ele>124.83333333333333</ele><time>2026-03-28T21:06:20.626Z</time></trkpt><trkpt lat="-36.7304535" lon="174.4127519"><ele>125.0</ele><time>2026-03-28T21:06:23.626Z</time></trkpt><trkpt lat="-36.7305024" lon="174.4126513"><ele>124.99999999999999</ele><time>2026-03-28T21:06:26.625Z</time></trkpt><trkpt lat="-36.7305297" lon="174.4125404"><ele>125.0</ele><time>2026-03-28T21:06:28.624Z</time></trkpt><trkpt lat="-36.7305651" lon="174.4124617"><ele>125.0</ele><time>2026-03-28T21:06:30.626Z</time></trkpt><trkpt lat="-36.730664" lon="174.4124321"><ele>125.0</ele><time>2026-03-28T21:06:33.625Z</time></trkpt><trkpt lat="-36.7307312" lon="174.4124359"><ele>124.99999999999999</ele><time>2026-03-28T21:06:35.625Z</time></trkpt><trkpt lat="-36.7308097" lon="174.4123923"><ele>125.0</ele><time>2026-03-28T21:06:39.624Z</time></trkpt><trkpt lat="-36.730868" lon="174.412342"><ele>124.99999999999999</ele><time>2026-03-28T21:06:41.626Z</time></trkpt><trkpt lat="-36.7309219" lon="174.4122982"><ele>125.0</ele><time>2026-03-28T21:06:44.626Z</time></trkpt><trkpt lat="-36.7309932" lon="174.4123494"><ele>125.0</ele><time>2026-03-28T21:06:47.627Z</time></trkpt><trkpt lat="-36.7310756" lon="174.4124232"><ele>125.0</ele><time>2026-03-28T21:06:50.625Z</time></trkpt><trkpt lat="-36.731141" lon="174.4124193"><ele>124.99999999999999</ele><time>2026-03-28T21:06:52.624Z</time></trkpt><trkpt lat="-36.7312176" lon="174.4124033"><ele>125.0</ele><time>2026-03-28T21:06:54.625Z</time></trkpt><trkpt lat="-36.7313122" lon="174.4124048"><ele>125.16666666666666</ele><time>2026-03-28T21:06:57.626Z</time></trkpt><trkpt lat="-36.731395" lon="174.4123945"><ele>125.33333333333333</ele><time>2026-03-28T21:06:59.625Z</time></trkpt><trkpt lat="-36.7314888" lon="174.4124322"><ele>125.5</ele><time>2026-03-28T21:07:01.626Z</time></trkpt><trkpt lat="-36.7315624" lon="174.4124949"><ele>125.66666666666666</ele><time>2026-03-28T21:07:03.625Z</time></trkpt><trkpt lat="-36.7316425" lon="174.4124669"><ele>125.83333333333333</ele><time>2026-03-28T21:07:05.626Z</time></trkpt><trkpt lat="-36.731731" lon="174.4124371"><ele>126.0</ele><time>2026-03-28T21:07:07.626Z</time></trkpt><trkpt lat="-36.7318183" lon="174.412415"><ele>125.85714285714286</ele><time>2026-03-28T21:07:09.624Z</time></trkpt><trkpt lat="-36.7318932" lon="174.4124329"><ele>125.71428571428572</ele><time>2026-03-28T21:07:11.625Z</time></trkpt><trkpt lat="-36.7319718" lon="174.4124601"><ele>125.57142857142857</ele><time>2026-03-28T21:07:13.626Z</time></trkpt><trkpt lat="-36.7320544" lon="174.412485"><ele>125.42857142857143</ele><time>2026-03-28T21:07:15.626Z</time></trkpt><trkpt lat="-36.7321107" lon="174.4124398"><ele>125.28571428571429</ele><time>2026-03-28T21:07:17.626Z</time></trkpt><trkpt lat="-36.7321595" lon="174.4123892"><ele>125.14285714285714</ele><time>2026-03-28T21:07:19.625Z</time></trkpt><trkpt lat="-36.7322267" lon="174.4124068"><ele>125.0</ele><time>2026-03-28T21:07:22.625Z</time></trkpt><trkpt lat="-36.7322985" lon="174.4123807"><ele>124.99999999999999</ele><time>2026-03-28T21:07:25.625Z</time></trkpt><trkpt lat="-36.7323478" lon="174.412331"><ele>125.0</ele><time>2026-03-28T21:07:27.625Z</time></trkpt><trkpt lat="-36.7324004" lon="174.4122713"><ele>125.0</ele><time>2026-03-28T21:07:29.625Z</time></trkpt><trkpt lat="-36.7324741" lon="174.4122091"><ele>125.0</ele><time>2026-03-28T21:07:31.626Z</time></trkpt><trkpt lat="-36.7325516" lon="174.4121461"><ele>124.99999999999999</ele><time>2026-03-28T21:07:33.625Z</time></trkpt><trkpt lat="-36.7326301" lon="174.4120916"><ele>125.0</ele><time>2026-03-28T21:07:35.625Z</time></trkpt><trkpt lat="-36.7327169" lon="174.4120797"><ele>124.83333333333333</ele><time>2026-03-28T21:07:37.626Z</time></trkpt><trkpt lat="-36.7328052" lon="174.4121205"><ele>124.66666666666666</ele><time>2026-03-28T21:07:39.626Z</time></trkpt><trkpt lat="-36.7328771" lon="174.4121217"><ele>124.5</ele><time>2026-03-28T21:07:41.625Z</time></trkpt><trkpt lat="-36.7329449" lon="174.4121151"><ele>124.33333333333334</ele><time>2026-03-28T21:07:43.626Z</time></trkpt><trkpt lat="-36.7330158" lon="174.4121096"><ele>124.16666666666667</ele><time>2026-03-28T21:07:45.625Z</time></trkpt><trkpt lat="-36.7331009" lon="174.4121178"><ele>124.0</ele><time>2026-03-28T21:07:48.625Z</time></trkpt><trkpt lat="-36.7331687" lon="174.4120406"><ele>124.00000000000001</ele><time>2026-03-28T21:07:51.625Z</time></trkpt><trkpt lat="-36.7332534" lon="174.4120631"><ele>124.0</ele><time>2026-03-28T21:07:54.626Z</time></trkpt><trkpt lat="-36.7333019" lon="174.4121286"><ele>124.0</ele><time>2026-03-28T21:07:56.625Z</time></trkpt><trkpt lat="-36.733336" lon="174.4122078"><ele>124.0</ele><time>2026-03-28T21:07:59.625Z</time></trkpt><trkpt lat="-36.7333545" lon="174.4123202"><ele>124.00000000000001</ele><time>2026-03-28T21:08:02.624Z</time></trkpt><trkpt lat="-36.7333879" lon="174.4123874"><ele>124.0</ele><time>2026-03-28T21:08:04.626Z</time></trkpt><trkpt lat="-36.7334648" lon="174.4124225"><ele>124.16666666666667</ele><time>2026-03-28T21:08:06.626Z</time></trkpt><trkpt lat="-36.7335243" lon="174.4125053"><ele>124.33333333333334</ele><time>2026-03-28T21:08:09.624Z</time></trkpt><trkpt lat="-36.7335594" lon="174.4125796"><ele>124.5</ele><time>2026-03-28T21:08:11.626Z</time></trkpt><trkpt lat="-36.7335627" lon="174.4126626"><ele>124.66666666666666</ele><time>2026-03-28T21:08:13.625Z</time></trkpt><trkpt lat="-36.733561" lon="174.4127664"><ele>124.83333333333333</ele><time>2026-03-28T21:08:15.626Z</time></trkpt><trkpt lat="-36.7335632" lon="174.4128826"><ele>125.0</ele><time>2026-03-28T21:08:17.626Z</time></trkpt><trkpt lat="-36.7335872" lon="174.4130047"><ele>125.33333333333333</ele><time>2026-03-28T21:08:19.625Z</time></trkpt><trkpt lat="-36.7336214" lon="174.4131188"><ele>125.66666666666666</ele><time>2026-03-28T21:08:21.625Z</time></trkpt><trkpt lat="-36.7336268" lon="174.4131982"><ele>126.0</ele><time>2026-03-28T21:08:23.624Z</time></trkpt><trkpt lat="-36.7336617" lon="174.4132904"><ele>126.33333333333334</ele><time>2026-03-28T21:08:26.625Z</time></trkpt><trkpt lat="-36.7337198" lon="174.4133364"><ele>126.66666666666667</ele><time>2026-03-28T21:08:28.626Z</time></trkpt><trkpt lat="-36.7338231" lon="174.4133786"><ele>127.0</ele><time>2026-03-28T21:08:30.625Z</time></trkpt><trkpt lat="-36.7338787" lon="174.4134285"><ele>127.00000000000001</ele><time>2026-03-28T21:08:32.625Z</time></trkpt><trkpt lat="-36.7339426" lon="174.4134715"><ele>127.0</ele><time>2026-03-28T21:08:34.626Z</time></trkpt><trkpt lat="-36.7340039" lon="174.4135119"><ele>127.0</ele><time>2026-03-28T21:08:36.624Z</time></trkpt><trkpt lat="-36.7340764" lon="174.4135858"><ele>127.0</ele><time>2026-03-28T21:08:39.625Z</time></trkpt><trkpt lat="-36.7341375" lon="174.4136473"><ele>127.00000000000001</ele><time>2026-03-28T21:08:41.626Z</time></trkpt><trkpt lat="-36.734192" lon="174.413748"><ele>127.0</ele><time>2026-03-28T21:08:43.625Z</time></trkpt><trkpt lat="-36.7342655" lon="174.4138082"><ele>127.16666666666667</ele><time>2026-03-28T21:08:46.626Z</time></trkpt><trkpt lat="-36.7343535" lon="174.4138439"><ele>127.33333333333334</ele><time>2026-03-28T21:08:49.626Z</time></trkpt><trkpt lat="-36.7344414" lon="174.4138375"><ele>127.5</ele><time>2026-03-28T21:08:52.625Z</time></trkpt><trkpt lat="-36.7344863" lon="174.4139017"><ele>127.66666666666666</ele><time>2026-03-28T21:08:54.625Z</time></trkpt><trkpt lat="-36.7345328" lon="174.4139915"><ele>127.83333333333333</ele><time>2026-03-28T21:08:56.625Z</time></trkpt><trkpt lat="-36.7345746" lon="174.4140706"><ele>128.0</ele><time>2026-03-28T21:08:58.626Z</time></trkpt><trkpt lat="-36.7346438" lon="174.4141081"><ele>128.66666666666666</ele><time>2026-03-28T21:09:00.625Z</time></trkpt><trkpt lat="-36.7347061" lon="174.4141555"><ele>129.33333333333331</ele><time>2026-03-28T21:09:02.625Z</time></trkpt><trkpt lat="-36.7347802" lon="174.4141954"><ele>130.0</ele><time>2026-03-28T21:09:04.626Z</time></trkpt><trkpt lat="-36.7348629" lon="174.4142097"><ele>130.66666666666666</ele><time>2026-03-28T21:09:06.625Z</time></trkpt><trkpt lat="-36.734931" lon="174.4141774"><ele>131.33333333333334</ele><time>2026-03-28T21:09:08.625Z</time></trkpt><trkpt lat="-36.734971" lon="174.4140989"><ele>132.0</ele><time>2026-03-28T21:09:11.626Z</time></trkpt><trkpt lat="-36.735041" lon="174.4140773"><ele>132.0</ele><time>2026-03-28T21:09:14.625Z</time></trkpt><trkpt lat="-36.7351261" lon="174.4140993"><ele>132.0</ele><time>2026-03-28T21:09:17.626Z</time></trkpt><trkpt lat="-36.7351963" lon="174.4140939"><ele>132.0</ele><time>2026-03-28T21:09:19.626Z</time></trkpt><trkpt lat="-36.7352643" lon="174.4141049"><ele>132.0</ele><time>2026-03-28T21:09:22.625Z</time></trkpt><trkpt lat="-36.735327" lon="174.4141308"><ele>132.0</ele><time>2026-03-28T21:09:24.625Z</time></trkpt><trkpt lat="-36.7353919" lon="174.4141078"><ele>132.0</ele><time>2026-03-28T21:09:26.626Z</time></trkpt><trkpt lat="-36.7354643" lon="174.414089"><ele>132.0</ele><time>2026-03-28T21:09:30.626Z</time></trkpt><trkpt lat="-36.7355207" lon="174.414146"><ele>131.83333333333334</ele><time>2026-03-28T21:09:33.624Z</time></trkpt><trkpt lat="-36.7355815" lon="174.4141818"><ele>131.66666666666666</ele><time>2026-03-28T21:09:36.627Z</time></trkpt><trkpt lat="-36.7356064" lon="174.4140766"><ele>131.5</ele><time>2026-03-28T21:09:39.626Z</time></trkpt><trkpt lat="-36.7356201" lon="174.4139905"><ele>131.33333333333331</ele><time>2026-03-28T21:09:41.627Z</time></trkpt><trkpt lat="-36.7356497" lon="174.4138988"><ele>131.16666666666666</ele><time>2026-03-28T21:09:43.625Z</time></trkpt><trkpt lat="-36.7356879" lon="174.4137997"><ele>131.0</ele><time>2026-03-28T21:09:45.626Z</time></trkpt><trkpt lat="-36.7357186" lon="174.4136919"><ele>131.0</ele><time>2026-03-28T21:09:47.624Z</time></trkpt><trkpt lat="-36.7357548" lon="174.4135839"><ele>131.0</ele><time>2026-03-28T21:09:49.626Z</time></trkpt><trkpt lat="-36.7357954" lon="174.4134902"><ele>131.0</ele><time>2026-03-28T21:09:51.626Z</time></trkpt><trkpt lat="-36.7358282" lon="174.4134001"><ele>131.0</ele><time>2026-03-28T21:09:53.627Z</time></trkpt><trkpt lat="-36.7358518" lon="174.4132984"><ele>131.0</ele><time>2026-03-28T21:09:55.625Z</time></trkpt><trkpt lat="-36.7358615" lon="174.4131758"><ele>131.0</ele><time>2026-03-28T21:09:57.626Z</time></trkpt><trkpt lat="-36.7358671" lon="174.4130575"><ele>131.4</ele><time>2026-03-28T21:09:59.625Z</time></trkpt><trkpt lat="-36.7358862" lon="174.4129272"><ele>131.8</ele><time>2026-03-28T21:10:01.626Z</time></trkpt><trkpt lat="-36.7359176" lon="174.4127976"><ele>132.20000000000002</ele><time>2026-03-28T21:10:03.626Z</time></trkpt><trkpt lat="-36.7359578" lon="174.4126785"><ele>132.6</ele><time>2026-03-28T21:10:05.625Z</time></trkpt><trkpt lat="-36.7359913" lon="174.412549"><ele>133.0</ele><time>2026-03-28T21:10:07.626Z</time></trkpt><trkpt lat="-36.7360117" lon="174.4124232"><ele>133.0</ele><time>2026-03-28T21:10:09.625Z</time></trkpt><trkpt lat="-36.7360492" lon="174.4122894"><ele>133.0</ele><time>2026-03-28T21:10:11.625Z</time></trkpt><trkpt lat="-36.7360877" lon="174.4121945"><ele>133.0</ele><time>2026-03-28T21:10:13.626Z</time></trkpt><trkpt lat="-36.7361087" lon="174.412088"><ele>133.0</ele><time>2026-03-28T21:10:15.625Z</time></trkpt><trkpt lat="-36.7361359" lon="174.4119908"><ele>133.0</ele><time>2026-03-28T21:10:17.626Z</time></trkpt><trkpt lat="-36.736144" lon="174.4118901"><ele>132.42857142857142</ele><time>2026-03-28T21:10:19.626Z</time></trkpt><trkpt lat="-36.7361419" lon="174.4118076"><ele>131.85714285714286</ele><time>2026-03-28T21:10:21.625Z</time></trkpt><trkpt lat="-36.7361547" lon="174.4117213"><ele>131.28571428571428</ele><time>2026-03-28T21:10:23.625Z</time></trkpt><trkpt lat="-36.7361631" lon="174.4116313"><ele>130.71428571428572</ele><time>2026-03-28T21:10:25.625Z</time></trkpt><trkpt lat="-36.7361631" lon="174.4115479"><ele>130.14285714285714</ele><time>2026-03-28T21:10:27.627Z</time></trkpt><trkpt lat="-36.736189" lon="174.4114469"><ele>129.57142857142856</ele><time>2026-03-28T21:10:30.625Z</time></trkpt><trkpt lat="-36.7362408" lon="174.4113722"><ele>129.0</ele><time>2026-03-28T21:10:33.626Z</time></trkpt><trkpt lat="-36.7363234" lon="174.4113394"><ele>129.0</ele><time>2026-03-28T21:10:35.624Z</time></trkpt><trkpt lat="-36.7364046" lon="174.4113551"><ele>129.0</ele><time>2026-03-28T21:10:37.627Z</time></trkpt><trkpt lat="-36.7364886" lon="174.4113953"><ele>129.0</ele><time>2026-03-28T21:10:39.626Z</time></trkpt><trkpt lat="-36.7365769" lon="174.4114221"><ele>129.0</ele><time>2026-03-28T21:10:41.626Z</time></trkpt><trkpt lat="-36.7366615" lon="174.4114433"><ele>129.0</ele><time>2026-03-28T21:10:43.625Z</time></trkpt><trkpt lat="-36.7367458" lon="174.41149"><ele>129.0</ele><time>2026-03-28T21:10:45.625Z</time></trkpt><trkpt lat="-36.7368276" lon="174.4115462"><ele>128.5</ele><time>2026-03-28T21:10:47.626Z</time></trkpt><trkpt lat="-36.7369218" lon="174.4115937"><ele>128.0</ele><time>2026-03-28T21:10:49.626Z</time></trkpt><trkpt lat="-36.737031" lon="174.4116542"><ele>127.5</ele><time>2026-03-28T21:10:51.625Z</time></trkpt><trkpt lat="-36.7371494" lon="174.4117032"><ele>127.0</ele><time>2026-03-28T21:10:53.625Z</time></trkpt><trkpt lat="-36.7372698" lon="174.4117583"><ele>127.0</ele><time>2026-03-28T21:10:55.625Z</time></trkpt><trkpt lat="-36.7373805" lon="174.4118099"><ele>126.99999999999999</ele><time>2026-03-28T21:10:57.627Z</time></trkpt><trkpt lat="-36.7374898" lon="174.4118558"><ele>126.99999999999999</ele><time>2026-03-28T21:10:59.626Z</time></trkpt><trkpt lat="-36.7375609" lon="174.4118874"><ele>127.0</ele><time>2026-03-28T21:11:00.626Z</time></trkpt><trkpt lat="-36.737656" lon="174.4119432"><ele>127.0</ele><time>2026-03-28T21:11:02.626Z</time></trkpt><trkpt lat="-36.7377732" lon="174.4119972"><ele>126.83333333333334</ele><time>2026-03-28T21:11:04.625Z</time></trkpt><trkpt lat="-36.7378833" lon="174.4120467"><ele>126.66666666666667</ele><time>2026-03-28T21:11:06.626Z</time></trkpt><trkpt lat="-36.7379608" lon="174.412102"><ele>126.5</ele><time>2026-03-28T21:11:08.626Z</time></trkpt><trkpt lat="-36.7380085" lon="174.4121793"><ele>126.33333333333334</ele><time>2026-03-28T21:11:10.625Z</time></trkpt><trkpt lat="-36.7380259" lon="174.4122771"><ele>126.16666666666667</ele><time>2026-03-28T21:11:12.626Z</time></trkpt><trkpt lat="-36.738053" lon="174.4123549"><ele>126.0</ele><time>2026-03-28T21:11:14.625Z</time></trkpt><trkpt lat="-36.7381071" lon="174.4124224"><ele>126.0</ele><time>2026-03-28T21:11:16.625Z</time></trkpt><trkpt lat="-36.7381645" lon="174.4124858"><ele>126.0</ele><time>2026-03-28T21:11:18.625Z</time></trkpt><trkpt lat="-36.7382264" lon="174.4125129"><ele>126.0</ele><time>2026-03-28T21:11:20.626Z</time></trkpt><trkpt lat="-36.7382918" lon="174.412522"><ele>126.0</ele><time>2026-03-28T21:11:22.625Z</time></trkpt><trkpt lat="-36.7383065" lon="174.4126081"><ele>126.0</ele><time>2026-03-28T21:11:25.626Z</time></trkpt><trkpt lat="-36.7382524" lon="174.4126745"><ele>126.0</ele><time>2026-03-28T21:11:27.626Z</time></trkpt><trkpt lat="-36.7381991" lon="174.4127482"><ele>126.0</ele><time>2026-03-28T21:11:29.626Z</time></trkpt><trkpt lat="-36.7381456" lon="174.4128267"><ele>126.0</ele><time>2026-03-28T21:11:31.625Z</time></trkpt><trkpt lat="-36.7381455" lon="174.4129128"><ele>126.0</ele><time>2026-03-28T21:11:34.625Z</time></trkpt><trkpt lat="-36.7382278" lon="174.4129027"><ele>126.0</ele><time>2026-03-28T21:11:36.624Z</time></trkpt><trkpt lat="-36.7383071" lon="174.4128892"><ele>126.0</ele><time>2026-03-28T21:11:38.624Z</time></trkpt><trkpt lat="-36.7383766" lon="174.4129002"><ele>126.0</ele><time>2026-03-28T21:11:40.626Z</time></trkpt><trkpt lat="-36.7384187" lon="174.412965"><ele>126.0</ele><time>2026-03-28T21:11:42.626Z</time></trkpt><trkpt lat="-36.7383939" lon="174.413038"><ele>126.0</ele><time>2026-03-28T21:11:44.625Z</time></trkpt><trkpt lat="-36.7384761" lon="174.4130249"><ele>126.0</ele><time>2026-03-28T21:11:49.624Z</time></trkpt><trkpt lat="-36.7385364" lon="174.412955"><ele>126.0</ele><time>2026-03-28T21:11:52.625Z</time></trkpt><trkpt lat="-36.7385568" lon="174.4130488"><ele>126.0</ele><time>2026-03-28T21:11:57.627Z</time></trkpt><trkpt lat="-36.7385578" lon="174.4131302"><ele>126.0</ele><time>2026-03-28T21:11:59.627Z</time></trkpt><trkpt lat="-36.7385565" lon="174.4132143"><ele>126.0</ele><time>2026-03-28T21:12:01.625Z</time></trkpt><trkpt lat="-36.7385643" lon="174.4133046"><ele>126.0</ele><time>2026-03-28T21:12:04.625Z</time></trkpt><trkpt lat="-36.7386279" lon="174.4133076"><ele>126.0</ele><time>2026-03-28T21:12:07.624Z</time></trkpt><trkpt lat="-36.7387092" lon="174.4132693"><ele>128.0</ele><time>2026-03-28T21:12:10.625Z</time></trkpt><trkpt lat="-36.7387757" lon="174.4132397"><ele>130.0</ele><time>2026-03-28T21:12:12.626Z</time></trkpt><trkpt lat="-36.7388508" lon="174.4132302"><ele>132.0</ele><time>2026-03-28T21:12:14.625Z</time></trkpt><trkpt lat="-36.7389264" lon="174.4132749"><ele>134.0</ele><time>2026-03-28T21:12:16.626Z</time></trkpt><trkpt lat="-36.7390094" lon="174.4132916"><ele>136.0</ele><time>2026-03-28T21:12:18.626Z</time></trkpt><trkpt lat="-36.739084" lon="174.413352"><ele>138.0</ele><time>2026-03-28T21:12:20.624Z</time></trkpt><trkpt lat="-36.7391459" lon="174.4134273"><ele>138.0</ele><time>2026-03-28T21:12:23.624Z</time></trkpt><trkpt lat="-36.7391893" lon="174.4135205"><ele>138.0</ele><time>2026-03-28T21:12:26.624Z</time></trkpt><trkpt lat="-36.739263" lon="174.4134623"><ele>138.0</ele><time>2026-03-28T21:12:30.625Z</time></trkpt><trkpt lat="-36.7393008" lon="174.4133817"><ele>138.0</ele><time>2026-03-28T21:12:32.625Z</time></trkpt><trkpt lat="-36.7392767" lon="174.4132788"><ele>138.0</ele><time>2026-03-28T21:12:35.624Z</time></trkpt><trkpt lat="-36.7392223" lon="174.4132068"><ele>138.0</ele><time>2026-03-28T21:12:37.626Z</time></trkpt><trkpt lat="-36.739163" lon="174.4131332"><ele>138.0</ele><time>2026-03-28T21:12:39.626Z</time></trkpt><trkpt lat="-36.7391278" lon="174.4130454"><ele>138.0</ele><time>2026-03-28T21:12:41.625Z</time></trkpt><trkpt lat="-36.7391606" lon="174.4129573"><ele>138.0</ele><time>2026-03-28T21:12:43.625Z</time></trkpt><trkpt lat="-36.7392507" lon="174.4129444"><ele>138.0</ele><time>2026-03-28T21:12:44.625Z</time></trkpt><trkpt lat="-36.7393447" lon="174.4129524"><ele>138.0</ele><time>2026-03-28T21:12:46.626Z</time></trkpt><trkpt lat="-36.7394395" lon="174.4130139"><ele>138.0</ele><time>2026-03-28T21:12:48.625Z</time></trkpt><trkpt lat="-36.7394874" lon="174.4130954"><ele>136.33333333333334</ele><time>2026-03-28T21:12:50.625Z</time></trkpt><trkpt lat="-36.7395302" lon="174.4131827"><ele>134.66666666666666</ele><time>2026-03-28T21:12:52.625Z</time></trkpt><trkpt lat="-36.7395731" lon="174.4132487"><ele>133.0</ele><time>2026-03-28T21:12:54.625Z</time></trkpt><trkpt lat="-36.7396398" lon="174.4133137"><ele>131.33333333333331</ele><time>2026-03-28T21:12:57.625Z</time></trkpt><trkpt lat="-36.7396796" lon="174.4133921"><ele>129.66666666666666</ele><time>2026-03-28T21:13:00.625Z</time></trkpt><trkpt lat="-36.7396179" lon="174.4134543"><ele>128.0</ele><time>2026-03-28T21:13:03.625Z</time></trkpt><trkpt lat="-36.7395253" lon="174.4134577"><ele>127.99999999999999</ele><time>2026-03-28T21:13:06.625Z</time></trkpt><trkpt lat="-36.7394435" lon="174.4134873"><ele>128.0</ele><time>2026-03-28T21:13:09.625Z</time></trkpt><trkpt lat="-36.7394158" lon="174.4135762"><ele>128.0</ele><time>2026-03-28T21:13:12.624Z</time></trkpt><trkpt lat="-36.7393886" lon="174.4136796"><ele>128.0</ele><time>2026-03-28T21:13:15.625Z</time></trkpt><trkpt lat="-36.7393855" lon="174.4137726"><ele>127.99999999999999</ele><time>2026-03-28T21:13:18.625Z</time></trkpt><trkpt lat="-36.7394631" lon="174.4138137"><ele>128.0</ele><time>2026-03-28T21:13:21.626Z</time></trkpt><trkpt lat="-36.7395415" lon="174.4137925"><ele>127.99999999999999</ele><time>2026-03-28T21:13:23.625Z</time></trkpt><trkpt lat="-36.7396069" lon="174.4137673"><ele>128.0</ele><time>2026-03-28T21:13:25.625Z</time></trkpt><trkpt lat="-36.7396878" lon="174.4137416"><ele>128.0</ele><time>2026-03-28T21:13:27.625Z</time></trkpt><trkpt lat="-36.7397448" lon="174.4137009"><ele>128.0</ele><time>2026-03-28T21:13:28.626Z</time></trkpt><trkpt lat="-36.7397903" lon="174.4135968"><ele>127.99999999999999</ele><time>2026-03-28T21:13:30.625Z</time></trkpt><trkpt lat="-36.7398682" lon="174.4135374"><ele>128.0</ele><time>2026-03-28T21:13:32.626Z</time></trkpt><trkpt lat="-36.7399432" lon="174.4135417"><ele>127.99999999999999</ele><time>2026-03-28T21:13:34.625Z</time></trkpt><trkpt lat="-36.7400306" lon="174.4135913"><ele>128.0</ele><time>2026-03-28T21:13:36.626Z</time></trkpt><trkpt lat="-36.7401048" lon="174.4136046"><ele>128.0</ele><time>2026-03-28T21:13:38.626Z</time></trkpt><trkpt lat="-36.7401731" lon="174.413543"><ele>128.0</ele><time>2026-03-28T21:13:41.625Z</time></trkpt><trkpt lat="-36.7402377" lon="174.4135351"><ele>127.99999999999999</ele><time>2026-03-28T21:13:43.625Z</time></trkpt><trkpt lat="-36.7403154" lon="174.4135698"><ele>128.0</ele><time>2026-03-28T21:13:45.625Z</time></trkpt><trkpt lat="-36.7404051" lon="174.4136161"><ele>127.60000000000001</ele><time>2026-03-28T21:13:48.625Z</time></trkpt><trkpt lat="-36.7404768" lon="174.4136784"><ele>127.20000000000002</ele><time>2026-03-28T21:13:50.626Z</time></trkpt><trkpt lat="-36.7405575" lon="174.4137741"><ele>126.8</ele><time>2026-03-28T21:13:52.625Z</time></trkpt><trkpt lat="-36.740617" lon="174.4138433"><ele>126.4</ele><time>2026-03-28T21:13:54.626Z</time></trkpt><trkpt lat="-36.7405385" lon="174.4139364"><ele>126.0</ele><time>2026-03-28T21:13:57.625Z</time></trkpt><trkpt lat="-36.7404842" lon="174.4140171"><ele>127.5</ele><time>2026-03-28T21:14:00.626Z</time></trkpt><trkpt lat="-36.7404257" lon="174.414074"><ele>129.0</ele><time>2026-03-28T21:14:03.624Z</time></trkpt><trkpt lat="-36.740352" lon="174.4140328"><ele>130.5</ele><time>2026-03-28T21:14:06.627Z</time></trkpt><trkpt lat="-36.7402685" lon="174.4140728"><ele>132.0</ele><time>2026-03-28T21:14:09.624Z</time></trkpt><trkpt lat="-36.7402224" lon="174.4141342"><ele>133.5</ele><time>2026-03-28T21:14:11.625Z</time></trkpt><trkpt lat="-36.7401609" lon="174.4141878"><ele>135.0</ele><time>2026-03-28T21:14:14.625Z</time></trkpt><trkpt lat="-36.7400628" lon="174.4141868"><ele>135.83333333333334</ele><time>2026-03-28T21:14:17.626Z</time></trkpt><trkpt lat="-36.7399933" lon="174.4141532"><ele>136.66666666666666</ele><time>2026-03-28T21:14:19.625Z</time></trkpt><trkpt lat="-36.739928" lon="174.4141229"><ele>137.5</ele><time>2026-03-28T21:14:21.626Z</time></trkpt><trkpt lat="-36.7398367" lon="174.4140834"><ele>138.33333333333331</ele><time>2026-03-28T21:14:23.626Z</time></trkpt><trkpt lat="-36.7397566" lon="174.4140889"><ele>139.16666666666666</ele><time>2026-03-28T21:14:25.626Z</time></trkpt><trkpt lat="-36.7396742" lon="174.4141223"><ele>140.0</ele><time>2026-03-28T21:14:27.625Z</time></trkpt><trkpt lat="-36.7396477" lon="174.4142065"><ele>140.0</ele><time>2026-03-28T21:14:30.625Z</time></trkpt><trkpt lat="-36.7397185" lon="174.4141984"><ele>140.0</ele><time>2026-03-28T21:14:32.625Z</time></trkpt><trkpt lat="-36.7397997" lon="174.4141985"><ele>140.0</ele><time>2026-03-28T21:14:35.626Z</time></trkpt><trkpt lat="-36.7399021" lon="174.4142306"><ele>140.0</ele><time>2026-03-28T21:14:38.626Z</time></trkpt><trkpt lat="-36.739985" lon="174.4142775"><ele>140.0</ele><time>2026-03-28T21:14:40.624Z</time></trkpt><trkpt lat="-36.7400762" lon="174.4142829"><ele>140.0</ele><time>2026-03-28T21:14:43.625Z</time></trkpt><trkpt lat="-36.7401405" lon="174.4142719"><ele>140.0</ele><time>2026-03-28T21:14:45.626Z</time></trkpt><trkpt lat="-36.7402093" lon="174.4142853"><ele>140.0</ele><time>2026-03-28T21:14:47.626Z</time></trkpt><trkpt lat="-36.7402838" lon="174.4143063"><ele>140.0</ele><time>2026-03-28T21:14:49.626Z</time></trkpt><trkpt lat="-36.7403927" lon="174.4142935"><ele>140.0</ele><time>2026-03-28T21:14:51.626Z</time></trkpt><trkpt lat="-36.7404798" lon="174.4142755"><ele>140.0</ele><time>2026-03-28T21:14:53.626Z</time></trkpt><trkpt lat="-36.7405572" lon="174.4142728"><ele>140.0</ele><time>2026-03-28T21:14:55.624Z</time></trkpt><trkpt lat="-36.7406363" lon="174.4142163"><ele>139.16666666666666</ele><time>2026-03-28T21:14:57.626Z</time></trkpt><trkpt lat="-36.7407017" lon="174.4141703"><ele>138.33333333333331</ele><time>2026-03-28T21:14:59.627Z</time></trkpt><trkpt lat="-36.740787" lon="174.4141448"><ele>137.5</ele><time>2026-03-28T21:15:01.624Z</time></trkpt><trkpt lat="-36.7408672" lon="174.4140832"><ele>136.66666666666666</ele><time>2026-03-28T21:15:04.624Z</time></trkpt><trkpt lat="-36.7409405" lon="174.4140392"><ele>135.83333333333334</ele><time>2026-03-28T21:15:07.624Z</time></trkpt><trkpt lat="-36.7410059" lon="174.4140624"><ele>135.0</ele><time>2026-03-28T21:15:09.624Z</time></trkpt><trkpt lat="-36.7410615" lon="174.414144"><ele>135.0</ele><time>2026-03-28T21:15:11.626Z</time></trkpt><trkpt lat="-36.7411099" lon="174.4142241"><ele>135.0</ele><time>2026-03-28T21:15:13.626Z</time></trkpt><trkpt lat="-36.7411511" lon="174.4143163"><ele>135.0</ele><time>2026-03-28T21:15:16.625Z</time></trkpt><trkpt lat="-36.7411432" lon="174.4144048"><ele>135.0</ele><time>2026-03-28T21:15:18.626Z</time></trkpt><trkpt lat="-36.7411487" lon="174.4144869"><ele>135.0</ele><time>2026-03-28T21:15:20.627Z</time></trkpt><trkpt lat="-36.7411613" lon="174.4145896"><ele>135.0</ele><time>2026-03-28T21:15:22.626Z</time></trkpt><trkpt lat="-36.7411713" lon="174.4147112"><ele>135.33333333333334</ele><time>2026-03-28T21:15:24.624Z</time></trkpt><trkpt lat="-36.741234" lon="174.4147764"><ele>135.66666666666666</ele><time>2026-03-28T21:15:27.625Z</time></trkpt><trkpt lat="-36.7413083" lon="174.4148062"><ele>136.0</ele><time>2026-03-28T21:15:30.626Z</time></trkpt><trkpt lat="-36.7413706" lon="174.4148419"><ele>136.33333333333331</ele><time>2026-03-28T21:15:32.625Z</time></trkpt><trkpt lat="-36.7414572" lon="174.4148713"><ele>136.66666666666666</ele><time>2026-03-28T21:15:35.626Z</time></trkpt><trkpt lat="-36.7415382" lon="174.4148883"><ele>137.0</ele><time>2026-03-28T21:15:37.627Z</time></trkpt><trkpt lat="-36.7416259" lon="174.414886"><ele>137.0</ele><time>2026-03-28T21:15:39.625Z</time></trkpt><trkpt lat="-36.74169" lon="174.4148316"><ele>137.0</ele><time>2026-03-28T21:15:41.626Z</time></trkpt><trkpt lat="-36.7417391" lon="174.4147606"><ele>137.0</ele><time>2026-03-28T21:15:43.625Z</time></trkpt><trkpt lat="-36.7418012" lon="174.4147409"><ele>137.0</ele><time>2026-03-28T21:15:46.626Z</time></trkpt><trkpt lat="-36.7418711" lon="174.41481"><ele>137.0</ele><time>2026-03-28T21:15:49.625Z</time></trkpt><trkpt lat="-36.7418593" lon="174.4149197"><ele>137.0</ele><time>2026-03-28T21:15:52.625Z</time></trkpt><trkpt lat="-36.7418083" lon="174.4150038"><ele>137.0</ele><time>2026-03-28T21:15:54.625Z</time></trkpt><trkpt lat="-36.7417017" lon="174.4150749"><ele>137.0</ele><time>2026-03-28T21:15:56.625Z</time></trkpt><trkpt lat="-36.7416203" lon="174.4151376"><ele>137.0</ele><time>2026-03-28T21:15:58.625Z</time></trkpt><trkpt lat="-36.7415658" lon="174.4151971"><ele>137.0</ele><time>2026-03-28T21:16:00.625Z</time></trkpt><trkpt lat="-36.7415742" lon="174.4152951"><ele>137.0</ele><time>2026-03-28T21:16:02.626Z</time></trkpt><trkpt lat="-36.7415873" lon="174.4153986"><ele>137.0</ele><time>2026-03-28T21:16:04.624Z</time></trkpt><trkpt lat="-36.7416505" lon="174.4154222"><ele>137.0</ele><time>2026-03-28T21:16:06.626Z</time></trkpt><trkpt lat="-36.7417354" lon="174.4154288"><ele>137.0</ele><time>2026-03-28T21:16:09.626Z</time></trkpt><trkpt lat="-36.741777" lon="174.4155409"><ele>137.0</ele><time>2026-03-28T21:16:12.626Z</time></trkpt><trkpt lat="-36.7417551" lon="174.4156413"><ele>137.0</ele><time>2026-03-28T21:16:13.626Z</time></trkpt><trkpt lat="-36.7417179" lon="174.4157425"><ele>137.0</ele><time>2026-03-28T21:16:15.626Z</time></trkpt><trkpt lat="-36.7416209" lon="174.4157813"><ele>136.16666666666666</ele><time>2026-03-28T21:16:17.624Z</time></trkpt><trkpt lat="-36.7415078" lon="174.4158046"><ele>135.33333333333331</ele><time>2026-03-28T21:16:19.626Z</time></trkpt><trkpt lat="-36.7414395" lon="174.4158504"><ele>134.5</ele><time>2026-03-28T21:16:21.625Z</time></trkpt><trkpt lat="-36.7414452" lon="174.4159485"><ele>133.66666666666666</ele><time>2026-03-28T21:16:23.625Z</time></trkpt><trkpt lat="-36.7414488" lon="174.4160296"><ele>132.83333333333334</ele><time>2026-03-28T21:16:26.625Z</time></trkpt><trkpt lat="-36.7415196" lon="174.4161196"><ele>132.0</ele><time>2026-03-28T21:16:28.626Z</time></trkpt><trkpt lat="-36.7415793" lon="174.4162416"><ele>131.83333333333334</ele><time>2026-03-28T21:16:30.625Z</time></trkpt><trkpt lat="-36.7415854" lon="174.4163204"><ele>131.66666666666666</ele><time>2026-03-28T21:16:32.625Z</time></trkpt><trkpt lat="-36.7415605" lon="174.4164129"><ele>131.5</ele><time>2026-03-28T21:16:34.626Z</time></trkpt><trkpt lat="-36.7415331" lon="174.4165511"><ele>131.33333333333331</ele><time>2026-03-28T21:16:36.626Z</time></trkpt><trkpt lat="-36.7415146" lon="174.4166346"><ele>131.16666666666666</ele><time>2026-03-28T21:16:37.625Z</time></trkpt><trkpt lat="-36.7414993" lon="174.4167127"><ele>131.0</ele><time>2026-03-28T21:16:39.626Z</time></trkpt><trkpt lat="-36.7414173" lon="174.4167937"><ele>131.0</ele><time>2026-03-28T21:16:41.627Z</time></trkpt><trkpt lat="-36.7413757" lon="174.4168703"><ele>131.0</ele><time>2026-03-28T21:16:43.625Z</time></trkpt><trkpt lat="-36.7413532" lon="174.4169647"><ele>131.0</ele><time>2026-03-28T21:16:45.625Z</time></trkpt><trkpt lat="-36.7413511" lon="174.4170501"><ele>131.0</ele><time>2026-03-28T21:16:47.625Z</time></trkpt><trkpt lat="-36.7413702" lon="174.4171594"><ele>131.0</ele><time>2026-03-28T21:16:50.625Z</time></trkpt><trkpt lat="-36.7413324" lon="174.4172488"><ele>131.0</ele><time>2026-03-28T21:16:52.625Z</time></trkpt><trkpt lat="-36.7412871" lon="174.417316"><ele>131.0</ele><time>2026-03-28T21:16:54.625Z</time></trkpt><trkpt lat="-36.7412493" lon="174.4174048"><ele>131.0</ele><time>2026-03-28T21:16:56.626Z</time></trkpt><trkpt lat="-36.7412241" lon="174.4175181"><ele>131.0</ele><time>2026-03-28T21:16:58.626Z</time></trkpt><trkpt lat="-36.7412771" lon="174.4175719"><ele>131.0</ele><time>2026-03-28T21:17:01.625Z</time></trkpt><trkpt lat="-36.7413247" lon="174.417505"><ele>131.0</ele><time>2026-03-28T21:17:03.625Z</time></trkpt><trkpt lat="-36.7413618" lon="174.4174064"><ele>131.0</ele><time>2026-03-28T21:17:05.624Z</time></trkpt><trkpt lat="-36.7413963" lon="174.4173046"><ele>131.0</ele><time>2026-03-28T21:17:07.625Z</time></trkpt><trkpt lat="-36.7414325" lon="174.4172313"><ele>131.0</ele><time>2026-03-28T21:17:09.625Z</time></trkpt><trkpt lat="-36.7414847" lon="174.4171509"><ele>131.0</ele><time>2026-03-28T21:17:11.625Z</time></trkpt><trkpt lat="-36.7415356" lon="174.4170522"><ele>131.0</ele><time>2026-03-28T21:17:13.625Z</time></trkpt><trkpt lat="-36.741573" lon="174.4169495"><ele>131.0</ele><time>2026-03-28T21:17:15.626Z</time></trkpt><trkpt lat="-36.7415913" lon="174.4168387"><ele>131.0</ele><time>2026-03-28T21:17:17.626Z</time></trkpt><trkpt lat="-36.7416101" lon="174.4167634"><ele>131.0</ele><time>2026-03-28T21:17:18.626Z</time></trkpt><trkpt lat="-36.7416171" lon="174.4166515"><ele>131.0</ele><time>2026-03-28T21:17:20.625Z</time></trkpt><trkpt lat="-36.7416567" lon="174.4165134"><ele>131.0</ele><time>2026-03-28T21:17:22.625Z</time></trkpt><trkpt lat="-36.7416757" lon="174.4164357"><ele>131.0</ele><time>2026-03-28T21:17:23.626Z</time></trkpt><trkpt lat="-36.7417165" lon="174.4163235"><ele>131.0</ele><time>2026-03-28T21:17:25.626Z</time></trkpt><trkpt lat="-36.7417419" lon="174.416194"><ele>131.16666666666666</ele><time>2026-03-28T21:17:27.624Z</time></trkpt><trkpt lat="-36.7417529" lon="174.4160826"><ele>131.33333333333331</ele><time>2026-03-28T21:17:29.626Z</time></trkpt><trkpt lat="-36.7417794" lon="174.4159612"><ele>131.5</ele><time>2026-03-28T21:17:31.626Z</time></trkpt><trkpt lat="-36.741787" lon="174.4158584"><ele>131.66666666666666</ele><time>2026-03-28T21:17:33.626Z</time></trkpt><trkpt lat="-36.7417904" lon="174.4157566"><ele>131.83333333333334</ele><time>2026-03-28T21:17:35.625Z</time></trkpt><trkpt lat="-36.7418099" lon="174.4156601"><ele>132.0</ele><time>2026-03-28T21:17:37.625Z</time></trkpt><trkpt lat="-36.7418826" lon="174.4155275"><ele>132.2</ele><time>2026-03-28T21:17:39.626Z</time></trkpt><trkpt lat="-36.7419105" lon="174.4154065"><ele>132.39999999999998</ele><time>2026-03-28T21:17:41.625Z</time></trkpt><trkpt lat="-36.7419231" lon="174.4152711"><ele>132.60000000000002</ele><time>2026-03-28T21:17:43.625Z</time></trkpt><trkpt lat="-36.7419234" lon="174.415141"><ele>132.8</ele><time>2026-03-28T21:17:45.626Z</time></trkpt><trkpt lat="-36.741917" lon="174.4150251"><ele>133.0</ele><time>2026-03-28T21:17:47.625Z</time></trkpt><trkpt lat="-36.7419608" lon="174.4149103"><ele>133.0</ele><time>2026-03-28T21:17:49.627Z</time></trkpt><trkpt lat="-36.7420246" lon="174.4148473"><ele>133.0</ele><time>2026-03-28T21:17:51.625Z</time></trkpt><trkpt lat="-36.7421118" lon="174.4147996"><ele>133.0</ele><time>2026-03-28T21:17:53.625Z</time></trkpt><trkpt lat="-36.7421473" lon="174.4147335"><ele>133.0</ele><time>2026-03-28T21:17:55.624Z</time></trkpt><trkpt lat="-36.7421717" lon="174.4146264"><ele>133.0</ele><time>2026-03-28T21:17:57.626Z</time></trkpt><trkpt lat="-36.7421899" lon="174.4145301"><ele>133.0</ele><time>2026-03-28T21:18:00.626Z</time></trkpt><trkpt lat="-36.7422381" lon="174.4144554"><ele>133.0</ele><time>2026-03-28T21:18:03.626Z</time></trkpt><trkpt lat="-36.7423207" lon="174.4144734"><ele>133.0</ele><time>2026-03-28T21:18:06.626Z</time></trkpt><trkpt lat="-36.7423679" lon="174.4145348"><ele>133.0</ele><time>2026-03-28T21:18:08.626Z</time></trkpt><trkpt lat="-36.7424254" lon="174.4146379"><ele>133.0</ele><time>2026-03-28T21:18:11.625Z</time></trkpt><trkpt lat="-36.7424608" lon="174.4147296"><ele>133.0</ele><time>2026-03-28T21:18:13.625Z</time></trkpt><trkpt lat="-36.742454" lon="174.4148314"><ele>133.0</ele><time>2026-03-28T21:18:15.626Z</time></trkpt><trkpt lat="-36.7423934" lon="174.414953"><ele>133.0</ele><time>2026-03-28T21:18:17.625Z</time></trkpt><trkpt lat="-36.7423711" lon="174.4151215"><ele>133.0</ele><time>2026-03-28T21:18:19.625Z</time></trkpt><trkpt lat="-36.7424174" lon="174.415205"><ele>133.0</ele><time>2026-03-28T21:18:21.625Z</time></trkpt><trkpt lat="-36.7425109" lon="174.4151974"><ele>133.0</ele><time>2026-03-28T21:18:23.625Z</time></trkpt><trkpt lat="-36.7426003" lon="174.4151688"><ele>133.0</ele><time>2026-03-28T21:18:25.627Z</time></trkpt><trkpt lat="-36.7426854" lon="174.4151483"><ele>131.83333333333334</ele><time>2026-03-28T21:18:27.626Z</time></trkpt><trkpt lat="-36.742743" lon="174.4152131"><ele>130.66666666666669</ele><time>2026-03-28T21:18:29.626Z</time></trkpt><trkpt lat="-36.742772" lon="174.4153"><ele>129.5</ele><time>2026-03-28T21:18:31.626Z</time></trkpt><trkpt lat="-36.742761" lon="174.4154272"><ele>128.33333333333334</ele><time>2026-03-28T21:18:33.625Z</time></trkpt><trkpt lat="-36.7426983" lon="174.4154971"><ele>127.16666666666667</ele><time>2026-03-28T21:18:35.626Z</time></trkpt><trkpt lat="-36.7426195" lon="174.4155455"><ele>126.0</ele><time>2026-03-28T21:18:37.625Z</time></trkpt><trkpt lat="-36.74255" lon="174.4155778"><ele>125.83333333333333</ele><time>2026-03-28T21:18:39.625Z</time></trkpt><trkpt lat="-36.7424786" lon="174.4156397"><ele>125.66666666666666</ele><time>2026-03-28T21:18:41.625Z</time></trkpt><trkpt lat="-36.7424241" lon="174.4157515"><ele>125.5</ele><time>2026-03-28T21:18:43.626Z</time></trkpt><trkpt lat="-36.7424212" lon="174.415834"><ele>125.33333333333333</ele><time>2026-03-28T21:18:45.625Z</time></trkpt><trkpt lat="-36.7424613" lon="174.4158992"><ele>125.16666666666666</ele><time>2026-03-28T21:18:47.627Z</time></trkpt><trkpt lat="-36.742509" lon="174.4159658"><ele>125.0</ele><time>2026-03-28T21:18:49.626Z</time></trkpt><trkpt lat="-36.7425805" lon="174.4159554"><ele>124.99999999999999</ele><time>2026-03-28T21:18:51.625Z</time></trkpt><trkpt lat="-36.7426675" lon="174.4159365"><ele>125.0</ele><time>2026-03-28T21:18:54.625Z</time></trkpt><trkpt lat="-36.7427181" lon="174.4159933"><ele>125.0</ele><time>2026-03-28T21:18:56.627Z</time></trkpt><trkpt lat="-36.7427622" lon="174.416054"><ele>125.0</ele><time>2026-03-28T21:18:58.626Z</time></trkpt><trkpt lat="-36.742814" lon="174.4161212"><ele>124.99999999999999</ele><time>2026-03-28T21:19:00.626Z</time></trkpt><trkpt lat="-36.7428842" lon="174.4161883"><ele>125.0</ele><time>2026-03-28T21:19:03.625Z</time></trkpt><trkpt lat="-36.7429594" lon="174.4162574"><ele>125.16666666666666</ele><time>2026-03-28T21:19:05.625Z</time></trkpt><trkpt lat="-36.7430322" lon="174.4163022"><ele>125.33333333333333</ele><time>2026-03-28T21:19:07.625Z</time></trkpt><trkpt lat="-36.7431155" lon="174.4163196"><ele>125.5</ele><time>2026-03-28T21:19:10.626Z</time></trkpt><trkpt lat="-36.7431826" lon="174.41633"><ele>125.66666666666666</ele><time>2026-03-28T21:19:12.625Z</time></trkpt><trkpt lat="-36.7432302" lon="174.4164068"><ele>125.83333333333333</ele><time>2026-03-28T21:19:14.626Z</time></trkpt><trkpt lat="-36.7432963" lon="174.4164206"><ele>126.0</ele><time>2026-03-28T21:19:17.626Z</time></trkpt><trkpt lat="-36.7433291" lon="174.4165112"><ele>126.0</ele><time>2026-03-28T21:19:21.625Z</time></trkpt><trkpt lat="-36.7432882" lon="174.4165845"><ele>126.0</ele><time>2026-03-28T21:19:24.626Z</time></trkpt><trkpt lat="-36.7432275" lon="174.4166479"><ele>126.0</ele><time>2026-03-28T21:19:26.625Z</time></trkpt><trkpt lat="-36.743182" lon="174.4167231"><ele>126.0</ele><time>2026-03-28T21:19:28.624Z</time></trkpt><trkpt lat="-36.7431338" lon="174.4168106"><ele>126.0</ele><time>2026-03-28T21:19:31.626Z</time></trkpt><trkpt lat="-36.7430705" lon="174.4168555"><ele>126.0</ele><time>2026-03-28T21:19:33.625Z</time></trkpt><trkpt lat="-36.74302" lon="174.416919"><ele>126.0</ele><time>2026-03-28T21:19:35.626Z</time></trkpt><trkpt lat="-36.7430333" lon="174.4170235"><ele>126.0</ele><time>2026-03-28T21:19:38.626Z</time></trkpt><trkpt lat="-36.7431067" lon="174.4170879"><ele>126.0</ele><time>2026-03-28T21:19:42.625Z</time></trkpt><trkpt lat="-36.7431524" lon="174.4171745"><ele>126.0</ele><time>2026-03-28T21:19:45.626Z</time></trkpt><trkpt lat="-36.7431352" lon="174.4172715"><ele>126.0</ele><time>2026-03-28T21:19:47.624Z</time></trkpt><trkpt lat="-36.7431386" lon="174.4173507"><ele>126.0</ele><time>2026-03-28T21:19:49.625Z</time></trkpt><trkpt lat="-36.7432028" lon="174.4174175"><ele>126.16666666666667</ele><time>2026-03-28T21:19:52.624Z</time></trkpt><trkpt lat="-36.7432714" lon="174.4174188"><ele>126.33333333333334</ele><time>2026-03-28T21:19:54.625Z</time></trkpt><trkpt lat="-36.7433186" lon="174.4173627"><ele>126.5</ele><time>2026-03-28T21:19:56.625Z</time></trkpt><trkpt lat="-36.7433875" lon="174.4173187"><ele>126.66666666666667</ele><time>2026-03-28T21:19:59.625Z</time></trkpt><trkpt lat="-36.7434709" lon="174.4173776"><ele>126.83333333333334</ele><time>2026-03-28T21:20:02.626Z</time></trkpt><trkpt lat="-36.743525" lon="174.4174456"><ele>127.0</ele><time>2026-03-28T21:20:04.626Z</time></trkpt><trkpt lat="-36.7435612" lon="174.4175194"><ele>127.0</ele><time>2026-03-28T21:20:06.625Z</time></trkpt><trkpt lat="-36.7436067" lon="174.4175797"><ele>127.0</ele><time>2026-03-28T21:20:08.625Z</time></trkpt><trkpt lat="-36.7436869" lon="174.417569"><ele>127.0</ele><time>2026-03-28T21:20:11.625Z</time></trkpt><trkpt lat="-36.7437082" lon="174.4174858"><ele>127.0</ele><time>2026-03-28T21:20:14.626Z</time></trkpt><trkpt lat="-36.7437017" lon="174.4174069"><ele>127.0</ele><time>2026-03-28T21:20:16.625Z</time></trkpt><trkpt lat="-36.7437435" lon="174.4173218"><ele>127.0</ele><time>2026-03-28T21:20:19.626Z</time></trkpt><trkpt lat="-36.7438065" lon="174.4172683"><ele>127.0</ele><time>2026-03-28T21:20:22.625Z</time></trkpt><trkpt lat="-36.7438592" lon="174.4171896"><ele>127.00000000000001</ele><time>2026-03-28T21:20:25.625Z</time></trkpt><trkpt lat="-36.7439132" lon="174.4171294"><ele>127.0</ele><time>2026-03-28T21:20:27.625Z</time></trkpt><trkpt lat="-36.7439831" lon="174.4170692"><ele>127.0</ele><time>2026-03-28T21:20:29.626Z</time></trkpt><trkpt lat="-36.7440487" lon="174.4170365"><ele>127.0</ele><time>2026-03-28T21:20:31.625Z</time></trkpt><trkpt lat="-36.7441165" lon="174.4170399"><ele>127.00000000000001</ele><time>2026-03-28T21:20:33.625Z</time></trkpt><trkpt lat="-36.7441875" lon="174.4170467"><ele>127.0</ele><time>2026-03-28T21:20:35.626Z</time></trkpt><trkpt lat="-36.744267" lon="174.4169972"><ele>127.0</ele><time>2026-03-28T21:20:37.624Z</time></trkpt><trkpt lat="-36.7443173" lon="174.416921"><ele>126.99999999999999</ele><time>2026-03-28T21:20:40.625Z</time></trkpt><trkpt lat="-36.7442536" lon="174.4168624"><ele>126.99999999999999</ele><time>2026-03-28T21:20:43.626Z</time></trkpt><trkpt lat="-36.744169" lon="174.4168369"><ele>127.0</ele><time>2026-03-28T21:20:46.625Z</time></trkpt><trkpt lat="-36.7440974" lon="174.4167515"><ele>127.0</ele><time>2026-03-28T21:20:47.625Z</time></trkpt><trkpt lat="-36.7440023" lon="174.4166836"><ele>127.0</ele><time>2026-03-28T21:20:49.625Z</time></trkpt><trkpt lat="-36.7439745" lon="174.4165988"><ele>126.99999999999999</ele><time>2026-03-28T21:20:51.626Z</time></trkpt><trkpt lat="-36.7439684" lon="174.4164719"><ele>126.99999999999999</ele><time>2026-03-28T21:20:53.625Z</time></trkpt><trkpt lat="-36.7439585" lon="174.416318"><ele>127.0</ele><time>2026-03-28T21:20:55.625Z</time></trkpt><trkpt lat="-36.743863" lon="174.4162729"><ele>127.0</ele><time>2026-03-28T21:20:57.626Z</time></trkpt><trkpt lat="-36.7437804" lon="174.416139"><ele>125.66666666666667</ele><time>2026-03-28T21:20:59.625Z</time></trkpt><trkpt lat="-36.7437293" lon="174.4160293"><ele>124.33333333333334</ele><time>2026-03-28T21:21:00.624Z</time></trkpt><trkpt lat="-36.7437053" lon="174.4159465"><ele>123.0</ele><time>2026-03-28T21:21:02.625Z</time></trkpt><trkpt lat="-36.7436901" lon="174.41586"><ele>121.66666666666666</ele><time>2026-03-28T21:21:04.625Z</time></trkpt><trkpt lat="-36.7437307" lon="174.4157697"><ele>120.33333333333333</ele><time>2026-03-28T21:21:06.625Z</time></trkpt><trkpt lat="-36.7437935" lon="174.4157923"><ele>119.0</ele><time>2026-03-28T21:21:09.626Z</time></trkpt><trkpt lat="-36.7438458" lon="174.415889"><ele>118.99999999999999</ele><time>2026-03-28T21:21:12.625Z</time></trkpt><trkpt lat="-36.7438854" lon="174.415974"><ele>119.0</ele><time>2026-03-28T21:21:15.626Z</time></trkpt><trkpt lat="-36.7439499" lon="174.4159771"><ele>119.0</ele><time>2026-03-28T21:21:17.625Z</time></trkpt><trkpt lat="-36.7440363" lon="174.4160162"><ele>119.0</ele><time>2026-03-28T21:21:20.625Z</time></trkpt><trkpt lat="-36.7440804" lon="174.4160877"><ele>118.99999999999999</ele><time>2026-03-28T21:21:23.625Z</time></trkpt><trkpt lat="-36.7440854" lon="174.416174"><ele>119.0</ele><time>2026-03-28T21:21:25.626Z</time></trkpt><trkpt lat="-36.7440927" lon="174.4162831"><ele>120.33333333333333</ele><time>2026-03-28T21:21:28.624Z</time></trkpt><trkpt lat="-36.7441072" lon="174.4163613"><ele>121.66666666666666</ele><time>2026-03-28T21:21:30.625Z</time></trkpt><trkpt lat="-36.744095" lon="174.4164616"><ele>123.0</ele><time>2026-03-28T21:21:33.625Z</time></trkpt><trkpt lat="-36.7441208" lon="174.4165399"><ele>124.33333333333334</ele><time>2026-03-28T21:21:36.626Z</time></trkpt><trkpt lat="-36.7441958" lon="174.4165824"><ele>125.66666666666667</ele><time>2026-03-28T21:21:39.625Z</time></trkpt><trkpt lat="-36.7442584" lon="174.4165041"><ele>127.0</ele><time>2026-03-28T21:21:42.625Z</time></trkpt><trkpt lat="-36.7442745" lon="174.4164114"><ele>127.33333333333334</ele><time>2026-03-28T21:21:45.625Z</time></trkpt><trkpt lat="-36.7442783" lon="174.4162987"><ele>127.66666666666667</ele><time>2026-03-28T21:21:48.626Z</time></trkpt><trkpt lat="-36.7443291" lon="174.4162295"><ele>128.0</ele><time>2026-03-28T21:21:52.624Z</time></trkpt><trkpt lat="-36.744408" lon="174.4162537"><ele>128.33333333333334</ele><time>2026-03-28T21:21:55.625Z</time></trkpt><trkpt lat="-36.7444708" lon="174.4162916"><ele>128.66666666666666</ele><time>2026-03-28T21:21:58.626Z</time></trkpt><trkpt lat="-36.7445197" lon="174.4163525"><ele>129.0</ele><time>2026-03-28T21:22:01.626Z</time></trkpt><trkpt lat="-36.7445321" lon="174.4164607"><ele>129.5</ele><time>2026-03-28T21:22:04.625Z</time></trkpt><trkpt lat="-36.7445285" lon="174.4165455"><ele>130.0</ele><time>2026-03-28T21:22:06.626Z</time></trkpt><trkpt lat="-36.7445273" lon="174.4166573"><ele>130.5</ele><time>2026-03-28T21:22:09.626Z</time></trkpt><trkpt lat="-36.7445464" lon="174.4167334"><ele>131.0</ele><time>2026-03-28T21:22:11.626Z</time></trkpt><trkpt lat="-36.7445811" lon="174.4168187"><ele>131.5</ele><time>2026-03-28T21:22:14.624Z</time></trkpt><trkpt lat="-36.7445736" lon="174.416914"><ele>132.0</ele><time>2026-03-28T21:22:17.625Z</time></trkpt><trkpt lat="-36.7446429" lon="174.4169582"><ele>132.0</ele><time>2026-03-28T21:22:21.627Z</time></trkpt><trkpt lat="-36.7447266" lon="174.416908"><ele>132.0</ele><time>2026-03-28T21:22:24.625Z</time></trkpt><trkpt lat="-36.7447986" lon="174.4168988"><ele>132.0</ele><time>2026-03-28T21:22:28.626Z</time></trkpt><trkpt lat="-36.7448783" lon="174.4168493"><ele>132.0</ele><time>2026-03-28T21:22:31.625Z</time></trkpt><trkpt lat="-36.7449613" lon="174.4168516"><ele>132.0</ele><time>2026-03-28T21:22:34.625Z</time></trkpt><trkpt lat="-36.7450284" lon="174.4169185"><ele>132.0</ele><time>2026-03-28T21:22:37.625Z</time></trkpt><trkpt lat="-36.7450768" lon="174.4169983"><ele>132.0</ele><time>2026-03-28T21:22:40.624Z</time></trkpt><trkpt lat="-36.7451193" lon="174.417088"><ele>132.0</ele><time>2026-03-28T21:22:43.625Z</time></trkpt><trkpt lat="-36.7451903" lon="174.4171199"><ele>132.0</ele><time>2026-03-28T21:22:46.626Z</time></trkpt><trkpt lat="-36.7452532" lon="174.4170909"><ele>132.0</ele><time>2026-03-28T21:22:50.625Z</time></trkpt><trkpt lat="-36.7453243" lon="174.4170511"><ele>132.0</ele><time>2026-03-28T21:22:53.625Z</time></trkpt><trkpt lat="-36.7453843" lon="174.4170126"><ele>132.0</ele><time>2026-03-28T21:22:55.626Z</time></trkpt><trkpt lat="-36.7454601" lon="174.4170366"><ele>132.66666666666666</ele><time>2026-03-28T21:22:58.626Z</time></trkpt><trkpt lat="-36.7455266" lon="174.4170714"><ele>133.33333333333334</ele><time>2026-03-28T21:23:00.625Z</time></trkpt><trkpt lat="-36.7456106" lon="174.4170871"><ele>134.0</ele><time>2026-03-28T21:23:03.627Z</time></trkpt><trkpt lat="-36.7456969" lon="174.4170875"><ele>134.66666666666669</ele><time>2026-03-28T21:23:06.626Z</time></trkpt><trkpt lat="-36.7457538" lon="174.4171262"><ele>135.33333333333334</ele><time>2026-03-28T21:23:08.626Z</time></trkpt><trkpt lat="-36.7457927" lon="174.4171952"><ele>136.0</ele><time>2026-03-28T21:23:11.625Z</time></trkpt><trkpt lat="-36.7458145" lon="174.4172968"><ele>136.0</ele><time>2026-03-28T21:23:14.625Z</time></trkpt><trkpt lat="-36.7458356" lon="174.4173971"><ele>136.0</ele><time>2026-03-28T21:23:17.625Z</time></trkpt><trkpt lat="-36.7458679" lon="174.4175135"><ele>136.0</ele><time>2026-03-28T21:23:21.625Z</time></trkpt><trkpt lat="-36.7458915" lon="174.4175936"><ele>136.0</ele><time>2026-03-28T21:23:24.626Z</time></trkpt><trkpt lat="-36.7459049" lon="174.4176828"><ele>136.0</ele><time>2026-03-28T21:23:27.625Z</time></trkpt><trkpt lat="-36.7459788" lon="174.4177309"><ele>136.0</ele><time>2026-03-28T21:23:30.625Z</time></trkpt><trkpt lat="-36.7460458" lon="174.4177521"><ele>135.99999999999997</ele><time>2026-03-28T21:23:34.626Z</time></trkpt><trkpt lat="-36.7461071" lon="174.4177804"><ele>136.0</ele><time>2026-03-28T21:23:37.626Z</time></trkpt><trkpt lat="-36.7461201" lon="174.417872"><ele>136.0</ele><time>2026-03-28T21:23:40.624Z</time></trkpt><trkpt lat="-36.746067" lon="174.4179387"><ele>136.0</ele><time>2026-03-28T21:23:43.627Z</time></trkpt><trkpt lat="-36.7460083" lon="174.418"><ele>136.0</ele><time>2026-03-28T21:23:47.625Z</time></trkpt><trkpt lat="-36.7459501" lon="174.4179698"><ele>135.99999999999997</ele><time>2026-03-28T21:24:17.626Z</time></trkpt><trkpt lat="-36.7458719" lon="174.4179458"><ele>136.0</ele><time>2026-03-28T21:24:20.627Z</time></trkpt><trkpt lat="-36.7458153" lon="174.4178785"><ele>136.0</ele><time>2026-03-28T21:24:22.625Z</time></trkpt><trkpt lat="-36.7457396" lon="174.4178142"><ele>136.0</ele><time>2026-03-28T21:24:24.626Z</time></trkpt><trkpt lat="-36.7456578" lon="174.41777"><ele>136.0</ele><time>2026-03-28T21:24:25.625Z</time></trkpt><trkpt lat="-36.7455787" lon="174.4177433"><ele>136.0</ele><time>2026-03-28T21:24:27.625Z</time></trkpt><trkpt lat="-36.7455145" lon="174.4176909"><ele>136.0</ele><time>2026-03-28T21:24:29.626Z</time></trkpt><trkpt lat="-36.7454069" lon="174.4175596"><ele>136.0</ele><time>2026-03-28T21:24:31.626Z</time></trkpt><trkpt lat="-36.7453561" lon="174.4175025"><ele>136.0</ele><time>2026-03-28T21:24:32.625Z</time></trkpt><trkpt lat="-36.7452565" lon="174.4174183"><ele>136.0</ele><time>2026-03-28T21:24:34.625Z</time></trkpt><trkpt lat="-36.7451943" lon="174.4173699"><ele>136.0</ele><time>2026-03-28T21:24:35.625Z</time></trkpt><trkpt lat="-36.7451273" lon="174.4173197"><ele>136.0</ele><time>2026-03-28T21:24:36.626Z</time></trkpt><trkpt lat="-36.7450464" lon="174.4172627"><ele>136.0</ele><time>2026-03-28T21:24:37.626Z</time></trkpt><trkpt lat="-36.745005" lon="174.4171987"><ele>135.2</ele><time>2026-03-28T21:24:39.626Z</time></trkpt><trkpt lat="-36.7449004" lon="174.4171652"><ele>134.39999999999998</ele><time>2026-03-28T21:24:41.625Z</time></trkpt><trkpt lat="-36.7447773" lon="174.417189"><ele>133.6</ele><time>2026-03-28T21:24:43.624Z</time></trkpt><trkpt lat="-36.7447443" lon="174.4172743"><ele>132.79999999999998</ele><time>2026-03-28T21:24:45.625Z</time></trkpt><trkpt lat="-36.7447776" lon="174.4173823"><ele>132.0</ele><time>2026-03-28T21:24:47.626Z</time></trkpt><trkpt lat="-36.7447435" lon="174.4174815"><ele>132.0</ele><time>2026-03-28T21:24:49.624Z</time></trkpt><trkpt lat="-36.7447182" lon="174.4175566"><ele>132.0</ele><time>2026-03-28T21:24:50.625Z</time></trkpt><trkpt lat="-36.7446732" lon="174.4176634"><ele>132.0</ele><time>2026-03-28T21:24:52.625Z</time></trkpt><trkpt lat="-36.7446198" lon="174.4177122"><ele>132.0</ele><time>2026-03-28T21:24:53.626Z</time></trkpt><trkpt lat="-36.7445178" lon="174.4177896"><ele>132.0</ele><time>2026-03-28T21:24:55.626Z</time></trkpt><trkpt lat="-36.7443846" lon="174.4177926"><ele>131.16666666666666</ele><time>2026-03-28T21:24:57.625Z</time></trkpt><trkpt lat="-36.7442642" lon="174.4178149"><ele>130.33333333333334</ele><time>2026-03-28T21:24:59.626Z</time></trkpt><trkpt lat="-36.7442088" lon="174.4178622"><ele>129.5</ele><time>2026-03-28T21:25:00.626Z</time></trkpt><trkpt lat="-36.7441613" lon="174.4179215"><ele>128.66666666666669</ele><time>2026-03-28T21:25:01.626Z</time></trkpt><trkpt lat="-36.7441018" lon="174.4179763"><ele>127.83333333333334</ele><time>2026-03-28T21:25:02.625Z</time></trkpt><trkpt lat="-36.7440375" lon="174.4180261"><ele>127.0</ele><time>2026-03-28T21:25:03.626Z</time></trkpt><trkpt lat="-36.7439783" lon="174.4180658"><ele>125.66666666666667</ele><time>2026-03-28T21:25:04.627Z</time></trkpt><trkpt lat="-36.7438722" lon="174.4180631"><ele>124.33333333333334</ele><time>2026-03-28T21:25:06.627Z</time></trkpt><trkpt lat="-36.7438089" lon="174.4180796"><ele>123.0</ele><time>2026-03-28T21:25:07.625Z</time></trkpt><trkpt lat="-36.7437354" lon="174.418147"><ele>121.66666666666666</ele><time>2026-03-28T21:25:09.625Z</time></trkpt><trkpt lat="-36.7436582" lon="174.418192"><ele>120.33333333333333</ele><time>2026-03-28T21:25:11.625Z</time></trkpt><trkpt lat="-36.7435999" lon="174.4182327"><ele>119.0</ele><time>2026-03-28T21:25:13.625Z</time></trkpt><trkpt lat="-36.7435544" lon="174.4182968"><ele>118.0</ele><time>2026-03-28T21:25:15.626Z</time></trkpt><trkpt lat="-36.7434672" lon="174.4183989"><ele>117.0</ele><time>2026-03-28T21:25:17.625Z</time></trkpt><trkpt lat="-36.7433744" lon="174.41848"><ele>116.0</ele><time>2026-03-28T21:25:19.625Z</time></trkpt><trkpt lat="-36.7433012" lon="174.4185875"><ele>115.0</ele><time>2026-03-28T21:25:21.625Z</time></trkpt><trkpt lat="-36.7432011" lon="174.4186499"><ele>115.0</ele><time>2026-03-28T21:25:23.625Z</time></trkpt><trkpt lat="-36.7431003" lon="174.418665"><ele>115.0</ele><time>2026-03-28T21:25:25.625Z</time></trkpt><trkpt lat="-36.7430018" lon="174.4186514"><ele>115.0</ele><time>2026-03-28T21:25:27.624Z</time></trkpt><trkpt lat="-36.7429388" lon="174.4186399"><ele>115.0</ele><time>2026-03-28T21:25:28.626Z</time></trkpt><trkpt lat="-36.7428323" lon="174.4186352"><ele>115.0</ele><time>2026-03-28T21:25:30.625Z</time></trkpt><trkpt lat="-36.7427337" lon="174.4186572"><ele>116.2</ele><time>2026-03-28T21:25:32.625Z</time></trkpt><trkpt lat="-36.7426487" lon="174.4186644"><ele>117.4</ele><time>2026-03-28T21:25:34.627Z</time></trkpt><trkpt lat="-36.7425478" lon="174.4186757"><ele>118.6</ele><time>2026-03-28T21:25:36.625Z</time></trkpt><trkpt lat="-36.7424682" lon="174.4187007"><ele>119.8</ele><time>2026-03-28T21:25:38.625Z</time></trkpt><trkpt lat="-36.7423846" lon="174.4187374"><ele>121.0</ele><time>2026-03-28T21:25:40.625Z</time></trkpt><trkpt lat="-36.7422985" lon="174.4187993"><ele>119.19999999999999</ele><time>2026-03-28T21:25:42.625Z</time></trkpt><trkpt lat="-36.7422089" lon="174.4188656"><ele>117.39999999999999</ele><time>2026-03-28T21:25:44.625Z</time></trkpt><trkpt lat="-36.7421099" lon="174.4189039"><ele>115.6</ele><time>2026-03-28T21:25:46.626Z</time></trkpt><trkpt lat="-36.7420101" lon="174.4189395"><ele>113.8</ele><time>2026-03-28T21:25:48.624Z</time></trkpt><trkpt lat="-36.7419046" lon="174.4189664"><ele>112.0</ele><time>2026-03-28T21:25:50.625Z</time></trkpt><trkpt lat="-36.7418181" lon="174.4189905"><ele>111.50000000000001</ele><time>2026-03-28T21:25:52.626Z</time></trkpt><trkpt lat="-36.7417165" lon="174.4189787"><ele>111.0</ele><time>2026-03-28T21:25:54.625Z</time></trkpt><trkpt lat="-36.741638" lon="174.4189884"><ele>110.5</ele><time>2026-03-28T21:25:56.627Z</time></trkpt><trkpt lat="-36.7415544" lon="174.4190002"><ele>110.0</ele><time>2026-03-28T21:25:58.624Z</time></trkpt><trkpt lat="-36.7414664" lon="174.4189837"><ele>109.50000000000001</ele><time>2026-03-28T21:26:00.625Z</time></trkpt><trkpt lat="-36.7413838" lon="174.4189863"><ele>109.0</ele><time>2026-03-28T21:26:02.626Z</time></trkpt><trkpt lat="-36.7413228" lon="174.419018"><ele>109.00000000000001</ele><time>2026-03-28T21:26:04.626Z</time></trkpt><trkpt lat="-36.7412614" lon="174.4190764"><ele>109.0</ele><time>2026-03-28T21:26:06.625Z</time></trkpt><trkpt lat="-36.7412161" lon="174.4191659"><ele>109.0</ele><time>2026-03-28T21:26:08.625Z</time></trkpt><trkpt lat="-36.7411526" lon="174.4192648"><ele>109.0</ele><time>2026-03-28T21:26:10.625Z</time></trkpt><trkpt lat="-36.7410874" lon="174.4193242"><ele>109.00000000000001</ele><time>2026-03-28T21:26:12.625Z</time></trkpt><trkpt lat="-36.741005" lon="174.4193209"><ele>109.0</ele><time>2026-03-28T21:26:15.625Z</time></trkpt><trkpt lat="-36.741043" lon="174.4192349"><ele>109.0</ele><time>2026-03-28T21:26:19.627Z</time></trkpt><trkpt lat="-36.7410939" lon="174.4191547"><ele>109.0</ele><time>2026-03-28T21:26:22.626Z</time></trkpt><trkpt lat="-36.7410237" lon="174.4191851"><ele>109.0</ele><time>2026-03-28T21:26:26.625Z</time></trkpt><trkpt lat="-36.7409645" lon="174.4192138"><ele>109.0</ele><time>2026-03-28T21:26:28.627Z</time></trkpt><trkpt lat="-36.7408959" lon="174.4192362"><ele>109.0</ele><time>2026-03-28T21:26:30.626Z</time></trkpt><trkpt lat="-36.7408238" lon="174.4192577"><ele>109.0</ele><time>2026-03-28T21:26:32.625Z</time></trkpt><trkpt lat="-36.7407552" lon="174.4193123"><ele>109.0</ele><time>2026-03-28T21:26:34.624Z</time></trkpt><trkpt lat="-36.7406783" lon="174.4193828"><ele>109.6</ele><time>2026-03-28T21:26:36.626Z</time></trkpt><trkpt lat="-36.7406121" lon="174.4194153"><ele>110.2</ele><time>2026-03-28T21:26:37.626Z</time></trkpt><trkpt lat="-36.740518" lon="174.4194579"><ele>110.79999999999998</ele><time>2026-03-28T21:26:39.625Z</time></trkpt><trkpt lat="-36.7404256" lon="174.419486"><ele>111.39999999999999</ele><time>2026-03-28T21:26:41.625Z</time></trkpt><trkpt lat="-36.7403054" lon="174.4195093"><ele>112.0</ele><time>2026-03-28T21:26:43.626Z</time></trkpt><trkpt lat="-36.7402397" lon="174.4195171"><ele>111.71428571428571</ele><time>2026-03-28T21:26:44.626Z</time></trkpt><trkpt lat="-36.7401711" lon="174.4195357"><ele>111.42857142857143</ele><time>2026-03-28T21:26:45.627Z</time></trkpt><trkpt lat="-36.7401045" lon="174.419544"><ele>111.14285714285714</ele><time>2026-03-28T21:26:46.625Z</time></trkpt><trkpt lat="-36.7400375" lon="174.4195539"><ele>110.85714285714286</ele><time>2026-03-28T21:26:47.625Z</time></trkpt><trkpt lat="-36.7399562" lon="174.419531"><ele>110.57142857142857</ele><time>2026-03-28T21:26:48.626Z</time></trkpt><trkpt lat="-36.7398914" lon="174.4195213"><ele>110.28571428571428</ele><time>2026-03-28T21:26:49.624Z</time></trkpt><trkpt lat="-36.7398198" lon="174.419529"><ele>110.0</ele><time>2026-03-28T21:26:50.626Z</time></trkpt><trkpt lat="-36.7397538" lon="174.419537"><ele>109.99999999999999</ele><time>2026-03-28T21:26:51.625Z</time></trkpt><trkpt lat="-36.7396844" lon="174.4195385"><ele>110.0</ele><time>2026-03-28T21:26:52.625Z</time></trkpt><trkpt lat="-36.739619" lon="174.4195475"><ele>110.0</ele><time>2026-03-28T21:26:53.626Z</time></trkpt><trkpt lat="-36.7395016" lon="174.419558"><ele>110.0</ele><time>2026-03-28T21:26:55.625Z</time></trkpt><trkpt lat="-36.7394378" lon="174.4195809"><ele>109.99999999999999</ele><time>2026-03-28T21:26:56.626Z</time></trkpt><trkpt lat="-36.739336" lon="174.4196152"><ele>110.0</ele><time>2026-03-28T21:26:58.624Z</time></trkpt><trkpt lat="-36.7392456" lon="174.4195968"><ele>107.99999999999999</ele><time>2026-03-28T21:27:00.625Z</time></trkpt><trkpt lat="-36.7392133" lon="174.4195258"><ele>106.0</ele><time>2026-03-28T21:27:01.625Z</time></trkpt><trkpt lat="-36.7391484" lon="174.4194553"><ele>104.0</ele><time>2026-03-28T21:27:03.626Z</time></trkpt><trkpt lat="-36.7391086" lon="174.4193768"><ele>102.0</ele><time>2026-03-28T21:27:05.625Z</time></trkpt><trkpt lat="-36.7390656" lon="174.419308"><ele>99.99999999999999</ele><time>2026-03-28T21:27:07.624Z</time></trkpt><trkpt lat="-36.7390074" lon="174.4192585"><ele>98.0</ele><time>2026-03-28T21:27:10.625Z</time></trkpt><trkpt lat="-36.7390012" lon="174.4193627"><ele>98.0</ele><time>2026-03-28T21:27:14.626Z</time></trkpt><trkpt lat="-36.7390554" lon="174.4194382"><ele>98.0</ele><time>2026-03-28T21:27:16.626Z</time></trkpt><trkpt lat="-36.7391337" lon="174.4195373"><ele>98.0</ele><time>2026-03-28T21:27:18.625Z</time></trkpt><trkpt lat="-36.7391707" lon="174.4196625"><ele>98.0</ele><time>2026-03-28T21:27:20.625Z</time></trkpt><trkpt lat="-36.7392045" lon="174.4198185"><ele>98.0</ele><time>2026-03-28T21:27:22.626Z</time></trkpt><trkpt lat="-36.7392321" lon="174.419934"><ele>97.99999999999999</ele><time>2026-03-28T21:27:24.626Z</time></trkpt><trkpt lat="-36.7392437" lon="174.4200651"><ele>98.0</ele><time>2026-03-28T21:27:26.625Z</time></trkpt><trkpt lat="-36.739272" lon="174.4201442"><ele>98.0</ele><time>2026-03-28T21:27:27.625Z</time></trkpt><trkpt lat="-36.7393187" lon="174.4202357"><ele>98.0</ele><time>2026-03-28T21:27:28.626Z</time></trkpt><trkpt lat="-36.7393573" lon="174.4203519"><ele>97.99999999999999</ele><time>2026-03-28T21:27:30.626Z</time></trkpt><trkpt lat="-36.7394211" lon="174.4204185"><ele>98.0</ele><time>2026-03-28T21:27:32.626Z</time></trkpt><trkpt lat="-36.7394633" lon="174.4205083"><ele>96.83333333333333</ele><time>2026-03-28T21:27:34.626Z</time></trkpt><trkpt lat="-36.7394793" lon="174.4205971"><ele>95.66666666666666</ele><time>2026-03-28T21:27:36.626Z</time></trkpt><trkpt lat="-36.7395097" lon="174.4207149"><ele>94.5</ele><time>2026-03-28T21:27:39.626Z</time></trkpt><trkpt lat="-36.7394891" lon="174.4208155"><ele>93.33333333333333</ele><time>2026-03-28T21:27:40.626Z</time></trkpt><trkpt lat="-36.7394411" lon="174.4209138"><ele>92.16666666666666</ele><time>2026-03-28T21:27:42.624Z</time></trkpt><trkpt lat="-36.7394163" lon="174.4210288"><ele>91.0</ele><time>2026-03-28T21:27:44.625Z</time></trkpt><trkpt lat="-36.7394075" lon="174.4211405"><ele>91.0</ele><time>2026-03-28T21:27:46.624Z</time></trkpt><trkpt lat="-36.7394214" lon="174.4212877"><ele>91.0</ele><time>2026-03-28T21:27:48.624Z</time></trkpt><trkpt lat="-36.7394257" lon="174.4214309"><ele>91.0</ele><time>2026-03-28T21:27:50.625Z</time></trkpt><trkpt lat="-36.7394182" lon="174.4215984"><ele>91.0</ele><time>2026-03-28T21:27:52.625Z</time></trkpt><trkpt lat="-36.7394275" lon="174.4216991"><ele>91.0</ele><time>2026-03-28T21:27:53.626Z</time></trkpt><trkpt lat="-36.7394336" lon="174.4217817"><ele>90.14285714285714</ele><time>2026-03-28T21:27:54.625Z</time></trkpt><trkpt lat="-36.7394825" lon="174.4218409"><ele>89.28571428571428</ele><time>2026-03-28T21:27:55.625Z</time></trkpt><trkpt lat="-36.7395508" lon="174.4219243"><ele>88.42857142857143</ele><time>2026-03-28T21:27:57.625Z</time></trkpt><trkpt lat="-36.7396052" lon="174.4220051"><ele>87.57142857142857</ele><time>2026-03-28T21:28:00.625Z</time></trkpt><trkpt lat="-36.7396508" lon="174.4220623"><ele>86.71428571428571</ele><time>2026-03-28T21:28:02.626Z</time></trkpt><trkpt lat="-36.7397058" lon="174.4221118"><ele>85.85714285714286</ele><time>2026-03-28T21:28:04.626Z</time></trkpt><trkpt lat="-36.7397691" lon="174.4221431"><ele>85.0</ele><time>2026-03-28T21:28:06.625Z</time></trkpt><trkpt lat="-36.7398661" lon="174.4221676"><ele>85.0</ele><time>2026-03-28T21:28:08.625Z</time></trkpt><trkpt lat="-36.7399462" lon="174.4221685"><ele>85.0</ele><time>2026-03-28T21:28:10.625Z</time></trkpt><trkpt lat="-36.7400134" lon="174.422179"><ele>85.0</ele><time>2026-03-28T21:28:12.626Z</time></trkpt><trkpt lat="-36.7400606" lon="174.4222468"><ele>85.0</ele><time>2026-03-28T21:28:15.626Z</time></trkpt><trkpt lat="-36.740056" lon="174.4223374"><ele>85.0</ele><time>2026-03-28T21:28:18.625Z</time></trkpt><trkpt lat="-36.7400175" lon="174.4224291"><ele>85.0</ele><time>2026-03-28T21:28:22.626Z</time></trkpt><trkpt lat="-36.7399768" lon="174.4224984"><ele>85.0</ele><time>2026-03-28T21:28:27.626Z</time></trkpt><trkpt lat="-36.7399445" lon="174.4226008"><ele>85.0</ele><time>2026-03-28T21:28:30.626Z</time></trkpt><trkpt lat="-36.7399228" lon="174.4226956"><ele>85.0</ele><time>2026-03-28T21:28:33.626Z</time></trkpt><trkpt lat="-36.7399073" lon="174.4227779"><ele>85.0</ele><time>2026-03-28T21:28:35.626Z</time></trkpt><trkpt lat="-36.7398936" lon="174.4228574"><ele>85.0</ele><time>2026-03-28T21:28:37.625Z</time></trkpt><trkpt lat="-36.7398777" lon="174.4229361"><ele>85.0</ele><time>2026-03-28T21:28:39.625Z</time></trkpt><trkpt lat="-36.7398659" lon="174.4230257"><ele>85.0</ele><time>2026-03-28T21:28:41.626Z</time></trkpt><trkpt lat="-36.7398548" lon="174.4231206"><ele>85.0</ele><time>2026-03-28T21:28:43.625Z</time></trkpt><trkpt lat="-36.7398608" lon="174.423212"><ele>84.33333333333333</ele><time>2026-03-28T21:28:45.625Z</time></trkpt><trkpt lat="-36.7398923" lon="174.423292"><ele>83.66666666666666</ele><time>2026-03-28T21:28:47.625Z</time></trkpt><trkpt lat="-36.7399334" lon="174.423368"><ele>83.0</ele><time>2026-03-28T21:28:49.626Z</time></trkpt><trkpt lat="-36.7399889" lon="174.4234474"><ele>82.33333333333333</ele><time>2026-03-28T21:28:52.626Z</time></trkpt><trkpt lat="-36.7399919" lon="174.4235595"><ele>81.66666666666667</ele><time>2026-03-28T21:28:55.626Z</time></trkpt><trkpt lat="-36.739984" lon="174.4236508"><ele>81.0</ele><time>2026-03-28T21:28:58.626Z</time></trkpt><trkpt lat="-36.7400376" lon="174.4237071"><ele>81.0</ele><time>2026-03-28T21:29:01.625Z</time></trkpt><trkpt lat="-36.740095" lon="174.4236664"><ele>81.0</ele><time>2026-03-28T21:29:05.625Z</time></trkpt></trkseg></trk></gpx>